| time (UTC) | temp C | wind direction | speed KPH | gust KPH | rain 1hr cm | rain 24hr cm | rain mn cm | humidity % | barometer mb |
| 20260901161609 | 22 | 327 | 4.8 | 9.7 | 0.00 | 0.00 | 0.00 | 53 | 1019.1 |
| 20260901161506 | 22 | 327 | 4.8 | 9.7 | 0.00 | 0.00 | 0.00 | 53 | 1019.1 |
| 20260901161450 | 22 | 327 | 4.8 | 9.7 | 0.00 | 0.00 | 0.00 | 53 | 1019.1 |
| 20260901161404 | 22 | 327 | 4.8 | 9.7 | 0.00 | 0.00 | 0.00 | 54 | 1019.1 |
| 20260901161307 | 22 | 327 | 4.8 | 9.7 | 0.00 | 0.00 | 0.00 | 54 | 1019.1 |
| 20260901161204 | 22 | 309 | 4.8 | 9.7 | 0.00 | 0.00 | 0.00 | 53 | 1019.1 |
| 20260901161104 | 22 | 308 | 4.8 | 9.7 | 0.00 | 0.00 | 0.00 | 53 | 1019.1 |
| 20260901161002 | 22 | 308 | 4.8 | 9.7 | 0.00 | 0.00 | 0.00 | 54 | 1019.1 |
| 20260901160947 | 22 | 308 | 4.8 | 9.7 | 0.00 | 0.00 | 0.00 | 54 | 1019.1 |
| 20260901160902 | 22 | 346 | 4.8 | 9.7 | 0.00 | 0.00 | 0.00 | 54 | 1019.1 |
| 20260901160802 | 22 | 346 | 4.8 | 9.7 | 0.00 | 0.00 | 0.00 | 54 | 1019.0 |
| 20260901160659 | 22 | 330 | 4.8 | 9.7 | 0.00 | 0.00 | 0.00 | 53 | 1019.0 |
| 20260901160557 | 22 | 330 | 4.8 | 9.7 | 0.00 | 0.00 | 0.00 | 53 | 1019.1 |
| 20260901160452 | 22 | 331 | 4.8 | 9.7 | 0.00 | 0.00 | 0.00 | 54 | 1019.0 |
| 20260901160446 | 22 | 332 | 4.8 | 9.7 | 0.00 | 0.00 | 0.00 | 53 | 1019.0 |
| 20260901160352 | 22 | 332 | 6.4 | 11.3 | 0.00 | 0.00 | 0.00 | 53 | 1019.1 |
| 20260901160252 | 22 | 336 | 6.4 | 11.3 | 0.00 | 0.00 | 0.00 | 53 | 1019.0 |
| 20260901160152 | 22 | 313 | 6.4 | 11.3 | 0.00 | 0.00 | 0.00 | 53 | 1019.0 |
| 20260901160052 | 22 | 340 | 6.4 | 11.3 | 0.00 | 0.00 | 0.00 | 53 | 1019.0 |
| 20260901155950 | 22 | 300 | 6.4 | 12.9 | 0.00 | 0.00 | 0.00 | 52 | 1019.0 |
| 20260901155946 | 22 | 322 | 6.4 | 12.9 | 0.00 | 0.00 | 0.00 | 52 | 1019.0 |
| 20260901155848 | 22 | 306 | 6.4 | 12.9 | 0.00 | 0.00 | 0.00 | 52 | 1019.0 |
| 20260901155748 | 22 | 312 | 6.4 | 14.5 | 0.00 | 0.00 | 0.00 | 52 | 1019.0 |
| 20260901155648 | 22 | 326 | 6.4 | 14.5 | 0.00 | 0.00 | 0.00 | 52 | 1019.0 |
| 20260901155546 | 22 | 298 | 6.4 | 14.5 | 0.00 | 0.00 | 0.00 | 51 | 1019.0 |
| 20260901155446 | 22 | 309 | 6.4 | 14.5 | 0.00 | 0.00 | 0.00 | 52 | 1019.0 |
| 20260901155344 | 22 | 327 | 6.4 | 14.5 | 0.00 | 0.00 | 0.00 | 52 | 1019.0 |
| 20260901155244 | 22 | 309 | 6.4 | 14.5 | 0.00 | 0.00 | 0.00 | 52 | 1019.0 |
| 20260901155142 | 22 | 336 | 6.4 | 14.5 | 0.00 | 0.00 | 0.00 | 51 | 1019.0 |
| 20260901155040 | 22 | 323 | 8.0 | 14.5 | 0.00 | 0.00 | 0.00 | 52 | 1019.0 |
| 20260901154944 | 22 | 329 | 8.0 | 14.5 | 0.00 | 0.00 | 0.00 | 51 | 1019.0 |
| 20260901154934 | 22 | 338 | 8.0 | 14.5 | 0.00 | 0.00 | 0.00 | 51 | 1019.0 |
| 20260901154834 | 23 | 335 | 6.4 | 14.5 | 0.00 | 0.00 | 0.00 | 52 | 1019.0 |
| 20260901154734 | 23 | 336 | 6.4 | 14.5 | 0.00 | 0.00 | 0.00 | 52 | 1019.0 |
| 20260901154634 | 23 | 350 | 6.4 | 14.5 | 0.00 | 0.00 | 0.00 | 51 | 1019.0 |
| 20260901154533 | 23 | 351 | 6.4 | 14.5 | 0.00 | 0.00 | 0.00 | 50 | 1019.0 |
| 20260901154443 | 23 | 339 | 6.4 | 14.5 | 0.00 | 0.00 | 0.00 | 50 | 1018.9 |
| 20260901154430 | 23 | 340 | 6.4 | 14.5 | 0.00 | 0.00 | 0.00 | 50 | 1018.9 |
| 20260901154330 | 23 | 339 | 6.4 | 14.5 | 0.00 | 0.00 | 0.00 | 50 | 1018.9 |
| 20260901154230 | 23 | 350 | 6.4 | 14.5 | 0.00 | 0.00 | 0.00 | 51 | 1018.9 |
| 20260901154130 | 23 | 355 | 6.4 | 14.5 | 0.00 | 0.00 | 0.00 | 50 | 1019.0 |
| 20260901154030 | 23 | 339 | 6.4 | 14.5 | 0.00 | 0.00 | 0.00 | 51 | 1018.9 |
| 20260901153944 | 23 | 333 | 4.8 | 14.5 | 0.00 | 0.00 | 0.00 | 51 | 1019.0 |
| 20260901153930 | 23 | 351 | 4.8 | 14.5 | 0.00 | 0.00 | 0.00 | 51 | 1019.0 |
| 20260901153830 | 23 | 298 | 6.4 | 14.5 | 0.00 | 0.00 | 0.00 | 51 | 1019.0 |
| 20260901153729 | 23 | 298 | 6.4 | 14.5 | 0.00 | 0.00 | 0.00 | 51 | 1019.0 |
| 20260901153629 | 23 | 331 | 6.4 | 14.5 | 0.00 | 0.00 | 0.00 | 51 | 1019.0 |
| 20260901153529 | 23 | 340 | 6.4 | 14.5 | 0.00 | 0.00 | 0.00 | 52 | 1019.0 |
| 20260901153443 | 23 | 311 | 4.8 | 12.9 | 0.00 | 0.00 | 0.00 | 51 | 1019.0 |
| 20260901153429 | 23 | 321 | 4.8 | 12.9 | 0.00 | 0.00 | 0.00 | 51 | 1019.0 |
| 20260901153329 | 23 | 296 | 4.8 | 12.9 | 0.00 | 0.00 | 0.00 | 51 | 1019.0 |
| 20260901153229 | 23 | 306 | 4.8 | 12.9 | 0.00 | 0.00 | 0.00 | 50 | 1019.0 |
| 20260901153210 | 23 | 333 | 4.8 | 12.9 | 0.00 | 0.00 | 0.00 | 50 | 1019.0 |
| 20260901153203 | 23 | 317 | 4.8 | 12.9 | 0.00 | 0.00 | 0.00 | 50 | 1019.0 |
| 20260901153159 | 23 | 333 | 4.8 | 12.9 | 0.00 | 0.00 | 0.00 | 51 | 1019.0 |
| 20260901152929 | 23 | 340 | 4.8 | 12.9 | 0.00 | 0.00 | 0.00 | 50 | 1019.0 |
| 20260901152829 | 23 | 339 | 4.8 | 12.9 | 0.00 | 0.00 | 0.00 | 50 | 1019.0 |
| 20260901152728 | 23 | 336 | 4.8 | 12.9 | 0.00 | 0.00 | 0.00 | 51 | 1019.0 |
| 20260901152628 | 23 | 323 | 4.8 | 11.3 | 0.00 | 0.00 | 0.00 | 51 | 1019.0 |
| 20260901152527 | 23 | 327 | 4.8 | 11.3 | 0.00 | 0.00 | 0.00 | 51 | 1019.0 |
| 20260901152427 | 23 | 327 | 4.8 | 11.3 | 0.00 | 0.00 | 0.00 | 51 | 1019.0 |
| 20260901152327 | 23 | 305 | 4.8 | 12.9 | 0.00 | 0.00 | 0.00 | 52 | 1019.0 |
| 20260901152224 | 23 | 310 | 4.8 | 12.9 | 0.00 | 0.00 | 0.00 | 53 | 1019.0 |
| 20260901152125 | 23 | 296 | 4.8 | 12.9 | 0.00 | 0.00 | 0.00 | 53 | 1019.0 |
| 20260901152022 | 23 | 314 | 4.8 | 12.9 | 0.00 | 0.00 | 0.00 | 51 | 1019.0 |
| 20260901151944 | 23 | 315 | 6.4 | 12.9 | 0.00 | 0.00 | 0.00 | 51 | 1019.0 |
| 20260901151922 | 23 | 328 | 6.4 | 12.9 | 0.00 | 0.00 | 0.00 | 52 | 1019.0 |
| 20260901151821 | 23 | 319 | 6.4 | 16.1 | 0.00 | 0.00 | 0.00 | 50 | 1019.0 |
| 20260901151717 | 23 | 335 | 6.4 | 16.1 | 0.00 | 0.00 | 0.00 | 51 | 1019.0 |
| 20260901151616 | 23 | 341 | 6.4 | 16.1 | 0.00 | 0.00 | 0.00 | 50 | 1019.0 |
| 20260901151516 | 23 | 344 | 6.4 | 16.1 | 0.00 | 0.00 | 0.00 | 51 | 1019.0 |
| 20260901151444 | 23 | 20 | 6.4 | 16.1 | 0.00 | 0.00 | 0.00 | 51 | 1019.0 |
| 20260901151415 | 23 | 19 | 6.4 | 16.1 | 0.00 | 0.00 | 0.00 | 51 | 1019.0 |
| 20260901151315 | 23 | 24 | 6.4 | 16.1 | 0.00 | 0.00 | 0.00 | 52 | 1019.0 |
| 20260901151211 | 23 | 5 | 6.4 | 16.1 | 0.00 | 0.00 | 0.00 | 50 | 1019.0 |
| 20260901151110 | 23 | 331 | 6.4 | 16.1 | 0.00 | 0.00 | 0.00 | 51 | 1019.0 |
| 20260901151010 | 23 | 331 | 6.4 | 16.1 | 0.00 | 0.00 | 0.00 | 52 | 1019.1 |
| 20260901150944 | 23 | 11 | 6.4 | 16.1 | 0.00 | 0.00 | 0.00 | 52 | 1019.1 |
| 20260901150908 | 23 | 333 | 6.4 | 12.9 | 0.00 | 0.00 | 0.00 | 51 | 1019.0 |
| 20260901150808 | 23 | 5 | 8.0 | 14.5 | 0.00 | 0.00 | 0.00 | 53 | 1019.0 |
| 20260901150714 | 23 | 321 | 8.0 | 14.5 | 0.00 | 0.00 | 0.00 | 50 | 1019.1 |
| 20260901150708 | 23 | 320 | 8.0 | 14.5 | 0.00 | 0.00 | 0.00 | 51 | 1019.0 |
| 20260901150704 | 23 | 320 | 8.0 | 14.5 | 0.00 | 0.00 | 0.00 | 51 | 1019.1 |
| 20260901150701 | 23 | 321 | 8.0 | 14.5 | 0.00 | 0.00 | 0.00 | 51 | 1019.1 |
| 20260901150409 | 23 | 344 | 8.0 | 14.5 | 0.00 | 0.00 | 0.00 | 49 | 1019.0 |
| 20260901150308 | 23 | 338 | 8.0 | 14.5 | 0.00 | 0.00 | 0.00 | 50 | 1019.0 |
| 20260901150209 | 23 | 325 | 8.0 | 14.5 | 0.00 | 0.00 | 0.00 | 51 | 1019.1 |
| 20260901150201 | 23 | 301 | 8.0 | 16.1 | 0.00 | 0.00 | 0.00 | 51 | 1019.1 |
| 20260901150157 | 23 | 315 | 8.0 | 16.1 | 0.00 | 0.00 | 0.00 | 51 | 1019.1 |
| 20260901150153 | 23 | 317 | 8.0 | 16.1 | 0.00 | 0.00 | 0.00 | 51 | 1019.1 |
| 20260901145908 | 23 | 319 | 8.0 | 16.1 | 0.00 | 0.00 | 0.00 | 51 | 1019.1 |
| 20260901145807 | 23 | 336 | 6.4 | 16.1 | 0.00 | 0.00 | 0.00 | 51 | 1019.1 |
| 20260901145707 | 23 | 325 | 6.4 | 16.1 | 0.00 | 0.00 | 0.00 | 51 | 1019.1 |
| 20260901145606 | 23 | 325 | 6.4 | 16.1 | 0.00 | 0.00 | 0.00 | 52 | 1019.0 |
| 20260901145506 | 23 | 325 | 6.4 | 16.1 | 0.00 | 0.00 | 0.00 | 51 | 1019.1 |
| 20260901145438 | 23 | 306 | 6.4 | 16.1 | 0.00 | 0.00 | 0.00 | 50 | 1019.1 |
| 20260901145406 | 23 | 355 | 6.4 | 16.1 | 0.00 | 0.00 | 0.00 | 49 | 1019.0 |
| 20260901145307 | 23 | 319 | 6.4 | 16.1 | 0.00 | 0.00 | 0.00 | 49 | 1019.1 |
| 20260901145204 | 23 | 331 | 6.4 | 16.1 | 0.00 | 0.00 | 0.00 | 50 | 1019.1 |
| 20260901145200 | 23 | 284 | 6.4 | 14.5 | 0.00 | 0.00 | 0.00 | 49 | 1019.0 |
| 20260901145155 | 23 | 312 | 6.4 | 14.5 | 0.00 | 0.00 | 0.00 | 49 | 1019.0 |
| 20260901145151 | 23 | 314 | 6.4 | 14.5 | 0.00 | 0.00 | 0.00 | 49 | 1019.0 |
| 20260901144904 | 23 | 272 | 6.4 | 14.5 | 0.00 | 0.00 | 0.00 | 49 | 1019.0 |
| 20260901144803 | 23 | 303 | 6.4 | 14.5 | 0.00 | 0.00 | 0.00 | 49 | 1019.1 |
| 20260901144703 | 23 | 330 | 6.4 | 14.5 | 0.00 | 0.00 | 0.00 | 48 | 1019.0 |
| 20260901144603 | 24 | 306 | 6.4 | 14.5 | 0.00 | 0.00 | 0.00 | 50 | 1019.1 |
| 20260901144501 | 24 | 323 | 6.4 | 14.5 | 0.00 | 0.00 | 0.00 | 50 | 1019.0 |
| 20260901144436 | 24 | 291 | 6.4 | 14.5 | 0.00 | 0.00 | 0.00 | 50 | 1019.0 |
| 20260901144401 | 24 | 290 | 6.4 | 14.5 | 0.00 | 0.00 | 0.00 | 49 | 1019.0 |
| 20260901144301 | 24 | 284 | 6.4 | 14.5 | 0.00 | 0.00 | 0.00 | 50 | 1019.0 |
| 20260901144202 | 24 | 271 | 6.4 | 14.5 | 0.00 | 0.00 | 0.00 | 49 | 1019.0 |
| 20260901144101 | 24 | 299 | 6.4 | 14.5 | 0.00 | 0.00 | 0.00 | 49 | 1019.0 |
| 20260901144001 | 24 | 302 | 8.0 | 14.5 | 0.00 | 0.00 | 0.00 | 48 | 1019.0 |
| 20260901143936 | 24 | 309 | 8.0 | 14.5 | 0.00 | 0.00 | 0.00 | 48 | 1019.0 |
| 20260901143901 | 24 | 319 | 8.0 | 14.5 | 0.00 | 0.00 | 0.00 | 48 | 1019.0 |
| 20260901143801 | 24 | 297 | 8.0 | 14.5 | 0.00 | 0.00 | 0.00 | 48 | 1019.0 |
| 20260901143701 | 24 | 315 | 8.0 | 14.5 | 0.00 | 0.00 | 0.00 | 47 | 1019.0 |
| 20260901143601 | 25 | 355 | 8.0 | 14.5 | 0.00 | 0.00 | 0.00 | 47 | 1019.1 |
| 20260901143502 | 25 | 317 | 8.0 | 14.5 | 0.00 | 0.00 | 0.00 | 47 | 1019.0 |
| 20260901143435 | 25 | 306 | 8.0 | 14.5 | 0.00 | 0.00 | 0.00 | 47 | 1019.0 |
| 20260901143401 | 25 | 271 | 8.0 | 12.9 | 0.00 | 0.00 | 0.00 | 47 | 1019.1 |
| 20260901143301 | 25 | 237 | 8.0 | 14.5 | 0.00 | 0.00 | 0.00 | 47 | 1019.1 |
| 20260901143201 | 25 | 233 | 8.0 | 14.5 | 0.00 | 0.00 | 0.00 | 47 | 1019.1 |
| 20260901143101 | 25 | 250 | 8.0 | 14.5 | 0.00 | 0.00 | 0.00 | 47 | 1019.1 |
| 20260901143001 | 25 | 263 | 6.4 | 14.5 | 0.00 | 0.00 | 0.00 | 47 | 1019.0 |
| 20260901142934 | 25 | 268 | 6.4 | 14.5 | 0.00 | 0.00 | 0.00 | 47 | 1019.0 |
| 20260901142900 | 25 | 281 | 6.4 | 14.5 | 0.00 | 0.00 | 0.00 | 46 | 1019.0 |
| 20260901142800 | 25 | 282 | 6.4 | 14.5 | 0.00 | 0.00 | 0.00 | 46 | 1019.0 |
| 20260901142701 | 25 | 265 | 6.4 | 14.5 | 0.00 | 0.00 | 0.00 | 47 | 1019.0 |
| 20260901142601 | 25 | 256 | 6.4 | 14.5 | 0.00 | 0.00 | 0.00 | 47 | 1019.0 |
| 20260901142501 | 25 | 246 | 6.4 | 14.5 | 0.00 | 0.00 | 0.00 | 47 | 1019.0 |
| 20260901142432 | 25 | 305 | 6.4 | 14.5 | 0.00 | 0.00 | 0.00 | 48 | 1019.0 |
| 20260901142401 | 25 | 262 | 6.4 | 14.5 | 0.00 | 0.00 | 0.00 | 48 | 1019.0 |
| 20260901142301 | 25 | 235 | 4.8 | 12.9 | 0.00 | 0.00 | 0.00 | 48 | 1019.0 |
| 20260901142205 | 25 | 342 | 4.8 | 12.9 | 0.00 | 0.00 | 0.00 | 48 | 1019.0 |
| 20260901142201 | 25 | 326 | 4.8 | 12.9 | 0.00 | 0.00 | 0.00 | 47 | 1019.0 |
| 20260901142151 | 25 | 311 | 4.8 | 12.9 | 0.00 | 0.00 | 0.00 | 47 | 1019.0 |
| 20260901142147 | 25 | 327 | 4.8 | 12.9 | 0.00 | 0.00 | 0.00 | 47 | 1019.0 |
| 20260901141900 | 25 | 326 | 4.8 | 12.9 | 0.00 | 0.00 | 0.00 | 48 | 1019.0 |
| 20260901141800 | 25 | 321 | 4.8 | 12.9 | 0.00 | 0.00 | 0.00 | 48 | 1019.0 |
| 20260901141658 | 24 | 313 | 4.8 | 12.9 | 0.00 | 0.00 | 0.00 | 47 | 1019.0 |
| 20260901141553 | 24 | 18 | 4.8 | 11.3 | 0.00 | 0.00 | 0.00 | 47 | 1019.0 |
| 20260901141451 | 24 | 321 | 4.8 | 11.3 | 0.00 | 0.00 | 0.00 | 49 | 1019.0 |
| 20260901141434 | 24 | 317 | 4.8 | 11.3 | 0.00 | 0.00 | 0.00 | 48 | 1019.0 |
| 20260901141349 | 24 | 260 | 4.8 | 11.3 | 0.00 | 0.00 | 0.00 | 48 | 1019.1 |
| 20260901141249 | 24 | 260 | 4.8 | 11.3 | 0.00 | 0.00 | 0.00 | 48 | 1019.0 |
| 20260901141149 | 24 | 247 | 4.8 | 11.3 | 0.00 | 0.00 | 0.00 | 49 | 1019.1 |
| 20260901141044 | 24 | 250 | 4.8 | 11.3 | 0.00 | 0.00 | 0.00 | 48 | 1019.1 |
| 20260901140934 | 24 | 288 | 4.8 | 11.3 | 0.00 | 0.00 | 0.00 | 49 | 1019.1 |
| 20260901140844 | 24 | 268 | 4.8 | 11.3 | 0.00 | 0.00 | 0.00 | 49 | 1019.1 |
| 20260901140744 | 24 | 306 | 4.8 | 9.7 | 0.00 | 0.00 | 0.00 | 48 | 1019.1 |
| 20260901140644 | 24 | 303 | 4.8 | 11.3 | 0.00 | 0.00 | 0.00 | 50 | 1019.1 |
| 20260901140544 | 24 | 278 | 4.8 | 11.3 | 0.00 | 0.00 | 0.00 | 50 | 1019.1 |
| 20260901140431 | 24 | 281 | 4.8 | 11.3 | 0.00 | 0.00 | 0.00 | 49 | 1019.1 |
| 20260901140343 | 24 | 248 | 4.8 | 11.3 | 0.00 | 0.00 | 0.00 | 49 | 1019.1 |
| 20260901140243 | 24 | 318 | 6.4 | 11.3 | 0.00 | 0.00 | 0.00 | 50 | 1019.1 |
| 20260901140144 | 24 | 317 | 6.4 | 14.5 | 0.00 | 0.00 | 0.00 | 49 | 1019.1 |
| 20260901140044 | 24 | 284 | 6.4 | 14.5 | 0.00 | 0.00 | 0.00 | 48 | 1019.1 |
| 20260901135932 | 24 | 284 | 6.4 | 14.5 | 0.00 | 0.00 | 0.00 | 48 | 1019.1 |
| 20260901135839 | 24 | 283 | 8.0 | 14.5 | 0.00 | 0.00 | 0.00 | 49 | 1019.1 |
| 20260901135739 | 24 | 268 | 6.4 | 14.5 | 0.00 | 0.00 | 0.00 | 50 | 1019.1 |
| 20260901135639 | 24 | 277 | 6.4 | 14.5 | 0.00 | 0.00 | 0.00 | 50 | 1019.1 |
| 20260901135540 | 24 | 306 | 6.4 | 14.5 | 0.00 | 0.00 | 0.00 | 50 | 1019.1 |
| 20260901135432 | 24 | 323 | 6.4 | 14.5 | 0.00 | 0.00 | 0.00 | 50 | 1019.1 |
| 20260901135340 | 24 | 351 | 6.4 | 14.5 | 0.00 | 0.00 | 0.00 | 50 | 1019.1 |
| 20260901135240 | 24 | 329 | 6.4 | 14.5 | 0.00 | 0.00 | 0.00 | 49 | 1019.1 |
| 20260901135140 | 24 | 340 | 6.4 | 14.5 | 0.00 | 0.00 | 0.00 | 49 | 1019.1 |
| 20260901135040 | 23 | 297 | 6.4 | 12.9 | 0.00 | 0.00 | 0.00 | 50 | 1019.1 |
| 20260901134940 | 23 | 308 | 6.4 | 12.9 | 0.00 | 0.00 | 0.00 | 51 | 1019.1 |
| 20260901134931 | 23 | 312 | 6.4 | 12.9 | 0.00 | 0.00 | 0.00 | 51 | 1019.1 |
| 20260901134839 | 23 | 331 | 6.4 | 14.5 | 0.00 | 0.00 | 0.00 | 51 | 1019.1 |
| 20260901134740 | 23 | 296 | 8.0 | 14.5 | 0.00 | 0.00 | 0.00 | 52 | 1019.1 |
| 20260901134639 | 23 | 302 | 6.4 | 14.5 | 0.00 | 0.00 | 0.00 | 50 | 1019.1 |
| 20260901134539 | 23 | 324 | 6.4 | 14.5 | 0.00 | 0.00 | 0.00 | 51 | 1019.1 |
| 20260901134439 | 23 | 337 | 8.0 | 14.5 | 0.00 | 0.00 | 0.00 | 52 | 1019.1 |
| 20260901134432 | 23 | 328 | 8.0 | 14.5 | 0.00 | 0.00 | 0.00 | 52 | 1019.1 |
| 20260901134340 | 23 | 5 | 8.0 | 14.5 | 0.00 | 0.00 | 0.00 | 51 | 1019.1 |
| 20260901134240 | 23 | 355 | 8.0 | 14.5 | 0.00 | 0.00 | 0.00 | 51 | 1019.1 |
| 20260901134140 | 23 | 306 | 8.0 | 16.1 | 0.00 | 0.00 | 0.00 | 52 | 1019.2 |
| 20260901134040 | 23 | 315 | 9.7 | 16.1 | 0.00 | 0.00 | 0.00 | 51 | 1019.2 |
| 20260901133939 | 23 | 5 | 9.7 | 16.1 | 0.00 | 0.00 | 0.00 | 52 | 1019.2 |
| 20260901133931 | 23 | 337 | 9.7 | 16.1 | 0.00 | 0.00 | 0.00 | 52 | 1019.2 |
| 20260901133839 | 23 | 349 | 8.0 | 16.1 | 0.00 | 0.00 | 0.00 | 55 | 1019.2 |
| 20260901133739 | 23 | 17 | 9.7 | 16.1 | 0.00 | 0.00 | 0.00 | 55 | 1019.2 |
| 20260901133639 | 23 | 319 | 9.7 | 16.1 | 0.00 | 0.00 | 0.00 | 52 | 1019.3 |
| 20260901133540 | 23 | 333 | 9.7 | 16.1 | 0.00 | 0.00 | 0.00 | 53 | 1019.3 |
| 20260901133438 | 23 | 292 | 9.7 | 16.1 | 0.00 | 0.00 | 0.00 | 53 | 1019.2 |
| 20260901133430 | 23 | 334 | 9.7 | 16.1 | 0.00 | 0.00 | 0.00 | 52 | 1019.2 |
| 20260901133337 | 23 | 309 | 9.7 | 16.1 | 0.00 | 0.00 | 0.00 | 53 | 1019.3 |
| 20260901133238 | 23 | 345 | 9.7 | 16.1 | 0.00 | 0.00 | 0.00 | 53 | 1019.3 |
| 20260901133138 | 23 | 343 | 9.7 | 16.1 | 0.00 | 0.00 | 0.00 | 53 | 1019.3 |
| 20260901133038 | 23 | 317 | 8.0 | 16.1 | 0.00 | 0.00 | 0.00 | 54 | 1019.3 |
| 20260901132938 | 23 | 337 | 8.0 | 16.1 | 0.00 | 0.00 | 0.00 | 53 | 1019.3 |
| 20260901132929 | 23 | 323 | 8.0 | 16.1 | 0.00 | 0.00 | 0.00 | 53 | 1019.3 |
| 20260901132838 | 23 | 309 | 8.0 | 16.1 | 0.00 | 0.00 | 0.00 | 55 | 1019.3 |
| 20260901132738 | 23 | 336 | 8.0 | 16.1 | 0.00 | 0.00 | 0.00 | 55 | 1019.3 |
| 20260901132637 | 22 | 0 | 8.0 | 16.1 | 0.00 | 0.00 | 0.00 | 55 | 1019.3 |
| 20260901132537 | 22 | 346 | 8.0 | 16.1 | 0.00 | 0.00 | 0.00 | 53 | 1019.3 |
| 20260901132437 | 22 | 313 | 8.0 | 16.1 | 0.00 | 0.00 | 0.00 | 54 | 1019.3 |
| 20260901132430 | 22 | 323 | 8.0 | 16.1 | 0.00 | 0.00 | 0.00 | 54 | 1019.3 |
| 20260901132337 | 22 | 294 | 8.0 | 16.1 | 0.00 | 0.00 | 0.00 | 54 | 1019.4 |
| 20260901132237 | 22 | 275 | 8.0 | 16.1 | 0.00 | 0.00 | 0.00 | 54 | 1019.4 |
| 20260901132138 | 22 | 315 | 6.4 | 14.5 | 0.00 | 0.00 | 0.00 | 54 | 1019.3 |
| 20260901132034 | 22 | 5 | 8.0 | 14.5 | 0.00 | 0.00 | 0.00 | 53 | 1019.4 |
| 20260901131929 | 22 | 316 | 8.0 | 14.5 | 0.00 | 0.00 | 0.00 | 53 | 1019.4 |
| 20260901131834 | 22 | 270 | 8.0 | 14.5 | 0.00 | 0.00 | 0.00 | 53 | 1019.4 |
| 20260901131734 | 22 | 268 | 8.0 | 14.5 | 0.00 | 0.00 | 0.00 | 54 | 1019.4 |
| 20260901131633 | 22 | 309 | 8.0 | 14.5 | 0.00 | 0.00 | 0.00 | 53 | 1019.5 |
| 20260901131533 | 22 | 305 | 8.0 | 17.7 | 0.00 | 0.00 | 0.00 | 53 | 1019.4 |
| 20260901131433 | 22 | 288 | 8.0 | 17.7 | 0.00 | 0.00 | 0.00 | 53 | 1019.4 |
| 20260901131429 | 22 | 289 | 8.0 | 17.7 | 0.00 | 0.00 | 0.00 | 53 | 1019.4 |
| 20260901131333 | 22 | 261 | 9.7 | 17.7 | 0.00 | 0.00 | 0.00 | 53 | 1019.5 |
| 20260901131233 | 22 | 237 | 9.7 | 17.7 | 0.00 | 0.00 | 0.00 | 53 | 1019.4 |
| 20260901131152 | 22 | 301 | 9.7 | 19.3 | 0.00 | 0.00 | 0.00 | 53 | 1019.5 |
| 20260901131148 | 22 | 281 | 9.7 | 19.3 | 0.00 | 0.00 | 0.00 | 53 | 1019.4 |
| 20260901131144 | 22 | 296 | 9.7 | 19.3 | 0.00 | 0.00 | 0.00 | 53 | 1019.5 |
| 20260901131140 | 22 | 266 | 9.7 | 19.3 | 0.00 | 0.00 | 0.00 | 53 | 1019.5 |
| 20260901130834 | 23 | 265 | 9.7 | 19.3 | 0.00 | 0.00 | 0.00 | 53 | 1019.5 |
| 20260901130734 | 23 | 268 | 9.7 | 19.3 | 0.00 | 0.00 | 0.00 | 52 | 1019.5 |
| 20260901130634 | 23 | 254 | 9.7 | 19.3 | 0.00 | 0.00 | 0.00 | 52 | 1019.5 |
| 20260901130533 | 23 | 277 | 9.7 | 19.3 | 0.00 | 0.00 | 0.00 | 52 | 1019.5 |
| 20260901130433 | 23 | 264 | 9.7 | 19.3 | 0.00 | 0.00 | 0.00 | 52 | 1019.7 |
| 20260901130429 | 23 | 267 | 9.7 | 19.3 | 0.00 | 0.00 | 0.00 | 52 | 1019.7 |
| 20260901130334 | 23 | 278 | 9.7 | 19.3 | 0.00 | 0.00 | 0.00 | 51 | 1019.5 |
| 20260901130234 | 23 | 262 | 9.7 | 19.3 | 0.00 | 0.00 | 0.00 | 52 | 1019.7 |
| 20260901130129 | 23 | 264 | 8.0 | 17.7 | 0.00 | 0.00 | 0.00 | 52 | 1019.7 |
| 20260901130029 | 23 | 236 | 8.0 | 17.7 | 0.00 | 0.00 | 0.00 | 51 | 1019.7 |
| 20260901125929 | 23 | 250 | 8.0 | 17.7 | 0.00 | 0.00 | 0.00 | 52 | 1019.7 |
| 20260901125829 | 23 | 213 | 6.4 | 17.7 | 0.00 | 0.00 | 0.00 | 52 | 1019.7 |
| 20260901125729 | 23 | 255 | 8.0 | 17.7 | 0.00 | 0.00 | 0.00 | 52 | 1019.5 |
| 20260901125629 | 23 | 258 | 8.0 | 17.7 | 0.00 | 0.00 | 0.00 | 52 | 1019.7 |
| 20260901125529 | 23 | 273 | 8.0 | 17.7 | 0.00 | 0.00 | 0.00 | 52 | 1019.7 |
| 20260901125429 | 23 | 262 | 8.0 | 17.7 | 0.00 | 0.00 | 0.00 | 51 | 1019.7 |
| 20260901125329 | 23 | 202 | 8.0 | 17.7 | 0.00 | 0.00 | 0.00 | 52 | 1019.7 |
| 20260901125230 | 23 | 207 | 6.4 | 17.7 | 0.00 | 0.00 | 0.00 | 52 | 1019.8 |
| 20260901125148 | 23 | 140 | 8.0 | 16.1 | 0.00 | 0.00 | 0.00 | 50 | 1019.7 |
| 20260901125144 | 23 | 139 | 8.0 | 17.7 | 0.00 | 0.00 | 0.00 | 50 | 1019.7 |
| 20260901125140 | 23 | 236 | 8.0 | 17.7 | 0.00 | 0.00 | 0.00 | 50 | 1019.7 |
| 20260901124829 | 23 | 233 | 8.0 | 17.7 | 0.00 | 0.00 | 0.00 | 51 | 1019.8 |
| 20260901124729 | 23 | 254 | 8.0 | 17.7 | 0.00 | 0.00 | 0.00 | 53 | 1019.7 |
| 20260901124629 | 23 | 249 | 8.0 | 17.7 | 0.00 | 0.00 | 0.00 | 53 | 1019.8 |
| 20260901124529 | 23 | 227 | 9.7 | 17.7 | 0.00 | 0.00 | 0.00 | 51 | 1019.7 |
| 20260901124429 | 23 | 235 | 9.7 | 17.7 | 0.00 | 0.00 | 0.00 | 52 | 1019.8 |
| 20260901124329 | 23 | 259 | 9.7 | 17.7 | 0.00 | 0.00 | 0.00 | 51 | 1019.7 |
| 20260901124229 | 23 | 215 | 8.0 | 17.7 | 0.00 | 0.00 | 0.00 | 52 | 1019.7 |
| 20260901124148 | 23 | 212 | 8.0 | 17.7 | 0.00 | 0.00 | 0.00 | 53 | 1019.8 |
| 20260901124144 | 23 | 267 | 9.7 | 16.1 | 0.00 | 0.00 | 0.00 | 52 | 1019.7 |
| 20260901124140 | 23 | 256 | 9.7 | 16.1 | 0.00 | 0.00 | 0.00 | 52 | 1019.7 |
| 20260901123829 | 23 | 246 | 8.0 | 16.1 | 0.00 | 0.00 | 0.00 | 52 | 1019.7 |
| 20260901123729 | 22 | 291 | 8.0 | 16.1 | 0.00 | 0.00 | 0.00 | 52 | 1019.7 |
| 20260901123629 | 22 | 266 | 8.0 | 16.1 | 0.00 | 0.00 | 0.00 | 55 | 1019.7 |
| 20260901123529 | 22 | 270 | 6.4 | 16.1 | 0.00 | 0.00 | 0.00 | 54 | 1019.7 |
| 20260901123429 | 22 | 249 | 8.0 | 16.1 | 0.00 | 0.00 | 0.00 | 53 | 1019.7 |
| 20260901123329 | 22 | 250 | 8.0 | 17.7 | 0.00 | 0.00 | 0.00 | 53 | 1019.7 |
| 20260901123229 | 22 | 263 | 8.0 | 17.7 | 0.00 | 0.00 | 0.00 | 54 | 1019.8 |
| 20260901123129 | 22 | 240 | 8.0 | 17.7 | 0.00 | 0.00 | 0.00 | 54 | 1019.7 |
| 20260901123029 | 22 | 292 | 8.0 | 17.7 | 0.00 | 0.00 | 0.00 | 54 | 1019.7 |
| 20260901122929 | 22 | 265 | 8.0 | 17.7 | 0.00 | 0.00 | 0.00 | 53 | 1019.7 |
| 20260901122830 | 22 | 296 | 8.0 | 17.7 | 0.00 | 0.00 | 0.00 | 53 | 1019.8 |
| 20260901122729 | 22 | 197 | 8.0 | 17.7 | 0.00 | 0.00 | 0.00 | 54 | 1019.8 |
| 20260901122629 | 22 | 257 | 8.0 | 17.7 | 0.00 | 0.00 | 0.00 | 53 | 1019.8 |
| 20260901122529 | 22 | 259 | 8.0 | 17.7 | 0.00 | 0.00 | 0.00 | 55 | 1019.8 |
| 20260901122429 | 22 | 220 | 8.0 | 17.7 | 0.00 | 0.00 | 0.00 | 56 | 1019.8 |
| 20260901122329 | 22 | 232 | 8.0 | 16.1 | 0.00 | 0.00 | 0.00 | 56 | 1019.8 |
| 20260901122229 | 22 | 222 | 8.0 | 16.1 | 0.00 | 0.00 | 0.00 | 55 | 1019.9 |
| 20260901122148 | 22 | 257 | 8.0 | 14.5 | 0.00 | 0.00 | 0.00 | 56 | 1019.8 |
| 20260901122144 | 22 | 265 | 8.0 | 14.5 | 0.00 | 0.00 | 0.00 | 56 | 1019.8 |
| 20260901122140 | 22 | 248 | 8.0 | 14.5 | 0.00 | 0.00 | 0.00 | 56 | 1019.8 |
| 20260901121829 | 22 | 250 | 8.0 | 14.5 | 0.00 | 0.00 | 0.00 | 56 | 1019.9 |
| 20260901121729 | 22 | 229 | 8.0 | 12.9 | 0.00 | 0.00 | 0.00 | 56 | 1019.8 |
| 20260901121629 | 22 | 239 | 8.0 | 12.9 | 0.00 | 0.00 | 0.00 | 56 | 1019.8 |
| 20260901121530 | 22 | 254 | 8.0 | 12.9 | 0.00 | 0.00 | 0.00 | 56 | 1019.9 |
| 20260901121429 | 22 | 233 | 8.0 | 16.1 | 0.00 | 0.00 | 0.00 | 55 | 1019.8 |
| 20260901121330 | 22 | 230 | 8.0 | 16.1 | 0.00 | 0.00 | 0.00 | 55 | 1019.9 |
| 20260901121229 | 22 | 238 | 8.0 | 16.1 | 0.00 | 0.00 | 0.00 | 57 | 1019.9 |
| 20260901121129 | 22 | 244 | 9.7 | 16.1 | 0.00 | 0.00 | 0.00 | 58 | 1019.9 |
| 20260901121029 | 21 | 268 | 9.7 | 16.1 | 0.00 | 0.00 | 0.00 | 56 | 1019.9 |
| 20260901120929 | 21 | 276 | 9.7 | 16.1 | 0.00 | 0.00 | 0.00 | 57 | 1019.9 |
| 20260901120920 | 21 | 290 | 11.3 | 17.7 | 0.00 | 0.00 | 0.00 | 55 | 1019.9 |
| 20260901120912 | 21 | 227 | 9.7 | 16.1 | 0.00 | 0.00 | 0.00 | 57 | 1019.9 |
| 20260901120908 | 21 | 293 | 11.3 | 16.1 | 0.00 | 0.00 | 0.00 | 56 | 1019.9 |
| 20260901120649 | 21 | 269 | 11.3 | 16.1 | 0.00 | 0.00 | 0.00 | 55 | 1019.9 |
| 20260901120645 | 21 | 273 | 11.3 | 17.7 | 0.00 | 0.00 | 0.00 | 55 | 1019.9 |
| 20260901120641 | 21 | 290 | 11.3 | 17.7 | 0.00 | 0.00 | 0.00 | 55 | 1019.9 |
| 20260901120329 | 21 | 250 | 11.3 | 17.7 | 0.00 | 0.00 | 0.00 | 54 | 1019.9 |
| 20260901120229 | 21 | 257 | 11.3 | 17.7 | 0.00 | 0.00 | 0.00 | 54 | 1019.9 |
| 20260901120129 | 21 | 278 | 11.3 | 17.7 | 0.00 | 0.00 | 0.00 | 54 | 1019.9 |
| 20260901120030 | 21 | 267 | 11.3 | 17.7 | 0.00 | 0.00 | 0.00 | 53 | 1019.8 |
| 20260901115929 | 21 | 279 | 11.3 | 17.7 | 0.00 | 0.00 | 0.00 | 53 | 1019.9 |
| 20260901115829 | 21 | 284 | 11.3 | 17.7 | 0.00 | 0.00 | 0.00 | 53 | 1019.8 |
| 20260901115729 | 21 | 271 | 11.3 | 17.7 | 0.00 | 0.00 | 0.00 | 53 | 1019.8 |
| 20260901115629 | 22 | 286 | 11.3 | 17.7 | 0.00 | 0.00 | 0.00 | 54 | 1019.8 |
| 20260901115529 | 22 | 275 | 11.3 | 17.7 | 0.00 | 0.00 | 0.00 | 54 | 1019.9 |
| 20260901115428 | 22 | 257 | 11.3 | 19.3 | 0.00 | 0.00 | 0.00 | 54 | 1019.9 |
| 20260901115329 | 22 | 262 | 11.3 | 19.3 | 0.00 | 0.00 | 0.00 | 53 | 1019.9 |
| 20260901115228 | 22 | 231 | 11.3 | 19.3 | 0.00 | 0.00 | 0.00 | 53 | 1019.9 |
| 20260901115128 | 22 | 257 | 9.7 | 19.3 | 0.00 | 0.00 | 0.00 | 54 | 1020.0 |
| 20260901115028 | 22 | 272 | 9.7 | 19.3 | 0.00 | 0.00 | 0.00 | 55 | 1019.9 |
| 20260901114928 | 22 | 304 | 9.7 | 19.3 | 0.00 | 0.00 | 0.00 | 53 | 1019.9 |
| 20260901114916 | 22 | 203 | 8.0 | 14.5 | 0.00 | 0.00 | 0.00 | 56 | 1020.0 |
| 20260901114906 | 22 | 279 | 11.3 | 19.3 | 0.00 | 0.00 | 0.00 | 54 | 1020.0 |
| 20260901114902 | 22 | 263 | 9.7 | 19.3 | 0.00 | 0.00 | 0.00 | 54 | 1020.0 |
| 20260901114645 | 22 | 263 | 9.7 | 19.3 | 0.00 | 0.00 | 0.00 | 54 | 1020.0 |
| 20260901114641 | 22 | 244 | 9.7 | 19.3 | 0.00 | 0.00 | 0.00 | 54 | 1020.0 |
| 20260901114632 | 22 | 267 | 8.0 | 16.1 | 0.00 | 0.00 | 0.00 | 56 | 1020.0 |
| 20260901114411 | 22 | 265 | 8.0 | 16.1 | 0.00 | 0.00 | 0.00 | 55 | 1020.0 |
| 20260901114407 | 22 | 198 | 8.0 | 16.1 | 0.00 | 0.00 | 0.00 | 56 | 1020.0 |
| 20260901114148 | 22 | 259 | 8.0 | 16.1 | 0.00 | 0.00 | 0.00 | 56 | 1020.0 |
| 20260901114144 | 22 | 213 | 8.0 | 16.1 | 0.00 | 0.00 | 0.00 | 58 | 1020.0 |
| 20260901114139 | 22 | 203 | 8.0 | 14.5 | 0.00 | 0.00 | 0.00 | 56 | 1020.0 |
| 20260901113833 | 22 | 218 | 8.0 | 14.5 | 0.00 | 0.00 | 0.00 | 57 | 1020.0 |
| 20260901113729 | 22 | 227 | 8.0 | 12.9 | 0.00 | 0.00 | 0.00 | 56 | 1020.0 |
| 20260901113629 | 22 | 255 | 8.0 | 12.9 | 0.00 | 0.00 | 0.00 | 57 | 1020.0 |
| 20260901113528 | 22 | 284 | 8.0 | 12.9 | 0.00 | 0.00 | 0.00 | 57 | 1020.0 |
| 20260901113428 | 21 | 290 | 8.0 | 12.9 | 0.00 | 0.00 | 0.00 | 57 | 1020.0 |
| 20260901113331 | 21 | 5 | 6.4 | 12.9 | 0.00 | 0.00 | 0.00 | 56 | 1020.0 |
| 20260901113222 | 21 | 234 | 6.4 | 11.3 | 0.00 | 0.00 | 0.00 | 57 | 1020.1 |
| 20260901113122 | 21 | 256 | 6.4 | 11.3 | 0.00 | 0.00 | 0.00 | 57 | 1020.0 |
| 20260901113021 | 21 | 307 | 6.4 | 11.3 | 0.00 | 0.00 | 0.00 | 57 | 1020.0 |
| 20260901112929 | 21 | 296 | 6.4 | 11.3 | 0.00 | 0.00 | 0.00 | 59 | 1020.0 |
| 20260901112921 | 21 | 287 | 6.4 | 11.3 | 0.00 | 0.00 | 0.00 | 59 | 1020.0 |
| 20260901112825 | 21 | 226 | 6.4 | 11.3 | 0.00 | 0.00 | 0.00 | 57 | 1020.0 |
| 20260901112717 | 21 | 309 | 6.4 | 11.3 | 0.00 | 0.00 | 0.00 | 57 | 1020.0 |
| 20260901112617 | 21 | 253 | 6.4 | 11.3 | 0.00 | 0.00 | 0.00 | 60 | 1020.0 |
| 20260901112517 | 21 | 250 | 6.4 | 11.3 | 0.00 | 0.00 | 0.00 | 59 | 1020.0 |
| 20260901112429 | 21 | 262 | 6.4 | 12.9 | 0.00 | 0.00 | 0.00 | 60 | 1020.0 |
| 20260901112416 | 21 | 267 | 6.4 | 12.9 | 0.00 | 0.00 | 0.00 | 60 | 1020.0 |
| 20260901112315 | 21 | 236 | 6.4 | 12.9 | 0.00 | 0.00 | 0.00 | 59 | 1020.1 |
| 20260901112209 | 21 | 227 | 6.4 | 12.9 | 0.00 | 0.00 | 0.00 | 60 | 1020.1 |
| 20260901112109 | 21 | 229 | 6.4 | 12.9 | 0.00 | 0.00 | 0.00 | 58 | 1020.0 |
| 20260901112009 | 21 | 232 | 6.4 | 12.9 | 0.00 | 0.00 | 0.00 | 59 | 1020.0 |
| 20260901111928 | 21 | 232 | 6.4 | 12.9 | 0.00 | 0.00 | 0.00 | 60 | 1020.0 |
| 20260901111910 | 21 | 229 | 6.4 | 12.9 | 0.00 | 0.00 | 0.00 | 60 | 1020.0 |
| 20260901111809 | 21 | 208 | 6.4 | 12.9 | 0.00 | 0.00 | 0.00 | 59 | 1020.0 |
| 20260901111704 | 21 | 241 | 6.4 | 12.9 | 0.00 | 0.00 | 0.00 | 60 | 1020.1 |
| 20260901111642 | 21 | 225 | 4.8 | 12.9 | 0.00 | 0.00 | 0.00 | 60 | 1020.1 |
| 20260901111636 | 21 | 281 | 6.4 | 12.9 | 0.00 | 0.00 | 0.00 | 62 | 1020.1 |
| 20260901111632 | 21 | 227 | 6.4 | 11.3 | 0.00 | 0.00 | 0.00 | 62 | 1020.1 |
| 20260901111628 | 21 | 233 | 6.4 | 11.3 | 0.00 | 0.00 | 0.00 | 62 | 1020.1 |
| 20260901111412 | 21 | 240 | 6.4 | 11.3 | 0.00 | 0.00 | 0.00 | 62 | 1020.1 |
| 20260901111405 | 21 | 266 | 6.4 | 12.9 | 0.00 | 0.00 | 0.00 | 62 | 1020.0 |
| 20260901111401 | 20 | 263 | 4.8 | 12.9 | 0.00 | 0.00 | 0.00 | 62 | 1020.1 |
| 20260901111144 | 20 | 236 | 4.8 | 12.9 | 0.00 | 0.00 | 0.00 | 60 | 1020.1 |
| 20260901111140 | 20 | 218 | 4.8 | 12.9 | 0.00 | 0.00 | 0.00 | 60 | 1020.1 |
| 20260901110901 | 21 | 224 | 4.8 | 12.9 | 0.00 | 0.00 | 0.00 | 60 | 1020.0 |
| 20260901110801 | 21 | 200 | 4.8 | 12.9 | 0.00 | 0.00 | 0.00 | 61 | 1020.0 |
| 20260901110702 | 20 | 238 | 4.8 | 12.9 | 0.00 | 0.00 | 0.00 | 60 | 1020.1 |
| 20260901110601 | 20 | 239 | 4.8 | 12.9 | 0.00 | 0.00 | 0.00 | 61 | 1020.1 |
| 20260901110501 | 21 | 255 | 4.8 | 12.9 | 0.00 | 0.00 | 0.00 | 61 | 1020.2 |
| 20260901110429 | 20 | 225 | 4.8 | 12.9 | 0.00 | 0.00 | 0.00 | 61 | 1020.2 |
| 20260901110401 | 20 | 247 | 4.8 | 12.9 | 0.00 | 0.00 | 0.00 | 62 | 1020.1 |
| 20260901110300 | 20 | 257 | 4.8 | 11.3 | 0.00 | 0.00 | 0.00 | 61 | 1020.1 |
| 20260901110200 | 20 | 252 | 4.8 | 11.3 | 0.00 | 0.00 | 0.00 | 61 | 1020.1 |
| 20260901110001 | 20 | 271 | 4.8 | 11.3 | 0.00 | 0.00 | 0.00 | 60 | 1020.1 |
| 20260901105928 | 20 | 256 | 4.8 | 11.3 | 0.00 | 0.00 | 0.00 | 61 | 1020.1 |
| 20260901105901 | 20 | 257 | 4.8 | 11.3 | 0.00 | 0.00 | 0.00 | 61 | 1020.1 |
| 20260901105801 | 20 | 227 | 4.8 | 11.3 | 0.00 | 0.00 | 0.00 | 61 | 1020.1 |
| 20260901105701 | 20 | 264 | 4.8 | 11.3 | 0.00 | 0.00 | 0.00 | 61 | 1020.1 |
| 20260901105601 | 20 | 255 | 4.8 | 11.3 | 0.00 | 0.00 | 0.00 | 61 | 1020.0 |
| 20260901105501 | 20 | 242 | 4.8 | 11.3 | 0.00 | 0.00 | 0.00 | 61 | 1020.1 |
| 20260901105429 | 20 | 267 | 4.8 | 11.3 | 0.00 | 0.00 | 0.00 | 61 | 1020.1 |
| 20260901105402 | 20 | 266 | 4.8 | 11.3 | 0.00 | 0.00 | 0.00 | 61 | 1020.1 |
| 20260901105301 | 20 | 249 | 4.8 | 9.7 | 0.00 | 0.00 | 0.00 | 61 | 1020.1 |
| 20260901105201 | 20 | 254 | 4.8 | 9.7 | 0.00 | 0.00 | 0.00 | 62 | 1020.1 |
| 20260901105151 | 20 | 291 | 4.8 | 12.9 | 0.00 | 0.00 | 0.00 | 61 | 1020.1 |
| 20260901105143 | 20 | 274 | 4.8 | 11.3 | 0.00 | 0.00 | 0.00 | 61 | 1020.1 |
| 20260901105139 | 20 | 277 | 4.8 | 12.9 | 0.00 | 0.00 | 0.00 | 61 | 1020.1 |
| 20260901104901 | 20 | 309 | 4.8 | 12.9 | 0.00 | 0.00 | 0.00 | 61 | 1020.1 |
| 20260901104800 | 20 | 281 | 6.4 | 12.9 | 0.00 | 0.00 | 0.00 | 62 | 1020.1 |
| 20260901104700 | 20 | 277 | 6.4 | 12.9 | 0.00 | 0.00 | 0.00 | 62 | 1020.1 |
| 20260901104601 | 20 | 290 | 6.4 | 12.9 | 0.00 | 0.00 | 0.00 | 61 | 1020.1 |
| 20260901104501 | 20 | 259 | 6.4 | 12.9 | 0.00 | 0.00 | 0.00 | 62 | 1020.1 |
| 20260901104429 | 20 | 263 | 6.4 | 12.9 | 0.00 | 0.00 | 0.00 | 61 | 1020.1 |
| 20260901104401 | 20 | 301 | 6.4 | 12.9 | 0.00 | 0.00 | 0.00 | 61 | 1020.1 |
| 20260901104305 | 20 | 298 | 6.4 | 12.9 | 0.00 | 0.00 | 0.00 | 61 | 1020.1 |
| 20260901104201 | 20 | 279 | 6.4 | 12.9 | 0.00 | 0.00 | 0.00 | 61 | 1020.1 |
| 20260901104154 | 20 | 248 | 6.4 | 12.9 | 0.00 | 0.00 | 0.00 | 61 | 1020.1 |
| 20260901104145 | 20 | 265 | 6.4 | 12.9 | 0.00 | 0.00 | 0.00 | 61 | 1020.1 |
| 20260901104141 | 20 | 254 | 6.4 | 12.9 | 0.00 | 0.00 | 0.00 | 61 | 1020.1 |
| 20260901103902 | 20 | 292 | 6.4 | 12.9 | 0.00 | 0.00 | 0.00 | 61 | 1020.1 |
| 20260901103804 | 20 | 277 | 6.4 | 12.9 | 0.00 | 0.00 | 0.00 | 61 | 1020.0 |
| 20260901103702 | 20 | 302 | 6.4 | 12.9 | 0.00 | 0.00 | 0.00 | 60 | 1020.1 |
| 20260901103601 | 20 | 252 | 4.8 | 12.9 | 0.00 | 0.00 | 0.00 | 61 | 1020.1 |
| 20260901103501 | 20 | 292 | 4.8 | 12.9 | 0.00 | 0.00 | 0.00 | 61 | 1020.1 |
| 20260901103430 | 20 | 263 | 4.8 | 12.9 | 0.00 | 0.00 | 0.00 | 61 | 1020.1 |
| 20260901103401 | 20 | 279 | 4.8 | 12.9 | 0.00 | 0.00 | 0.00 | 60 | 1020.1 |
| 20260901103301 | 20 | 282 | 4.8 | 12.9 | 0.00 | 0.00 | 0.00 | 61 | 1020.2 |
| 20260901103201 | 20 | 290 | 4.8 | 12.9 | 0.00 | 0.00 | 0.00 | 61 | 1020.1 |
| 20260901103101 | 20 | 284 | 4.8 | 12.9 | 0.00 | 0.00 | 0.00 | 62 | 1020.2 |
| 20260901103001 | 20 | 270 | 4.8 | 12.9 | 0.00 | 0.00 | 0.00 | 62 | 1020.1 |
| 20260901102929 | 20 | 301 | 4.8 | 8.0 | 0.00 | 0.00 | 0.00 | 62 | 1020.1 |
| 20260901102901 | 20 | 292 | 4.8 | 9.7 | 0.00 | 0.00 | 0.00 | 62 | 1020.1 |
| 20260901102800 | 20 | 302 | 4.8 | 11.3 | 0.00 | 0.00 | 0.00 | 61 | 1020.2 |
| 20260901102701 | 20 | 302 | 4.8 | 11.3 | 0.00 | 0.00 | 0.00 | 62 | 1020.2 |
| 20260901102601 | 20 | 303 | 4.8 | 11.3 | 0.00 | 0.00 | 0.00 | 61 | 1020.2 |
| 20260901102500 | 20 | 304 | 4.8 | 11.3 | 0.00 | 0.00 | 0.00 | 62 | 1020.2 |
| 20260901102429 | 20 | 303 | 4.8 | 11.3 | 0.00 | 0.00 | 0.00 | 61 | 1020.2 |
| 20260901102400 | 20 | 327 | 4.8 | 11.3 | 0.00 | 0.00 | 0.00 | 60 | 1020.2 |
| 20260901102300 | 20 | 328 | 4.8 | 11.3 | 0.00 | 0.00 | 0.00 | 61 | 1020.2 |
| 20260901102200 | 20 | 327 | 4.8 | 11.3 | 0.00 | 0.00 | 0.00 | 61 | 1020.2 |
| 20260901102100 | 20 | 286 | 4.8 | 11.3 | 0.00 | 0.00 | 0.00 | 61 | 1020.2 |
| 20260901102000 | 20 | 281 | 4.8 | 11.3 | 0.00 | 0.00 | 0.00 | 61 | 1020.3 |
| 20260901101928 | 20 | 281 | 4.8 | 11.3 | 0.00 | 0.00 | 0.00 | 61 | 1020.3 |
| 20260901101901 | 20 | 282 | 4.8 | 11.3 | 0.00 | 0.00 | 0.00 | 61 | 1020.3 |
| 20260901101800 | 20 | 301 | 4.8 | 11.3 | 0.00 | 0.00 | 0.00 | 61 | 1020.2 |
| 20260901101701 | 20 | 306 | 4.8 | 11.3 | 0.00 | 0.00 | 0.00 | 61 | 1020.2 |
| 20260901101601 | 20 | 325 | 4.8 | 9.7 | 0.00 | 0.00 | 0.00 | 60 | 1020.2 |
| 20260901101502 | 20 | 304 | 4.8 | 9.7 | 0.00 | 0.00 | 0.00 | 61 | 1020.2 |
| 20260901101429 | 20 | 303 | 4.8 | 9.7 | 0.00 | 0.00 | 0.00 | 61 | 1020.2 |
| 20260901101401 | 20 | 309 | 4.8 | 9.7 | 0.00 | 0.00 | 0.00 | 61 | 1020.3 |
| 20260901101301 | 20 | 296 | 4.8 | 9.7 | 0.00 | 0.00 | 0.00 | 63 | 1020.3 |
| 20260901101201 | 20 | 309 | 4.8 | 9.7 | 0.00 | 0.00 | 0.00 | 62 | 1020.3 |
| 20260901101101 | 20 | 305 | 4.8 | 9.7 | 0.00 | 0.00 | 0.00 | 62 | 1020.3 |
| 20260901101001 | 20 | 263 | 4.8 | 11.3 | 0.00 | 0.00 | 0.00 | 61 | 1020.3 |
| 20260901100929 | 20 | 267 | 4.8 | 11.3 | 0.00 | 0.00 | 0.00 | 62 | 1020.3 |
| 20260901100901 | 20 | 298 | 6.4 | 11.3 | 0.00 | 0.00 | 0.00 | 62 | 1020.3 |
| 20260901100801 | 20 | 296 | 6.4 | 11.3 | 0.00 | 0.00 | 0.00 | 62 | 1020.3 |
| 20260901100701 | 20 | 306 | 6.4 | 11.3 | 0.00 | 0.00 | 0.00 | 62 | 1020.3 |
| 20260901100601 | 20 | 298 | 6.4 | 12.9 | 0.00 | 0.00 | 0.00 | 62 | 1020.4 |
| 20260901100501 | 20 | 309 | 6.4 | 12.9 | 0.00 | 0.00 | 0.00 | 62 | 1020.3 |
| 20260901100429 | 20 | 342 | 6.4 | 12.9 | 0.00 | 0.00 | 0.00 | 62 | 1020.3 |
| 20260901100401 | 20 | 319 | 6.4 | 12.9 | 0.00 | 0.00 | 0.00 | 62 | 1020.4 |
| 20260901100301 | 20 | 302 | 8.0 | 12.9 | 0.00 | 0.00 | 0.00 | 61 | 1020.3 |
| 20260901100201 | 21 | 347 | 8.0 | 12.9 | 0.00 | 0.00 | 0.00 | 62 | 1020.3 |
| 20260901100001 | 21 | 310 | 8.0 | 17.7 | 0.00 | 0.00 | 0.00 | 62 | 1020.4 |
| 20260901095928 | 21 | 300 | 8.0 | 17.7 | 0.00 | 0.00 | 0.00 | 62 | 1020.4 |
| 20260901095901 | 20 | 295 | 8.0 | 17.7 | 0.00 | 0.00 | 0.00 | 61 | 1020.3 |
| 20260901095801 | 21 | 329 | 8.0 | 17.7 | 0.00 | 0.00 | 0.00 | 61 | 1020.4 |
| 20260901095701 | 20 | 331 | 6.4 | 17.7 | 0.00 | 0.00 | 0.00 | 61 | 1020.3 |
| 20260901095601 | 20 | 319 | 6.4 | 17.7 | 0.00 | 0.00 | 0.00 | 61 | 1020.4 |
| 20260901095501 | 20 | 338 | 6.4 | 17.7 | 0.00 | 0.00 | 0.00 | 62 | 1020.4 |
| 20260901095428 | 20 | 345 | 6.4 | 17.7 | 0.00 | 0.00 | 0.00 | 62 | 1020.4 |
| 20260901095401 | 20 | 321 | 6.4 | 17.7 | 0.00 | 0.00 | 0.00 | 62 | 1020.3 |
| 20260901095301 | 20 | 318 | 6.4 | 17.7 | 0.00 | 0.00 | 0.00 | 62 | 1020.3 |
| 20260901095200 | 20 | 326 | 6.4 | 17.7 | 0.00 | 0.00 | 0.00 | 62 | 1020.3 |
| 20260901095100 | 20 | 299 | 4.8 | 12.9 | 0.00 | 0.00 | 0.00 | 63 | 1020.3 |
| 20260901095000 | 20 | 311 | 4.8 | 12.9 | 0.00 | 0.00 | 0.00 | 62 | 1020.4 |
| 20260901094928 | 20 | 296 | 4.8 | 12.9 | 0.00 | 0.00 | 0.00 | 62 | 1020.4 |
| 20260901094900 | 20 | 305 | 4.8 | 12.9 | 0.00 | 0.00 | 0.00 | 62 | 1020.3 |
| 20260901094800 | 20 | 302 | 6.4 | 12.9 | 0.00 | 0.00 | 0.00 | 62 | 1020.3 |
| 20260901094701 | 20 | 338 | 6.4 | 12.9 | 0.00 | 0.00 | 0.00 | 62 | 1020.3 |
| 20260901094648 | 20 | 289 | 6.4 | 16.1 | 0.00 | 0.00 | 0.00 | 62 | 1020.3 |
| 20260901094644 | 20 | 342 | 6.4 | 12.9 | 0.00 | 0.00 | 0.00 | 62 | 1020.3 |
| 20260901094640 | 20 | 314 | 6.4 | 12.9 | 0.00 | 0.00 | 0.00 | 61 | 1020.3 |
| 20260901094402 | 20 | 306 | 6.4 | 16.1 | 0.00 | 0.00 | 0.00 | 62 | 1020.3 |
| 20260901094301 | 20 | 311 | 6.4 | 16.1 | 0.00 | 0.00 | 0.00 | 63 | 1020.4 |
| 20260901094201 | 20 | 318 | 6.4 | 16.1 | 0.00 | 0.00 | 0.00 | 62 | 1020.3 |
| 20260901094101 | 20 | 292 | 6.4 | 16.1 | 0.00 | 0.00 | 0.00 | 62 | 1020.4 |
| 20260901094001 | 20 | 336 | 6.4 | 16.1 | 0.00 | 0.00 | 0.00 | 62 | 1020.3 |
| 20260901093929 | 20 | 340 | 6.4 | 16.1 | 0.00 | 0.00 | 0.00 | 62 | 1020.3 |
| 20260901093901 | 20 | 340 | 6.4 | 16.1 | 0.00 | 0.00 | 0.00 | 62 | 1020.4 |
| 20260901093801 | 20 | 344 | 6.4 | 16.1 | 0.00 | 0.00 | 0.00 | 63 | 1020.4 |
| 20260901093701 | 20 | 348 | 6.4 | 16.1 | 0.00 | 0.00 | 0.00 | 64 | 1020.4 |
| 20260901093649 | 20 | 287 | 4.8 | 11.3 | 0.00 | 0.00 | 0.00 | 62 | 1020.4 |
| 20260901093644 | 20 | 321 | 6.4 | 16.1 | 0.00 | 0.00 | 0.00 | 63 | 1020.4 |
| 20260901093640 | 20 | 292 | 4.8 | 16.1 | 0.00 | 0.00 | 0.00 | 63 | 1020.4 |
| 20260901093401 | 20 | 313 | 4.8 | 11.3 | 0.00 | 0.00 | 0.00 | 62 | 1020.4 |
| 20260901093301 | 20 | 250 | 4.8 | 11.3 | 0.00 | 0.00 | 0.00 | 62 | 1020.4 |
| 20260901093201 | 20 | 234 | 3.2 | 11.3 | 0.00 | 0.00 | 0.00 | 64 | 1020.5 |
| 20260901093101 | 20 | 244 | 3.2 | 11.3 | 0.00 | 0.00 | 0.00 | 63 | 1020.4 |
| 20260901093001 | 20 | 263 | 3.2 | 9.7 | 0.00 | 0.00 | 0.00 | 63 | 1020.5 |
| 20260901092928 | 20 | 263 | 3.2 | 9.7 | 0.00 | 0.00 | 0.00 | 63 | 1020.5 |
| 20260901092901 | 20 | 273 | 3.2 | 9.7 | 0.00 | 0.00 | 0.00 | 63 | 1020.5 |
| 20260901092801 | 20 | 302 | 3.2 | 8.0 | 0.00 | 0.00 | 0.00 | 63 | 1020.5 |
| 20260901092701 | 20 | 223 | 3.2 | 8.0 | 0.00 | 0.00 | 0.00 | 63 | 1020.4 |
| 20260901092601 | 20 | 222 | 3.2 | 8.0 | 0.00 | 0.00 | 0.00 | 62 | 1020.4 |
| 20260901092501 | 20 | 222 | 3.2 | 8.0 | 0.00 | 0.00 | 0.00 | 62 | 1020.5 |
| 20260901092429 | 20 | 222 | 3.2 | 9.7 | 0.00 | 0.00 | 0.00 | 62 | 1020.5 |
| 20260901092400 | 20 | 222 | 3.2 | 9.7 | 0.00 | 0.00 | 0.00 | 63 | 1020.4 |
| 20260901092300 | 20 | 222 | 3.2 | 9.7 | 0.00 | 0.00 | 0.00 | 64 | 1020.5 |
| 20260901092200 | 20 | 267 | 3.2 | 9.7 | 0.00 | 0.00 | 0.00 | 64 | 1020.5 |
| 20260901092100 | 20 | 278 | 4.8 | 11.3 | 0.00 | 0.00 | 0.00 | 62 | 1020.4 |
| 20260901092000 | 20 | 271 | 4.8 | 12.9 | 0.00 | 0.00 | 0.00 | 62 | 1020.5 |
| 20260901091928 | 20 | 271 | 4.8 | 12.9 | 0.00 | 0.00 | 0.00 | 62 | 1020.5 |
| 20260901091901 | 20 | 271 | 4.8 | 12.9 | 0.00 | 0.00 | 0.00 | 63 | 1020.5 |
| 20260901091801 | 20 | 271 | 4.8 | 14.5 | 0.00 | 0.00 | 0.00 | 63 | 1020.5 |
| 20260901091701 | 20 | 271 | 4.8 | 14.5 | 0.00 | 0.00 | 0.00 | 62 | 1020.5 |
| 20260901091648 | 19 | 289 | 4.8 | 14.5 | 0.00 | 0.00 | 0.00 | 63 | 1020.5 |
| 20260901091644 | 19 | 271 | 4.8 | 14.5 | 0.00 | 0.00 | 0.00 | 64 | 1020.5 |
| 20260901091640 | 19 | 271 | 4.8 | 14.5 | 0.00 | 0.00 | 0.00 | 63 | 1020.5 |
| 20260901091401 | 19 | 265 | 4.8 | 14.5 | 0.00 | 0.00 | 0.00 | 64 | 1020.5 |
| 20260901091257 | 19 | 265 | 4.8 | 14.5 | 0.00 | 0.00 | 0.00 | 64 | 1020.4 |
| 20260901091157 | 19 | 269 | 4.8 | 14.5 | 0.00 | 0.00 | 0.00 | 64 | 1020.4 |
| 20260901091057 | 19 | 283 | 4.8 | 14.5 | 0.00 | 0.00 | 0.00 | 65 | 1020.4 |
| 20260901090957 | 19 | 250 | 3.2 | 14.5 | 0.00 | 0.00 | 0.00 | 64 | 1020.5 |
| 20260901090929 | 19 | 269 | 3.2 | 14.5 | 0.00 | 0.00 | 0.00 | 65 | 1020.5 |
| 20260901090857 | 19 | 279 | 3.2 | 14.5 | 0.00 | 0.00 | 0.00 | 65 | 1020.5 |
| 20260901090755 | 19 | 253 | 3.2 | 8.0 | 0.00 | 0.00 | 0.00 | 64 | 1020.5 |
| 20260901090655 | 19 | 300 | 3.2 | 8.0 | 0.00 | 0.00 | 0.00 | 64 | 1020.5 |
| 20260901090553 | 19 | 302 | 3.2 | 8.0 | 0.00 | 0.00 | 0.00 | 64 | 1020.4 |
| 20260901090453 | 19 | 331 | 3.2 | 8.0 | 0.00 | 0.00 | 0.00 | 65 | 1020.4 |
| 20260901090429 | 19 | 331 | 3.2 | 8.0 | 0.00 | 0.00 | 0.00 | 64 | 1020.4 |
| 20260901090350 | 19 | 332 | 3.2 | 8.0 | 0.00 | 0.00 | 0.00 | 64 | 1020.4 |
| 20260901090245 | 19 | 331 | 3.2 | 8.0 | 0.00 | 0.00 | 0.00 | 64 | 1020.4 |
| 20260901090145 | 19 | 332 | 3.2 | 8.0 | 0.00 | 0.00 | 0.00 | 65 | 1020.5 |
| 20260901090045 | 19 | 304 | 3.2 | 8.0 | 0.00 | 0.00 | 0.00 | 65 | 1020.5 |
| 20260901085945 | 19 | 261 | 3.2 | 8.0 | 0.00 | 0.00 | 0.00 | 65 | 1020.5 |
| 20260901085929 | 19 | 261 | 3.2 | 9.7 | 0.00 | 0.00 | 0.00 | 64 | 1020.5 |
| 20260901085845 | 19 | 259 | 3.2 | 9.7 | 0.00 | 0.00 | 0.00 | 64 | 1020.5 |
| 20260901085740 | 19 | 255 | 3.2 | 9.7 | 0.00 | 0.00 | 0.00 | 64 | 1020.4 |
| 20260901085639 | 19 | 255 | 3.2 | 9.7 | 0.00 | 0.00 | 0.00 | 63 | 1020.4 |
| 20260901085539 | 19 | 255 | 3.2 | 9.7 | 0.00 | 0.00 | 0.00 | 63 | 1020.4 |
| 20260901085428 | 19 | 254 | 3.2 | 9.7 | 0.00 | 0.00 | 0.00 | 63 | 1020.4 |
| 20260901085338 | 19 | 255 | 4.8 | 9.7 | 0.00 | 0.00 | 0.00 | 64 | 1020.4 |
| 20260901085233 | 19 | 255 | 4.8 | 9.7 | 0.00 | 0.00 | 0.00 | 65 | 1020.4 |
| 20260901085133 | 19 | 222 | 4.8 | 9.7 | 0.00 | 0.00 | 0.00 | 66 | 1020.5 |
| 20260901085033 | 19 | 289 | 4.8 | 9.7 | 0.00 | 0.00 | 0.00 | 66 | 1020.4 |
| 20260901084932 | 19 | 269 | 4.8 | 9.7 | 0.00 | 0.00 | 0.00 | 66 | 1020.4 |
| 20260901084928 | 19 | 268 | 4.8 | 9.7 | 0.00 | 0.00 | 0.00 | 66 | 1020.4 |
| 20260901084829 | 19 | 285 | 4.8 | 9.7 | 0.00 | 0.00 | 0.00 | 67 | 1020.5 |
| 20260901084729 | 19 | 330 | 4.8 | 9.7 | 0.00 | 0.00 | 0.00 | 66 | 1020.5 |
| 20260901084629 | 19 | 330 | 4.8 | 9.7 | 0.00 | 0.00 | 0.00 | 66 | 1020.5 |
| 20260901084529 | 19 | 292 | 3.2 | 9.7 | 0.00 | 0.00 | 0.00 | 66 | 1020.5 |
| 20260901084429 | 19 | 298 | 4.8 | 9.7 | 0.00 | 0.00 | 0.00 | 66 | 1020.5 |
| 20260901084329 | 19 | 327 | 3.2 | 9.7 | 0.00 | 0.00 | 0.00 | 66 | 1020.4 |
| 20260901084229 | 18 | 355 | 3.2 | 9.7 | 0.00 | 0.00 | 0.00 | 68 | 1020.5 |
| 20260901084129 | 18 | 5 | 3.2 | 9.7 | 0.00 | 0.00 | 0.00 | 66 | 1020.5 |
| 20260901084028 | 18 | 301 | 3.2 | 9.7 | 0.00 | 0.00 | 0.00 | 66 | 1020.4 |
| 20260901083929 | 18 | 301 | 3.2 | 9.7 | 0.00 | 0.00 | 0.00 | 66 | 1020.5 |
| 20260901083829 | 18 | 301 | 3.2 | 9.7 | 0.00 | 0.00 | 0.00 | 67 | 1020.4 |
| 20260901083729 | 18 | 301 | 3.2 | 9.7 | 0.00 | 0.00 | 0.00 | 66 | 1020.5 |
| 20260901083629 | 18 | 304 | 4.8 | 11.3 | 0.00 | 0.00 | 0.00 | 66 | 1020.5 |
| 20260901083529 | 18 | 300 | 4.8 | 11.3 | 0.00 | 0.00 | 0.00 | 65 | 1020.5 |
| 20260901083429 | 18 | 283 | 4.8 | 11.3 | 0.00 | 0.00 | 0.00 | 65 | 1020.5 |
| 20260901083329 | 18 | 283 | 4.8 | 11.3 | 0.00 | 0.00 | 0.00 | 64 | 1020.5 |
| 20260901083229 | 18 | 283 | 4.8 | 11.3 | 0.00 | 0.00 | 0.00 | 65 | 1020.5 |
| 20260901083128 | 18 | 294 | 4.8 | 11.3 | 0.00 | 0.00 | 0.00 | 64 | 1020.5 |
| 20260901083028 | 18 | 294 | 6.4 | 11.3 | 0.00 | 0.00 | 0.00 | 65 | 1020.4 |
| 20260901082929 | 18 | 294 | 6.4 | 11.3 | 0.00 | 0.00 | 0.00 | 65 | 1020.5 |
| 20260901082829 | 18 | 293 | 6.4 | 11.3 | 0.00 | 0.00 | 0.00 | 64 | 1020.5 |
| 20260901082729 | 18 | 197 | 6.4 | 11.3 | 0.00 | 0.00 | 0.00 | 66 | 1020.5 |
| 20260901082647 | 18 | 213 | 6.4 | 11.3 | 0.00 | 0.00 | 0.00 | 67 | 1020.5 |
| 20260901082643 | 18 | 230 | 6.4 | 11.3 | 0.00 | 0.00 | 0.00 | 66 | 1020.4 |
| 20260901082639 | 18 | 269 | 4.8 | 11.3 | 0.00 | 0.00 | 0.00 | 67 | 1020.4 |
| 20260901082328 | 18 | 270 | 4.8 | 11.3 | 0.00 | 0.00 | 0.00 | 67 | 1020.4 |
| 20260901082228 | 18 | 275 | 4.8 | 11.3 | 0.00 | 0.00 | 0.00 | 66 | 1020.4 |
| 20260901082129 | 18 | 308 | 4.8 | 11.3 | 0.00 | 0.00 | 0.00 | 67 | 1020.4 |
| 20260901082028 | 18 | 295 | 4.8 | 11.3 | 0.00 | 0.00 | 0.00 | 69 | 1020.4 |
| 20260901081929 | 18 | 250 | 4.8 | 11.3 | 0.00 | 0.00 | 0.00 | 68 | 1020.4 |
| 20260901081829 | 18 | 263 | 4.8 | 9.7 | 0.00 | 0.00 | 0.00 | 68 | 1020.4 |
| 20260901081729 | 18 | 262 | 4.8 | 9.7 | 0.00 | 0.00 | 0.00 | 68 | 1020.4 |
| 20260901081638 | 18 | 259 | 4.8 | 9.7 | 0.00 | 0.00 | 0.00 | 68 | 1020.4 |
| 20260901081529 | 18 | 294 | 4.8 | 9.7 | 0.00 | 0.00 | 0.00 | 68 | 1020.4 |
| 20260901081430 | 18 | 276 | 4.8 | 9.7 | 0.00 | 0.00 | 0.00 | 68 | 1020.4 |
| 20260901081329 | 18 | 246 | 4.8 | 9.7 | 0.00 | 0.00 | 0.00 | 68 | 1020.4 |
| 20260901081229 | 18 | 259 | 4.8 | 9.7 | 0.00 | 0.00 | 0.00 | 69 | 1020.4 |
| 20260901081129 | 18 | 261 | 4.8 | 9.7 | 0.00 | 0.00 | 0.00 | 69 | 1020.4 |
| 20260901081028 | 18 | 259 | 4.8 | 11.3 | 0.00 | 0.00 | 0.00 | 69 | 1020.4 |
| 20260901080930 | 18 | 204 | 4.8 | 11.3 | 0.00 | 0.00 | 0.00 | 69 | 1020.4 |
| 20260901080926 | 18 | 205 | 4.8 | 11.3 | 0.00 | 0.00 | 0.00 | 69 | 1020.4 |
| 20260901080821 | 18 | 262 | 4.8 | 11.3 | 0.00 | 0.00 | 0.00 | 69 | 1020.4 |
| 20260901080721 | 18 | 257 | 4.8 | 11.3 | 0.00 | 0.00 | 0.00 | 69 | 1020.4 |
| 20260901080620 | 18 | 277 | 4.8 | 11.3 | 0.00 | 0.00 | 0.00 | 70 | 1020.4 |
| 20260901080521 | 18 | 298 | 4.8 | 11.3 | 0.00 | 0.00 | 0.00 | 69 | 1020.4 |
| 20260901080421 | 18 | 238 | 4.8 | 11.3 | 0.00 | 0.00 | 0.00 | 69 | 1020.4 |
| 20260901080315 | 18 | 238 | 4.8 | 11.3 | 0.00 | 0.00 | 0.00 | 70 | 1020.4 |
| 20260901080215 | 17 | 242 | 3.2 | 11.3 | 0.00 | 0.00 | 0.00 | 70 | 1020.3 |
| 20260901080155 | 17 | 274 | 3.2 | 11.3 | 0.00 | 0.00 | 0.00 | 70 | 1020.3 |
| 20260901080144 | 17 | 255 | 3.2 | 11.3 | 0.00 | 0.00 | 0.00 | 70 | 1020.3 |
| 20260901080140 | 17 | 232 | 3.2 | 11.3 | 0.00 | 0.00 | 0.00 | 70 | 1020.3 |
| 20260901075918 | 17 | 275 | 3.2 | 11.3 | 0.00 | 0.00 | 0.00 | 70 | 1020.3 |
| 20260901075810 | 17 | 279 | 3.2 | 11.3 | 0.00 | 0.00 | 0.00 | 71 | 1020.3 |
| 20260901075710 | 17 | 251 | 3.2 | 8.0 | 0.00 | 0.00 | 0.00 | 71 | 1020.3 |
| 20260901075612 | 17 | 217 | 3.2 | 8.0 | 0.00 | 0.00 | 0.00 | 70 | 1020.2 |
| 20260901075510 | 17 | 298 | 3.2 | 8.0 | 0.00 | 0.00 | 0.00 | 71 | 1020.3 |
| 20260901075428 | 17 | 308 | 3.2 | 8.0 | 0.00 | 0.00 | 0.00 | 71 | 1020.3 |
| 20260901075408 | 17 | 286 | 3.2 | 8.0 | 0.00 | 0.00 | 0.00 | 71 | 1020.3 |
| 20260901075307 | 17 | 281 | 4.8 | 8.0 | 0.00 | 0.00 | 0.00 | 71 | 1020.3 |
| 20260901075203 | 17 | 282 | 4.8 | 8.0 | 0.00 | 0.00 | 0.00 | 72 | 1020.3 |
| 20260901075103 | 17 | 286 | 4.8 | 8.0 | 0.00 | 0.00 | 0.00 | 72 | 1020.3 |
| 20260901075001 | 17 | 287 | 4.8 | 8.0 | 0.00 | 0.00 | 0.00 | 72 | 1020.3 |
| 20260901074928 | 17 | 287 | 4.8 | 8.0 | 0.00 | 0.00 | 0.00 | 72 | 1020.3 |
| 20260901074902 | 17 | 234 | 3.2 | 8.0 | 0.00 | 0.00 | 0.00 | 71 | 1020.3 |
| 20260901074802 | 17 | 234 | 3.2 | 8.0 | 0.00 | 0.00 | 0.00 | 72 | 1020.3 |
| 20260901074701 | 17 | 274 | 3.2 | 8.0 | 0.00 | 0.00 | 0.00 | 72 | 1020.3 |
| 20260901074601 | 17 | 284 | 4.8 | 9.7 | 0.00 | 0.00 | 0.00 | 72 | 1020.3 |
| 20260901074502 | 17 | 293 | 4.8 | 11.3 | 0.00 | 0.00 | 0.00 | 72 | 1020.3 |
| 20260901074400 | 17 | 294 | 4.8 | 11.3 | 0.00 | 0.00 | 0.00 | 72 | 1020.3 |
| 20260901074301 | 17 | 292 | 4.8 | 11.3 | 0.00 | 0.00 | 0.00 | 72 | 1020.2 |
| 20260901074201 | 17 | 284 | 4.8 | 11.3 | 0.00 | 0.00 | 0.00 | 72 | 1020.3 |
| 20260901074100 | 17 | 283 | 4.8 | 11.3 | 0.00 | 0.00 | 0.00 | 72 | 1020.2 |
| 20260901074001 | 17 | 284 | 4.8 | 11.3 | 0.00 | 0.00 | 0.00 | 72 | 1020.2 |
| 20260901073928 | 17 | 283 | 4.8 | 11.3 | 0.00 | 0.00 | 0.00 | 72 | 1020.2 |
| 20260901073901 | 17 | 317 | 4.8 | 11.3 | 0.00 | 0.00 | 0.00 | 72 | 1020.3 |
| 20260901073801 | 17 | 299 | 4.8 | 11.3 | 0.00 | 0.00 | 0.00 | 73 | 1020.3 |
| 20260901073701 | 17 | 290 | 4.8 | 11.3 | 0.00 | 0.00 | 0.00 | 72 | 1020.3 |
| 20260901073601 | 17 | 280 | 4.8 | 11.3 | 0.00 | 0.00 | 0.00 | 72 | 1020.3 |
| 20260901073501 | 17 | 262 | 4.8 | 11.3 | 0.00 | 0.00 | 0.00 | 72 | 1020.3 |
| 20260901073429 | 17 | 243 | 4.8 | 11.3 | 0.00 | 0.00 | 0.00 | 73 | 1020.3 |
| 20260901073400 | 17 | 239 | 4.8 | 11.3 | 0.00 | 0.00 | 0.00 | 73 | 1020.2 |
| 20260901073300 | 16 | 228 | 4.8 | 11.3 | 0.00 | 0.00 | 0.00 | 73 | 1020.3 |
| 20260901073201 | 16 | 240 | 4.8 | 11.3 | 0.00 | 0.00 | 0.00 | 73 | 1020.3 |
| 20260901073056 | 16 | 269 | 4.8 | 11.3 | 0.00 | 0.00 | 0.00 | 73 | 1020.2 |
| 20260901072928 | 16 | 269 | 4.8 | 11.3 | 0.00 | 0.00 | 0.00 | 73 | 1020.2 |
| 20260901072857 | 16 | 267 | 4.8 | 11.3 | 0.00 | 0.00 | 0.00 | 73 | 1020.3 |
| 20260901072757 | 16 | 317 | 4.8 | 11.3 | 0.00 | 0.00 | 0.00 | 73 | 1020.2 |
| 20260901072657 | 16 | 248 | 4.8 | 9.7 | 0.00 | 0.00 | 0.00 | 73 | 1020.3 |
| 20260901072551 | 16 | 250 | 4.8 | 9.7 | 0.00 | 0.00 | 0.00 | 74 | 1020.2 |
| 20260901072451 | 16 | 257 | 4.8 | 9.7 | 0.00 | 0.00 | 0.00 | 74 | 1020.2 |
| 20260901072428 | 16 | 256 | 4.8 | 9.7 | 0.00 | 0.00 | 0.00 | 74 | 1020.2 |
| 20260901072350 | 16 | 284 | 4.8 | 9.7 | 0.00 | 0.00 | 0.00 | 74 | 1020.2 |
| 20260901072250 | 16 | 213 | 4.8 | 9.7 | 0.00 | 0.00 | 0.00 | 74 | 1020.2 |
| 20260901072150 | 16 | 277 | 4.8 | 9.7 | 0.00 | 0.00 | 0.00 | 75 | 1020.2 |
| 20260901072046 | 16 | 269 | 4.8 | 9.7 | 0.00 | 0.00 | 0.00 | 75 | 1020.2 |
| 20260901071929 | 16 | 292 | 4.8 | 9.7 | 0.00 | 0.00 | 0.00 | 74 | 1020.1 |
| 20260901071846 | 16 | 295 | 4.8 | 11.3 | 0.00 | 0.00 | 0.00 | 74 | 1020.2 |
| 20260901071747 | 16 | 259 | 4.8 | 11.3 | 0.00 | 0.00 | 0.00 | 75 | 1020.2 |
| 20260901071653 | 16 | 259 | 6.4 | 11.3 | 0.00 | 0.00 | 0.00 | 75 | 1020.2 |
| 20260901071645 | 16 | 276 | 6.4 | 11.3 | 0.00 | 0.00 | 0.00 | 75 | 1020.2 |
| 20260901071641 | 16 | 275 | 6.4 | 11.3 | 0.00 | 0.00 | 0.00 | 75 | 1020.1 |
| 20260901071343 | 16 | 275 | 6.4 | 11.3 | 0.00 | 0.00 | 0.00 | 75 | 1020.2 |
| 20260901071243 | 16 | 275 | 6.4 | 11.3 | 0.00 | 0.00 | 0.00 | 75 | 1020.2 |
| 20260901071143 | 16 | 268 | 6.4 | 11.3 | 0.00 | 0.00 | 0.00 | 76 | 1020.2 |
| 20260901071043 | 16 | 263 | 4.8 | 11.3 | 0.00 | 0.00 | 0.00 | 76 | 1020.1 |
| 20260901070941 | 15 | 269 | 4.8 | 11.3 | 0.00 | 0.00 | 0.00 | 76 | 1020.2 |
| 20260901070928 | 16 | 269 | 4.8 | 11.3 | 0.00 | 0.00 | 0.00 | 76 | 1020.2 |
| 20260901070840 | 15 | 262 | 4.8 | 11.3 | 0.00 | 0.00 | 0.00 | 76 | 1020.2 |
| 20260901070740 | 15 | 238 | 4.8 | 11.3 | 0.00 | 0.00 | 0.00 | 76 | 1020.2 |
| 20260901070641 | 15 | 255 | 3.2 | 8.0 | 0.00 | 0.00 | 0.00 | 77 | 1020.2 |
| 20260901070541 | 15 | 264 | 3.2 | 6.4 | 0.00 | 0.00 | 0.00 | 78 | 1020.2 |
| 20260901070440 | 15 | 293 | 3.2 | 6.4 | 0.00 | 0.00 | 0.00 | 78 | 1020.2 |
| 20260901070429 | 15 | 302 | 3.2 | 6.4 | 0.00 | 0.00 | 0.00 | 78 | 1020.2 |
| 20260901070340 | 15 | 302 | 3.2 | 6.4 | 0.00 | 0.00 | 0.00 | 78 | 1020.2 |
| 20260901070241 | 15 | 294 | 3.2 | 6.4 | 0.00 | 0.00 | 0.00 | 78 | 1020.2 |
| 20260901070141 | 15 | 290 | 1.6 | 4.8 | 0.00 | 0.00 | 0.00 | 78 | 1020.2 |
| 20260901070040 | 15 | 290 | 1.6 | 4.8 | 0.00 | 0.00 | 0.00 | 78 | 1020.2 |
| 20260901065929 | 15 | 290 | 1.6 | 4.8 | 0.00 | 0.00 | 0.00 | 79 | 1020.1 |
| 20260901065834 | 15 | 290 | 1.6 | 4.8 | 0.00 | 0.00 | 0.00 | 79 | 1020.1 |
| 20260901065734 | 15 | 290 | 1.6 | 4.8 | 0.00 | 0.00 | 0.00 | 79 | 1020.1 |
| 20260901065634 | 15 | 243 | 1.6 | 4.8 | 0.00 | 0.00 | 0.00 | 79 | 1020.2 |
| 20260901065534 | 15 | 241 | 3.2 | 4.8 | 0.00 | 0.00 | 0.00 | 79 | 1020.1 |
| 20260901065428 | 15 | 241 | 3.2 | 4.8 | 0.00 | 0.00 | 0.00 | 79 | 1020.1 |
| 20260901065335 | 15 | 241 | 3.2 | 4.8 | 0.00 | 0.00 | 0.00 | 79 | 1020.1 |
| 20260901065233 | 15 | 240 | 1.6 | 4.8 | 0.00 | 0.00 | 0.00 | 80 | 1020.1 |
| 20260901065130 | 15 | 239 | 3.2 | 4.8 | 0.00 | 0.00 | 0.00 | 80 | 1020.1 |
| 20260901065029 | 15 | 239 | 1.6 | 4.8 | 0.00 | 0.00 | 0.00 | 80 | 1020.1 |
| 20260901064929 | 15 | 239 | 1.6 | 4.8 | 0.00 | 0.00 | 0.00 | 80 | 1020.1 |
| 20260901064829 | 15 | 239 | 1.6 | 4.8 | 0.00 | 0.00 | 0.00 | 80 | 1020.1 |
| 20260901064729 | 15 | 239 | 1.6 | 4.8 | 0.00 | 0.00 | 0.00 | 80 | 1020.1 |
| 20260901064653 | 15 | 236 | 1.6 | 4.8 | 0.00 | 0.00 | 0.00 | 80 | 1020.1 |
| 20260901064645 | 15 | 213 | 1.6 | 4.8 | 0.00 | 0.00 | 0.00 | 80 | 1020.1 |
| 20260901064641 | 14 | 213 | 1.6 | 4.8 | 0.00 | 0.00 | 0.00 | 81 | 1020.1 |
| 20260901064328 | 14 | 198 | 1.6 | 4.8 | 0.00 | 0.00 | 0.00 | 81 | 1020.1 |
| 20260901064229 | 14 | 192 | 1.6 | 4.8 | 0.00 | 0.00 | 0.00 | 82 | 1020.1 |
| 20260901064129 | 14 | 180 | 1.6 | 4.8 | 0.00 | 0.00 | 0.00 | 82 | 1020.1 |
| 20260901064028 | 14 | 180 | 1.6 | 4.8 | 0.00 | 0.00 | 0.00 | 82 | 1020.1 |
| 20260901063928 | 14 | 180 | 1.6 | 4.8 | 0.00 | 0.00 | 0.00 | 82 | 1020.1 |
| 20260901063828 | 14 | 180 | 1.6 | 4.8 | 0.00 | 0.00 | 0.00 | 82 | 1020.1 |
| 20260901063726 | 14 | 180 | 1.6 | 4.8 | 0.00 | 0.00 | 0.00 | 83 | 1020.1 |
| 20260901063627 | 14 | 180 | 1.6 | 4.8 | 0.00 | 0.00 | 0.00 | 83 | 1020.1 |
| 20260901063526 | 14 | 179 | 1.6 | 6.4 | 0.00 | 0.00 | 0.00 | 83 | 1020.1 |
| 20260901063427 | 14 | 179 | 1.6 | 6.4 | 0.00 | 0.00 | 0.00 | 83 | 1020.1 |
| 20260901063325 | 13 | 179 | 1.6 | 6.4 | 0.00 | 0.00 | 0.00 | 84 | 1020.1 |
| 20260901063225 | 13 | 179 | 1.6 | 6.4 | 0.00 | 0.00 | 0.00 | 84 | 1020.1 |
| 20260901063125 | 13 | 178 | 1.6 | 6.4 | 0.00 | 0.00 | 0.00 | 84 | 1020.2 |
| 20260901063024 | 13 | 171 | 1.6 | 6.4 | 0.00 | 0.00 | 0.00 | 84 | 1020.2 |
| 20260901062924 | 13 | 171 | 1.6 | 6.4 | 0.00 | 0.00 | 0.00 | 84 | 1020.2 |
| 20260901062824 | 13 | 171 | 1.6 | 6.4 | 0.00 | 0.00 | 0.00 | 84 | 1020.2 |
| 20260901062724 | 13 | 171 | 1.6 | 6.4 | 0.00 | 0.00 | 0.00 | 84 | 1020.2 |
| 20260901062625 | 13 | 171 | 1.6 | 6.4 | 0.00 | 0.00 | 0.00 | 84 | 1020.2 |
| 20260901062525 | 13 | 165 | 1.6 | 4.8 | 0.00 | 0.00 | 0.00 | 85 | 1020.2 |
| 20260901062425 | 13 | 165 | 1.6 | 4.8 | 0.00 | 0.00 | 0.00 | 85 | 1020.1 |
| 20260901062325 | 13 | 150 | 1.6 | 4.8 | 0.00 | 0.00 | 0.00 | 85 | 1020.1 |
| 20260901062224 | 13 | 151 | 1.6 | 4.8 | 0.00 | 0.00 | 0.00 | 85 | 1020.1 |
| 20260901062124 | 13 | 151 | 0.0 | 4.8 | 0.00 | 0.00 | 0.00 | 85 | 1020.1 |
| 20260901062025 | 13 | 125 | 0.0 | 3.2 | 0.00 | 0.00 | 0.00 | 85 | 1020.2 |
| 20260901061924 | 13 | 117 | 0.0 | 3.2 | 0.00 | 0.00 | 0.00 | 85 | 1020.1 |
| 20260901061824 | 13 | 117 | 0.0 | 3.2 | 0.00 | 0.00 | 0.00 | 85 | 1020.2 |
| 20260901061720 | 13 | 117 | 0.0 | 3.2 | 0.00 | 0.00 | 0.00 | 85 | 1020.1 |
| 20260901061621 | 13 | 117 | 0.0 | 3.2 | 0.00 | 0.00 | 0.00 | 86 | 1020.2 |
| 20260901061520 | 12 | 117 | 0.0 | 3.2 | 0.00 | 0.00 | 0.00 | 86 | 1020.1 |
| 20260901061421 | 12 | 117 | 0.0 | 3.2 | 0.00 | 0.00 | 0.00 | 86 | 1020.1 |
| 20260901061321 | 12 | 117 | 0.0 | 3.2 | 0.00 | 0.00 | 0.00 | 86 | 1020.1 |
| 20260901061221 | 12 | 117 | 0.0 | 3.2 | 0.00 | 0.00 | 0.00 | 86 | 1020.1 |
| 20260901061121 | 12 | 117 | 0.0 | 3.2 | 0.00 | 0.00 | 0.00 | 86 | 1020.1 |
| 20260901061021 | 12 | 101 | 0.0 | 1.6 | 0.00 | 0.00 | 0.00 | 86 | 1020.2 |
| 20260901060929 | 12 | 101 | 0.0 | 1.6 | 0.00 | 0.00 | 0.00 | 86 | 1020.2 |
| 20260901060920 | 12 | 101 | 0.0 | 1.6 | 0.00 | 0.00 | 0.00 | 86 | 1020.1 |
| 20260901060820 | 12 | 101 | 0.0 | 1.6 | 0.00 | 0.00 | 0.00 | 87 | 1020.1 |
| 20260901060720 | 12 | 101 | 0.0 | 3.2 | 0.00 | 0.00 | 0.00 | 87 | 1020.2 |
| 20260901060620 | 12 | 101 | 0.0 | 3.2 | 0.00 | 0.00 | 0.00 | 87 | 1020.1 |
| 20260901060520 | 12 | 101 | 0.0 | 3.2 | 0.00 | 0.00 | 0.00 | 87 | 1020.1 |
| 20260901060420 | 12 | 101 | 0.0 | 3.2 | 0.00 | 0.00 | 0.00 | 87 | 1020.1 |
| 20260901060320 | 12 | 101 | 0.0 | 3.2 | 0.00 | 0.00 | 0.00 | 87 | 1020.1 |
| 20260901060221 | 12 | 101 | 0.0 | 3.2 | 0.00 | 0.00 | 0.00 | 87 | 1020.1 |
| 20260901060151 | 12 | 101 | 0.0 | 3.2 | 0.00 | 0.00 | 0.00 | 87 | 1020.1 |
| 20260901060147 | 12 | 101 | 0.0 | 3.2 | 0.00 | 0.00 | 0.00 | 87 | 1020.1 |
| 20260901060139 | 12 | 101 | 0.0 | 3.2 | 0.00 | 0.00 | 0.00 | 87 | 1020.1 |
| 20260901055920 | 12 | 101 | 0.0 | 3.2 | 0.00 | 0.00 | 0.00 | 87 | 1020.1 |
| 20260901055816 | 12 | 101 | 0.0 | 3.2 | 0.00 | 0.00 | 0.00 | 87 | 1020.1 |
| 20260901055716 | 12 | 101 | 0.0 | 3.2 | 0.00 | 0.00 | 0.00 | 87 | 1020.1 |
| 20260901055652 | 12 | 101 | 0.0 | 3.2 | 0.00 | 0.00 | 0.00 | 87 | 1020.0 |
| 20260901055648 | 12 | 101 | 0.0 | 1.6 | 0.00 | 0.00 | 0.00 | 87 | 1020.1 |
| 20260901055640 | 12 | 101 | 0.0 | 3.2 | 0.00 | 0.00 | 0.00 | 87 | 1020.0 |
| 20260901055416 | 12 | 101 | 0.0 | 3.2 | 0.00 | 0.00 | 0.00 | 87 | 1020.1 |
| 20260901055317 | 12 | 101 | 0.0 | 3.2 | 0.00 | 0.00 | 0.00 | 87 | 1020.1 |
| 20260901055217 | 12 | 101 | 0.0 | 3.2 | 0.00 | 0.00 | 0.00 | 87 | 1020.0 |
| 20260901055159 | 12 | 101 | 0.0 | 3.2 | 0.00 | 0.00 | 0.00 | 86 | 1020.1 |
| 20260901055147 | 12 | 101 | 0.0 | 3.2 | 0.00 | 0.00 | 0.00 | 86 | 1020.1 |
| 20260901055139 | 12 | 101 | 0.0 | 3.2 | 0.00 | 0.00 | 0.00 | 86 | 1020.1 |
| 20260901054917 | 12 | 101 | 0.0 | 3.2 | 0.00 | 0.00 | 0.00 | 86 | 1020.1 |
| 20260901054817 | 12 | 101 | 1.6 | 3.2 | 0.00 | 0.00 | 0.00 | 86 | 1020.1 |
| 20260901054716 | 12 | 101 | 1.6 | 3.2 | 0.00 | 0.00 | 0.00 | 87 | 1020.1 |
| 20260901054616 | 12 | 101 | 1.6 | 4.8 | 0.00 | 0.00 | 0.00 | 87 | 1020.0 |
| 20260901054516 | 12 | 101 | 0.0 | 4.8 | 0.00 | 0.00 | 0.00 | 86 | 1020.0 |
| 20260901054417 | 12 | 101 | 0.0 | 4.8 | 0.00 | 0.00 | 0.00 | 86 | 1020.0 |
| 20260901054317 | 12 | 101 | 0.0 | 4.8 | 0.00 | 0.00 | 0.00 | 87 | 1020.0 |
| 20260901054217 | 12 | 101 | 0.0 | 4.8 | 0.00 | 0.00 | 0.00 | 87 | 1020.0 |
| 20260901054117 | 12 | 101 | 0.0 | 4.8 | 0.00 | 0.00 | 0.00 | 86 | 1020.0 |
| 20260901054017 | 12 | 101 | 1.6 | 4.8 | 0.00 | 0.00 | 0.00 | 86 | 1020.0 |
| 20260901053913 | 12 | 101 | 1.6 | 4.8 | 0.00 | 0.00 | 0.00 | 86 | 1020.0 |
| 20260901053813 | 12 | 101 | 1.6 | 4.8 | 0.00 | 0.00 | 0.00 | 86 | 1020.0 |
| 20260901053712 | 12 | 101 | 1.6 | 4.8 | 0.00 | 0.00 | 0.00 | 86 | 1020.0 |
| 20260901053612 | 12 | 101 | 1.6 | 3.2 | 0.00 | 0.00 | 0.00 | 86 | 1020.1 |
| 20260901053512 | 12 | 101 | 1.6 | 3.2 | 0.00 | 0.00 | 0.00 | 86 | 1020.0 |
| 20260901053430 | 12 | 101 | 1.6 | 3.2 | 0.00 | 0.00 | 0.00 | 86 | 1020.0 |
| 20260901053412 | 12 | 100 | 1.6 | 3.2 | 0.00 | 0.00 | 0.00 | 86 | 1020.0 |
| 20260901053312 | 12 | 100 | 1.6 | 3.2 | 0.00 | 0.00 | 0.00 | 86 | 1020.0 |
| 20260901053212 | 12 | 100 | 0.0 | 3.2 | 0.00 | 0.00 | 0.00 | 86 | 1019.9 |
| 20260901053114 | 12 | 101 | 0.0 | 3.2 | 0.00 | 0.00 | 0.00 | 86 | 1020.0 |
| 20260901053012 | 12 | 100 | 0.0 | 3.2 | 0.00 | 0.00 | 0.00 | 86 | 1020.0 |
| 20260901052913 | 12 | 100 | 0.0 | 3.2 | 0.00 | 0.00 | 0.00 | 86 | 1020.0 |
| 20260901052813 | 12 | 100 | 0.0 | 3.2 | 0.00 | 0.00 | 0.00 | 86 | 1020.1 |
| 20260901052713 | 12 | 100 | 0.0 | 1.6 | 0.00 | 0.00 | 0.00 | 86 | 1020.0 |
| 20260901052612 | 12 | 100 | 0.0 | 1.6 | 0.00 | 0.00 | 0.00 | 86 | 1020.0 |
| 20260901052513 | 12 | 100 | 0.0 | 1.6 | 0.00 | 0.00 | 0.00 | 86 | 1020.1 |
| 20260901052413 | 12 | 100 | 0.0 | 1.6 | 0.00 | 0.00 | 0.00 | 86 | 1020.1 |
| 20260901052312 | 12 | 100 | 0.0 | 1.6 | 0.00 | 0.00 | 0.00 | 86 | 1020.1 |
| 20260901052212 | 12 | 100 | 0.0 | 1.6 | 0.00 | 0.00 | 0.00 | 86 | 1020.1 |
| 20260901052112 | 12 | 100 | 0.0 | 1.6 | 0.00 | 0.00 | 0.00 | 86 | 1020.1 |
| 20260901052008 | 12 | 100 | 0.0 | 3.2 | 0.00 | 0.00 | 0.00 | 86 | 1020.1 |
| 20260901051929 | 12 | 100 | 0.0 | 3.2 | 0.00 | 0.00 | 0.00 | 86 | 1020.1 |
| 20260901051908 | 12 | 100 | 1.6 | 3.2 | 0.00 | 0.00 | 0.00 | 86 | 1020.1 |
| 20260901051808 | 12 | 100 | 0.0 | 3.2 | 0.00 | 0.00 | 0.00 | 86 | 1020.1 |
| 20260901051708 | 12 | 100 | 0.0 | 3.2 | 0.00 | 0.00 | 0.00 | 86 | 1020.1 |
| 20260901051608 | 12 | 100 | 1.6 | 3.2 | 0.00 | 0.00 | 0.00 | 86 | 1020.1 |
| 20260901051508 | 12 | 100 | 1.6 | 3.2 | 0.00 | 0.00 | 0.00 | 86 | 1020.1 |
| 20260901051428 | 12 | 100 | 1.6 | 3.2 | 0.00 | 0.00 | 0.00 | 86 | 1020.1 |
| 20260901051409 | 12 | 100 | 1.6 | 3.2 | 0.00 | 0.00 | 0.00 | 86 | 1020.0 |
| 20260901051309 | 12 | 100 | 1.6 | 3.2 | 0.00 | 0.00 | 0.00 | 86 | 1020.1 |
| 20260901051208 | 12 | 100 | 1.6 | 3.2 | 0.00 | 0.00 | 0.00 | 86 | 1020.1 |
| 20260901051108 | 12 | 100 | 0.0 | 3.2 | 0.00 | 0.00 | 0.00 | 86 | 1020.0 |
| 20260901051009 | 12 | 100 | 0.0 | 3.2 | 0.00 | 0.00 | 0.00 | 86 | 1020.1 |
| 20260901050908 | 12 | 100 | 0.0 | 3.2 | 0.00 | 0.00 | 0.00 | 87 | 1020.1 |
| 20260901050808 | 12 | 100 | 0.0 | 3.2 | 0.00 | 0.00 | 0.00 | 87 | 1020.1 |
| 20260901050708 | 12 | 100 | 0.0 | 3.2 | 0.00 | 0.00 | 0.00 | 87 | 1020.1 |
| 20260901050608 | 12 | 100 | 0.0 | 3.2 | 0.00 | 0.00 | 0.00 | 87 | 1020.1 |
| 20260901050513 | 12 | 100 | 0.0 | 1.6 | 0.00 | 0.00 | 0.00 | 87 | 1020.1 |
| 20260901050408 | 12 | 100 | 0.0 | 1.6 | 0.00 | 0.00 | 0.00 | 87 | 1020.1 |
| 20260901050308 | 12 | 100 | 0.0 | 1.6 | 0.00 | 0.00 | 0.00 | 87 | 1020.1 |
| 20260901050209 | 12 | 100 | 0.0 | 1.6 | 0.00 | 0.00 | 0.00 | 87 | 1020.0 |
| 20260901050105 | 12 | 100 | 0.0 | 1.6 | 0.00 | 0.00 | 0.00 | 87 | 1020.1 |
| 20260901050004 | 12 | 100 | 0.0 | 3.2 | 0.00 | 0.00 | 0.00 | 87 | 1020.0 |
| 20260901045904 | 12 | 100 | 0.0 | 3.2 | 0.00 | 0.00 | 0.00 | 87 | 1020.0 |
| 20260901045805 | 12 | 100 | 0.0 | 3.2 | 0.00 | 0.00 | 0.00 | 87 | 1020.0 |
| 20260901045705 | 12 | 100 | 0.0 | 3.2 | 0.00 | 0.00 | 0.00 | 87 | 1020.0 |
| 20260901045605 | 12 | 100 | 0.0 | 3.2 | 0.00 | 0.00 | 0.00 | 87 | 1020.1 |
| 20260901045511 | 12 | 100 | 0.0 | 3.2 | 0.00 | 0.00 | 0.00 | 87 | 1020.1 |
| 20260901045404 | 12 | 100 | 0.0 | 3.2 | 0.00 | 0.00 | 0.00 | 87 | 1020.1 |
| 20260901045306 | 12 | 100 | 0.0 | 3.2 | 0.00 | 0.00 | 0.00 | 87 | 1020.0 |
| 20260901045201 | 12 | 100 | 0.0 | 3.2 | 0.00 | 0.00 | 0.00 | 87 | 1020.0 |
| 20260901045101 | 12 | 100 | 0.0 | 3.2 | 0.00 | 0.00 | 0.00 | 88 | 1020.0 |
| 20260901045006 | 12 | 100 | 0.0 | 3.2 | 0.00 | 0.00 | 0.00 | 87 | 1020.0 |
| 20260901044930 | 12 | 100 | 0.0 | 3.2 | 0.00 | 0.00 | 0.00 | 87 | 1020.0 |
| 20260901044901 | 12 | 100 | 0.0 | 1.6 | 0.00 | 0.00 | 0.00 | 87 | 1020.0 |
| 20260901044801 | 12 | 100 | 0.0 | 1.6 | 0.00 | 0.00 | 0.00 | 87 | 1020.0 |
| 20260901044701 | 12 | 100 | 0.0 | 1.6 | 0.00 | 0.00 | 0.00 | 87 | 1020.0 |
| 20260901044601 | 12 | 100 | 0.0 | 1.6 | 0.00 | 0.00 | 0.00 | 87 | 1020.0 |
| 20260901044506 | 12 | 100 | 0.0 | 1.6 | 0.00 | 0.00 | 0.00 | 87 | 1020.0 |
| 20260901044401 | 12 | 100 | 0.0 | 1.6 | 0.00 | 0.00 | 0.00 | 87 | 1020.0 |
| 20260901044301 | 12 | 100 | 0.0 | 1.6 | 0.00 | 0.00 | 0.00 | 86 | 1020.0 |
| 20260901044201 | 12 | 100 | 0.0 | 1.6 | 0.00 | 0.00 | 0.00 | 87 | 1020.0 |
| 20260901044101 | 12 | 100 | 0.0 | 0.0 | 0.00 | 0.00 | 0.00 | 86 | 1020.0 |
| 20260901044000 | 12 | 100 | 0.0 | 0.0 | 0.00 | 0.00 | 0.00 | 86 | 1020.0 |
| 20260901043901 | 12 | 100 | 0.0 | 0.0 | 0.00 | 0.00 | 0.00 | 86 | 1020.0 |
| 20260901043801 | 12 | 100 | 0.0 | 0.0 | 0.00 | 0.00 | 0.00 | 86 | 1020.0 |
| 20260901043700 | 12 | 100 | 0.0 | 0.0 | 0.00 | 0.00 | 0.00 | 86 | 1020.0 |
| 20260901043649 | 12 | 100 | 0.0 | 1.6 | 0.00 | 0.00 | 0.00 | 86 | 1020.0 |
| 20260901043644 | 12 | 100 | 0.0 | 0.0 | 0.00 | 0.00 | 0.00 | 86 | 1020.0 |
| 20260901043640 | 12 | 100 | 0.0 | 0.0 | 0.00 | 0.00 | 0.00 | 86 | 1020.0 |
| 20260901043401 | 12 | 100 | 0.0 | 1.6 | 0.00 | 0.00 | 0.00 | 86 | 1020.0 |
| 20260901043301 | 12 | 100 | 0.0 | 1.6 | 0.00 | 0.00 | 0.00 | 86 | 1020.0 |
| 20260901043201 | 12 | 100 | 0.0 | 1.6 | 0.00 | 0.00 | 0.00 | 86 | 1019.9 |
| 20260901043101 | 12 | 100 | 0.0 | 1.6 | 0.00 | 0.00 | 0.00 | 86 | 1019.9 |
| 20260901043001 | 12 | 100 | 0.0 | 1.6 | 0.00 | 0.00 | 0.00 | 86 | 1020.0 |
| 20260901042900 | 12 | 100 | 0.0 | 1.6 | 0.00 | 0.00 | 0.00 | 86 | 1019.9 |
| 20260901042759 | 12 | 100 | 0.0 | 1.6 | 0.00 | 0.00 | 0.00 | 86 | 1020.0 |
| 20260901042700 | 12 | 100 | 0.0 | 1.6 | 0.00 | 0.00 | 0.00 | 86 | 1020.0 |
| 20260901042558 | 12 | 100 | 0.0 | 1.6 | 0.00 | 0.00 | 0.00 | 86 | 1020.0 |
| 20260901042458 | 12 | 100 | 0.0 | 1.6 | 0.00 | 0.00 | 0.00 | 86 | 1020.0 |
| 20260901042423 | 12 | 100 | 0.0 | 1.6 | 0.00 | 0.00 | 0.00 | 86 | 1020.0 |
| 20260901042356 | 12 | 100 | 0.0 | 1.6 | 0.00 | 0.00 | 0.00 | 86 | 1019.9 |
| 20260901042256 | 12 | 100 | 0.0 | 1.6 | 0.00 | 0.00 | 0.00 | 86 | 1019.9 |
| 20260901042157 | 12 | 100 | 0.0 | 1.6 | 0.00 | 0.00 | 0.00 | 86 | 1019.9 |
| 20260901042057 | 12 | 100 | 0.0 | 1.6 | 0.00 | 0.00 | 0.00 | 86 | 1019.9 |
| 20260901041954 | 12 | 100 | 0.0 | 1.6 | 0.00 | 0.00 | 0.00 | 86 | 1020.0 |
| 20260901041923 | 12 | 100 | 0.0 | 1.6 | 0.00 | 0.00 | 0.00 | 86 | 1020.0 |
| 20260901041855 | 12 | 100 | 0.0 | 1.6 | 0.00 | 0.00 | 0.00 | 86 | 1020.0 |
| 20260901041755 | 12 | 100 | 0.0 | 1.6 | 0.00 | 0.00 | 0.00 | 86 | 1020.1 |
| 20260901041654 | 12 | 100 | 0.0 | 1.6 | 0.00 | 0.00 | 0.00 | 86 | 1020.1 |
| 20260901041552 | 12 | 100 | 0.0 | 1.6 | 0.00 | 0.00 | 0.00 | 85 | 1020.0 |
| 20260901041452 | 12 | 100 | 0.0 | 1.6 | 0.00 | 0.00 | 0.00 | 85 | 1020.0 |
| 20260901041422 | 12 | 100 | 0.0 | 1.6 | 0.00 | 0.00 | 0.00 | 85 | 1020.0 |
| 20260901041350 | 12 | 100 | 0.0 | 1.6 | 0.00 | 0.00 | 0.00 | 85 | 1020.0 |
| 20260901041250 | 12 | 100 | 0.0 | 1.6 | 0.00 | 0.00 | 0.00 | 85 | 1020.0 |
| 20260901041148 | 12 | 100 | 0.0 | 1.6 | 0.00 | 0.00 | 0.00 | 85 | 1020.0 |
| 20260901041046 | 12 | 100 | 0.0 | 3.2 | 0.00 | 0.00 | 0.00 | 85 | 1020.1 |
| 20260901040947 | 12 | 100 | 0.0 | 3.2 | 0.00 | 0.00 | 0.00 | 85 | 1020.0 |
| 20260901040915 | 12 | 100 | 0.0 | 3.2 | 0.00 | 0.00 | 0.00 | 85 | 1020.0 |
| 20260901040844 | 12 | 100 | 0.0 | 3.2 | 0.00 | 0.00 | 0.00 | 85 | 1020.0 |
| 20260901040745 | 12 | 100 | 0.0 | 3.2 | 0.00 | 0.00 | 0.00 | 85 | 1020.0 |
| 20260901040642 | 12 | 100 | 0.0 | 3.2 | 0.00 | 0.00 | 0.00 | 85 | 1020.0 |
| 20260901040540 | 12 | 100 | 0.0 | 3.2 | 0.00 | 0.00 | 0.00 | 85 | 1019.9 |
| 20260901040416 | 12 | 100 | 0.0 | 3.2 | 0.00 | 0.00 | 0.00 | 85 | 1020.0 |
| 20260901040340 | 12 | 100 | 0.0 | 3.2 | 0.00 | 0.00 | 0.00 | 85 | 1020.0 |
| 20260901040240 | 12 | 100 | 0.0 | 3.2 | 0.00 | 0.00 | 0.00 | 85 | 1019.9 |
| 20260901040140 | 12 | 100 | 0.0 | 3.2 | 0.00 | 0.00 | 0.00 | 85 | 1019.9 |
| 20260901040038 | 12 | 100 | 0.0 | 0.0 | 0.00 | 0.00 | 0.00 | 85 | 1019.9 |
| 20260901035915 | 12 | 100 | 0.0 | 0.0 | 0.00 | 0.00 | 0.00 | 85 | 1019.9 |
| 20260901035836 | 12 | 100 | 0.0 | 0.0 | 0.00 | 0.00 | 0.00 | 85 | 1019.9 |
| 20260901035736 | 12 | 100 | 0.0 | 0.0 | 0.00 | 0.00 | 0.00 | 85 | 1020.0 |
| 20260901035635 | 12 | 100 | 0.0 | 0.0 | 0.00 | 0.00 | 0.00 | 85 | 1020.0 |
| 20260901035533 | 12 | 100 | 0.0 | 0.0 | 0.00 | 0.00 | 0.00 | 85 | 1019.9 |
| 20260901035412 | 12 | 100 | 0.0 | 0.0 | 0.00 | 0.00 | 0.00 | 85 | 1020.0 |
| 20260901035329 | 12 | 100 | 0.0 | 0.0 | 0.00 | 0.00 | 0.00 | 85 | 1020.0 |
| 20260901035229 | 12 | 100 | 0.0 | 0.0 | 0.00 | 0.00 | 0.00 | 85 | 1020.0 |
| 20260901035129 | 12 | 100 | 0.0 | 0.0 | 0.00 | 0.00 | 0.00 | 85 | 1020.0 |
| 20260901035029 | 12 | 100 | 0.0 | 0.0 | 0.00 | 0.00 | 0.00 | 85 | 1020.0 |
| 20260901034929 | 12 | 100 | 0.0 | 0.0 | 0.00 | 0.00 | 0.00 | 84 | 1020.0 |
| 20260901034913 | 12 | 100 | 0.0 | 0.0 | 0.00 | 0.00 | 0.00 | 85 | 1020.0 |
| 20260901034829 | 12 | 100 | 0.0 | 0.0 | 0.00 | 0.00 | 0.00 | 84 | 1020.0 |
| 20260901034729 | 12 | 100 | 0.0 | 0.0 | 0.00 | 0.00 | 0.00 | 84 | 1020.0 |
| 20260901034629 | 12 | 100 | 0.0 | 1.6 | 0.00 | 0.00 | 0.00 | 84 | 1020.0 |
| 20260901034525 | 12 | 100 | 0.0 | 1.6 | 0.00 | 0.00 | 0.00 | 84 | 1020.0 |
| 20260901034410 | 12 | 100 | 0.0 | 1.6 | 0.00 | 0.00 | 0.00 | 84 | 1020.0 |
| 20260901034320 | 12 | 100 | 0.0 | 1.6 | 0.00 | 0.00 | 0.00 | 84 | 1020.0 |
| 20260901034220 | 12 | 100 | 0.0 | 1.6 | 0.00 | 0.00 | 0.00 | 84 | 1020.0 |
| 20260901034120 | 12 | 100 | 0.0 | 1.6 | 0.00 | 0.00 | 0.00 | 84 | 1020.0 |
| 20260901034020 | 12 | 100 | 0.0 | 1.6 | 0.00 | 0.00 | 0.00 | 84 | 1020.0 |
| 20260901033908 | 12 | 100 | 0.0 | 1.6 | 0.00 | 0.00 | 0.00 | 84 | 1019.9 |
| 20260901033815 | 12 | 100 | 0.0 | 1.6 | 0.00 | 0.00 | 0.00 | 84 | 1019.9 |
| 20260901033714 | 12 | 100 | 0.0 | 1.6 | 0.00 | 0.00 | 0.00 | 84 | 1019.9 |
| 20260901033614 | 12 | 100 | 0.0 | 1.6 | 0.00 | 0.00 | 0.00 | 83 | 1019.9 |
| 20260901033513 | 12 | 100 | 0.0 | 3.2 | 0.00 | 0.00 | 0.00 | 83 | 1019.9 |
| 20260901033406 | 12 | 100 | 0.0 | 3.2 | 0.00 | 0.00 | 0.00 | 83 | 1019.9 |
| 20260901033312 | 12 | 100 | 0.0 | 3.2 | 0.00 | 0.00 | 0.00 | 83 | 1019.9 |
| 20260901033212 | 12 | 100 | 0.0 | 3.2 | 0.00 | 0.00 | 0.00 | 83 | 1019.9 |
| 20260901033111 | 12 | 100 | 1.6 | 3.2 | 0.00 | 0.00 | 0.00 | 83 | 1019.9 |
| 20260901033007 | 12 | 100 | 1.6 | 3.2 | 0.00 | 0.00 | 0.00 | 83 | 1020.0 |
| 20260901032905 | 12 | 100 | 1.6 | 3.2 | 0.00 | 0.00 | 0.00 | 83 | 1020.0 |
| 20260901032806 | 12 | 100 | 1.6 | 3.2 | 0.00 | 0.00 | 0.00 | 83 | 1020.0 |
| 20260901032706 | 12 | 100 | 1.6 | 3.2 | 0.00 | 0.00 | 0.00 | 83 | 1020.0 |
| 20260901032625 | 12 | 100 | 1.6 | 3.2 | 0.00 | 0.00 | 0.00 | 83 | 1020.0 |
| 20260901032620 | 12 | 100 | 1.6 | 3.2 | 0.00 | 0.00 | 0.00 | 83 | 1020.0 |
| 20260901032613 | 12 | 100 | 1.6 | 3.2 | 0.00 | 0.00 | 0.00 | 83 | 1020.0 |
| 20260901032302 | 12 | 100 | 1.6 | 3.2 | 0.00 | 0.00 | 0.00 | 83 | 1020.0 |
| 20260901032201 | 12 | 100 | 1.6 | 3.2 | 0.00 | 0.00 | 0.00 | 83 | 1020.0 |
| 20260901032101 | 12 | 100 | 1.6 | 3.2 | 0.00 | 0.00 | 0.00 | 82 | 1020.0 |
| 20260901032001 | 12 | 100 | 1.6 | 4.8 | 0.00 | 0.00 | 0.00 | 82 | 1020.0 |
| 20260901031901 | 12 | 100 | 1.6 | 4.8 | 0.00 | 0.00 | 0.00 | 82 | 1020.0 |
| 20260901031801 | 12 | 100 | 1.6 | 4.8 | 0.00 | 0.00 | 0.00 | 82 | 1020.0 |
| 20260901031701 | 12 | 100 | 1.6 | 4.8 | 0.00 | 0.00 | 0.00 | 82 | 1020.0 |
| 20260901031601 | 12 | 100 | 1.6 | 4.8 | 0.00 | 0.00 | 0.00 | 82 | 1020.0 |
| 20260901031501 | 12 | 100 | 1.6 | 4.8 | 0.00 | 0.00 | 0.00 | 82 | 1020.0 |
| 20260901031400 | 12 | 100 | 1.6 | 4.8 | 0.00 | 0.00 | 0.00 | 82 | 1020.0 |
| 20260901031301 | 12 | 100 | 1.6 | 4.8 | 0.00 | 0.00 | 0.00 | 82 | 1020.0 |
| 20260901031201 | 12 | 100 | 1.6 | 4.8 | 0.00 | 0.00 | 0.00 | 82 | 1020.0 |
| 20260901031101 | 12 | 100 | 1.6 | 4.8 | 0.00 | 0.00 | 0.00 | 82 | 1020.0 |
| 20260901031001 | 12 | 95 | 1.6 | 4.8 | 0.00 | 0.00 | 0.00 | 82 | 1020.0 |
| 20260901030901 | 12 | 96 | 1.6 | 3.2 | 0.00 | 0.00 | 0.00 | 82 | 1020.0 |
| 20260901030801 | 12 | 96 | 1.6 | 3.2 | 0.00 | 0.00 | 0.00 | 81 | 1020.0 |
| 20260901030700 | 12 | 82 | 1.6 | 3.2 | 0.00 | 0.00 | 0.00 | 81 | 1020.0 |
| 20260901030600 | 12 | 82 | 1.6 | 3.2 | 0.00 | 0.00 | 0.00 | 81 | 1020.0 |
| 20260901030500 | 12 | 80 | 1.6 | 3.2 | 0.00 | 0.00 | 0.00 | 81 | 1020.0 |
| 20260901030400 | 12 | 80 | 1.6 | 3.2 | 0.00 | 0.00 | 0.00 | 81 | 1020.0 |
| 20260901030300 | 12 | 71 | 1.6 | 3.2 | 0.00 | 0.00 | 0.00 | 81 | 1020.0 |
| 20260901030200 | 12 | 71 | 1.6 | 3.2 | 0.00 | 0.00 | 0.00 | 81 | 1020.0 |
| 20260901030001 | 12 | 67 | 1.6 | 3.2 | 0.00 | 0.00 | 0.00 | 81 | 1020.0 |
| 20260901025901 | 13 | 67 | 1.6 | 3.2 | 0.00 | 0.00 | 0.00 | 81 | 1020.1 |
| 20260901025801 | 13 | 67 | 1.6 | 3.2 | 0.00 | 0.00 | 0.00 | 81 | 1020.1 |
| 20260901025701 | 13 | 67 | 1.6 | 3.2 | 0.00 | 0.00 | 0.00 | 81 | 1020.1 |
| 20260901025601 | 13 | 67 | 1.6 | 3.2 | 0.00 | 0.00 | 0.00 | 81 | 1020.1 |
| 20260901025500 | 13 | 67 | 1.6 | 3.2 | 0.00 | 0.00 | 0.00 | 81 | 1020.1 |
| 20260901025401 | 13 | 67 | 1.6 | 3.2 | 0.00 | 0.00 | 0.00 | 81 | 1020.0 |
| 20260901025301 | 13 | 67 | 1.6 | 3.2 | 0.00 | 0.00 | 0.00 | 81 | 1020.1 |
| 20260901025201 | 13 | 67 | 0.0 | 3.2 | 0.00 | 0.00 | 0.00 | 81 | 1020.1 |
| 20260901025101 | 13 | 67 | 0.0 | 3.2 | 0.00 | 0.00 | 0.00 | 81 | 1020.1 |
| 20260901025001 | 13 | 67 | 0.0 | 3.2 | 0.00 | 0.00 | 0.00 | 81 | 1020.1 |
| 20260901024901 | 13 | 67 | 0.0 | 3.2 | 0.00 | 0.00 | 0.00 | 81 | 1020.1 |
| 20260901024801 | 13 | 64 | 1.6 | 3.2 | 0.00 | 0.00 | 0.00 | 80 | 1020.0 |
| 20260901024701 | 13 | 64 | 1.6 | 3.2 | 0.00 | 0.03 | 0.00 | 80 | 1020.1 |
| 20260901024601 | 13 | 64 | 1.6 | 3.2 | 0.00 | 0.03 | 0.00 | 80 | 1020.0 |
| 20260901024501 | 13 | 64 | 0.0 | 3.2 | 0.00 | 0.03 | 0.00 | 80 | 1020.1 |
| 20260901024401 | 13 | 64 | 0.0 | 3.2 | 0.00 | 0.03 | 0.00 | 80 | 1020.1 |
| 20260901024301 | 13 | 64 | 0.0 | 3.2 | 0.00 | 0.03 | 0.00 | 80 | 1020.1 |
| 20260901024201 | 13 | 64 | 0.0 | 3.2 | 0.00 | 0.03 | 0.00 | 80 | 1020.1 |
| 20260901024100 | 13 | 64 | 1.6 | 3.2 | 0.00 | 0.03 | 0.00 | 80 | 1020.1 |
| 20260901024001 | 13 | 64 | 1.6 | 4.8 | 0.00 | 0.05 | 0.00 | 80 | 1020.0 |
| 20260901023905 | 13 | 64 | 1.6 | 4.8 | 0.00 | 0.05 | 0.00 | 80 | 1020.1 |
| 20260901023801 | 13 | 64 | 1.6 | 4.8 | 0.00 | 0.05 | 0.00 | 79 | 1020.1 |
| 20260901023701 | 13 | 64 | 1.6 | 4.8 | 0.00 | 0.05 | 0.00 | 79 | 1020.1 |
| 20260901023601 | 13 | 64 | 1.6 | 4.8 | 0.00 | 0.05 | 0.00 | 79 | 1020.1 |
| 20260901023500 | 13 | 64 | 1.6 | 4.8 | 0.00 | 0.05 | 0.00 | 79 | 1020.0 |
| 20260901023404 | 13 | 64 | 1.6 | 6.4 | 0.00 | 0.05 | 0.00 | 79 | 1020.1 |
| 20260901023300 | 13 | 64 | 1.6 | 6.4 | 0.00 | 0.08 | 0.00 | 79 | 1020.1 |
| 20260901023200 | 13 | 64 | 1.6 | 6.4 | 0.00 | 0.08 | 0.00 | 79 | 1020.1 |
| 20260901023100 | 13 | 64 | 1.6 | 6.4 | 0.00 | 0.08 | 0.00 | 79 | 1020.0 |
| 20260901023000 | 13 | 81 | 1.6 | 6.4 | 0.00 | 0.08 | 0.00 | 79 | 1020.1 |
| 20260901022904 | 13 | 81 | 1.6 | 6.4 | 0.00 | 0.08 | 0.00 | 79 | 1020.1 |
| 20260901022900 | 13 | 81 | 1.6 | 6.4 | 0.00 | 0.08 | 0.00 | 79 | 1020.1 |
| 20260901022758 | 13 | 81 | 1.6 | 6.4 | 0.00 | 0.08 | 0.00 | 78 | 1020.1 |
| 20260901022656 | 13 | 81 | 1.6 | 6.4 | 0.00 | 0.10 | 0.00 | 78 | 1020.0 |
| 20260901022556 | 13 | 82 | 1.6 | 6.4 | 0.00 | 0.10 | 0.00 | 78 | 1020.0 |
| 20260901022454 | 13 | 82 | 1.6 | 6.4 | 0.00 | 0.10 | 0.00 | 78 | 1020.0 |
| 20260901022402 | 13 | 84 | 1.6 | 6.4 | 0.00 | 0.13 | 0.00 | 78 | 1020.1 |
| 20260901022353 | 13 | 88 | 1.6 | 6.4 | 0.00 | 0.13 | 0.00 | 78 | 1020.1 |
| 20260901022252 | 13 | 175 | 1.6 | 4.8 | 0.00 | 0.15 | 0.00 | 78 | 1020.0 |
| 20260901022150 | 13 | 175 | 1.6 | 4.8 | 0.00 | 0.18 | 0.00 | 78 | 1020.1 |
| 20260901022050 | 13 | 175 | 1.6 | 4.8 | 0.00 | 0.20 | 0.00 | 78 | 1020.0 |
| 20260901021948 | 13 | 175 | 0.0 | 4.8 | 0.00 | 0.23 | 0.00 | 78 | 1020.1 |
| 20260901021901 | 13 | 218 | 0.0 | 4.8 | 0.00 | 0.23 | 0.00 | 78 | 1020.0 |
| 20260901021846 | 13 | 218 | 0.0 | 4.8 | 0.00 | 0.23 | 0.00 | 78 | 1020.0 |
| 20260901021746 | 13 | 225 | 0.0 | 4.8 | 0.00 | 0.25 | 0.00 | 77 | 1020.1 |
| 20260901021646 | 13 | 243 | 0.0 | 4.8 | 0.00 | 0.28 | 0.00 | 77 | 1020.1 |
| 20260901021546 | 13 | 244 | 0.0 | 3.2 | 0.00 | 0.30 | 0.00 | 77 | 1020.0 |
| 20260901021446 | 14 | 244 | 0.0 | 3.2 | 0.00 | 0.30 | 0.00 | 77 | 1020.0 |
| 20260901021401 | 14 | 244 | 0.0 | 3.2 | 0.00 | 0.30 | 0.00 | 77 | 1020.1 |
| 20260901021344 | 14 | 244 | 0.0 | 3.2 | 0.00 | 0.30 | 0.00 | 77 | 1020.1 |
| 20260901021244 | 14 | 244 | 0.0 | 3.2 | 0.00 | 0.30 | 0.00 | 77 | 1020.0 |
| 20260901021142 | 14 | 244 | 1.6 | 3.2 | 0.00 | 0.30 | 0.00 | 76 | 1020.1 |
| 20260901021042 | 14 | 244 | 1.6 | 3.2 | 0.00 | 0.30 | 0.00 | 76 | 1020.1 |
| 20260901020940 | 14 | 244 | 1.6 | 3.2 | 0.00 | 0.30 | 0.00 | 76 | 1020.0 |
| 20260901020900 | 14 | 244 | 1.6 | 3.2 | 0.00 | 0.30 | 0.00 | 76 | 1020.0 |
| 20260901020840 | 14 | 244 | 1.6 | 3.2 | 0.00 | 0.30 | 0.00 | 76 | 1020.0 |
| 20260901020738 | 14 | 244 | 1.6 | 3.2 | 0.00 | 0.30 | 0.00 | 76 | 1020.0 |
| 20260901020636 | 14 | 244 | 1.6 | 3.2 | 0.00 | 0.30 | 0.00 | 76 | 1020.0 |
| 20260901020536 | 14 | 244 | 1.6 | 3.2 | 0.00 | 0.30 | 0.00 | 76 | 1020.0 |
| 20260901020434 | 14 | 244 | 1.6 | 3.2 | 0.00 | 0.30 | 0.00 | 76 | 1020.0 |
| 20260901020400 | 14 | 244 | 1.6 | 3.2 | 0.00 | 0.30 | 0.00 | 76 | 1020.0 |
| 20260901020334 | 14 | 244 | 1.6 | 3.2 | 0.00 | 0.30 | 0.00 | 76 | 1020.0 |
| 20260901020234 | 14 | 244 | 1.6 | 3.2 | 0.00 | 0.33 | 0.00 | 76 | 1020.0 |
| 20260901020134 | 14 | 244 | 1.6 | 4.8 | 0.00 | 0.33 | 0.00 | 76 | 1020.0 |
| 20260901020034 | 14 | 244 | 1.6 | 4.8 | 0.00 | 0.33 | 0.00 | 76 | 1020.0 |
| 20260901015932 | 14 | 244 | 1.6 | 4.8 | 0.00 | 0.33 | 0.00 | 76 | 1020.0 |
| 20260901015901 | 14 | 244 | 1.6 | 4.8 | 0.00 | 0.33 | 0.00 | 76 | 1020.0 |
| 20260901015832 | 14 | 244 | 1.6 | 4.8 | 0.00 | 0.33 | 0.00 | 76 | 1020.0 |
| 20260901015730 | 14 | 244 | 1.6 | 4.8 | 0.00 | 0.33 | 0.00 | 76 | 1020.0 |
| 20260901015629 | 14 | 244 | 1.6 | 4.8 | 0.00 | 0.33 | 0.00 | 76 | 1020.0 |
| 20260901015624 | 14 | 244 | 1.6 | 4.8 | 0.00 | 0.36 | 0.00 | 76 | 1020.0 |
| 20260901015616 | 14 | 244 | 1.6 | 4.8 | 0.00 | 0.33 | 0.00 | 76 | 1019.9 |
| 20260901015612 | 14 | 244 | 1.6 | 4.8 | 0.00 | 0.33 | 0.00 | 76 | 1020.0 |
| 20260901015329 | 14 | 244 | 1.6 | 4.8 | 0.00 | 0.36 | 0.00 | 76 | 1020.0 |
| 20260901015229 | 14 | 244 | 3.2 | 4.8 | 0.00 | 0.36 | 0.00 | 76 | 1020.0 |
| 20260901015129 | 14 | 244 | 3.2 | 4.8 | 0.00 | 0.36 | 0.00 | 76 | 1020.0 |
| 20260901015029 | 14 | 244 | 3.2 | 4.8 | 0.00 | 0.36 | 0.00 | 76 | 1020.0 |
| 20260901014929 | 14 | 244 | 3.2 | 4.8 | 0.00 | 0.36 | 0.00 | 76 | 1019.9 |
| 20260901014901 | 14 | 244 | 3.2 | 4.8 | 0.00 | 0.36 | 0.00 | 76 | 1020.0 |
| 20260901014829 | 14 | 244 | 3.2 | 4.8 | 0.00 | 0.36 | 0.00 | 76 | 1020.0 |
| 20260901014729 | 14 | 244 | 3.2 | 4.8 | 0.00 | 0.36 | 0.00 | 76 | 1020.0 |
| 20260901014629 | 14 | 232 | 3.2 | 4.8 | 0.00 | 0.36 | 0.00 | 76 | 1020.0 |
| 20260901014529 | 14 | 232 | 1.6 | 4.8 | 0.00 | 0.36 | 0.00 | 76 | 1020.0 |
| 20260901014429 | 14 | 229 | 1.6 | 4.8 | 0.00 | 0.36 | 0.00 | 76 | 1020.0 |
| 20260901014401 | 14 | 229 | 3.2 | 4.8 | 0.00 | 0.36 | 0.00 | 76 | 1020.0 |
| 20260901014329 | 14 | 229 | 3.2 | 4.8 | 0.00 | 0.36 | 0.00 | 76 | 1020.0 |
| 20260901014229 | 14 | 229 | 1.6 | 4.8 | 0.00 | 0.36 | 0.00 | 76 | 1020.0 |
| 20260901014129 | 14 | 229 | 1.6 | 4.8 | 0.00 | 0.36 | 0.00 | 76 | 1020.0 |
| 20260901014028 | 14 | 229 | 1.6 | 4.8 | 0.00 | 0.36 | 0.00 | 76 | 1019.9 |
| 20260901013901 | 14 | 229 | 1.6 | 4.8 | 0.00 | 0.36 | 0.00 | 76 | 1020.0 |
| 20260901013855 | 14 | 229 | 0.0 | 4.8 | 0.00 | 0.36 | 0.00 | 77 | 1020.0 |
| 20260901013848 | 14 | 229 | 1.6 | 4.8 | 0.00 | 0.36 | 0.00 | 76 | 1020.0 |
| 20260901013844 | 14 | 229 | 1.6 | 4.8 | 0.00 | 0.36 | 0.00 | 76 | 1020.0 |
| 20260901013840 | 14 | 229 | 1.6 | 4.8 | 0.00 | 0.36 | 0.00 | 76 | 1020.0 |
| 20260901013617 | 14 | 229 | 1.6 | 4.8 | 0.00 | 0.36 | 0.00 | 76 | 1020.0 |
| 20260901013612 | 14 | 229 | 1.6 | 4.8 | 0.00 | 0.36 | 0.00 | 77 | 1020.0 |
| 20260901013326 | 14 | 229 | 0.0 | 4.8 | 0.00 | 0.36 | 0.00 | 77 | 1020.0 |
| 20260901013224 | 14 | 229 | 0.0 | 3.2 | 0.00 | 0.36 | 0.00 | 76 | 1020.0 |
| 20260901013124 | 14 | 229 | 0.0 | 3.2 | 0.00 | 0.36 | 0.00 | 76 | 1020.0 |
| 20260901013023 | 14 | 229 | 0.0 | 3.2 | 0.00 | 0.36 | 0.00 | 76 | 1020.0 |
| 20260901012901 | 14 | 229 | 0.0 | 3.2 | 0.00 | 0.36 | 0.00 | 76 | 1020.0 |
| 20260901012820 | 14 | 229 | 0.0 | 3.2 | 0.00 | 0.36 | 0.00 | 77 | 1020.0 |
| 20260901012720 | 14 | 229 | 0.0 | 1.6 | 0.00 | 0.36 | 0.00 | 76 | 1020.0 |
| 20260901012620 | 14 | 229 | 1.6 | 3.2 | 0.00 | 0.36 | 0.00 | 76 | 1020.0 |
| 20260901012520 | 14 | 229 | 1.6 | 3.2 | 0.00 | 0.36 | 0.00 | 76 | 1019.9 |
| 20260901012420 | 14 | 229 | 1.6 | 3.2 | 0.00 | 0.36 | 0.00 | 76 | 1019.9 |
| 20260901012401 | 14 | 229 | 1.6 | 3.2 | 0.00 | 0.36 | 0.00 | 77 | 1019.9 |
| 20260901012320 | 14 | 229 | 1.6 | 3.2 | 0.00 | 0.36 | 0.00 | 77 | 1019.9 |
| 20260901012220 | 14 | 229 | 0.0 | 3.2 | 0.00 | 0.36 | 0.00 | 77 | 1019.9 |
| 20260901012119 | 14 | 229 | 0.0 | 3.2 | 0.00 | 0.36 | 0.00 | 77 | 1020.0 |
| 20260901012020 | 14 | 229 | 0.0 | 3.2 | 0.00 | 0.36 | 0.00 | 77 | 1019.9 |
| 20260901011920 | 14 | 229 | 0.0 | 3.2 | 0.00 | 0.36 | 0.00 | 77 | 1019.9 |
| 20260901011901 | 14 | 229 | 0.0 | 3.2 | 0.00 | 0.36 | 0.00 | 76 | 1019.9 |
| 20260901011820 | 14 | 229 | 0.0 | 3.2 | 0.00 | 0.36 | 0.00 | 76 | 1019.9 |
| 20260901011718 | 13 | 229 | 0.0 | 3.2 | 0.00 | 0.36 | 0.00 | 76 | 1019.9 |
| 20260901011618 | 13 | 229 | 0.0 | 3.2 | 0.00 | 0.36 | 0.00 | 77 | 1019.9 |
| 20260901011516 | 13 | 229 | 0.0 | 3.2 | 0.00 | 0.36 | 0.00 | 77 | 1019.9 |
| 20260901011416 | 13 | 229 | 0.0 | 3.2 | 0.00 | 0.36 | 0.00 | 77 | 1019.9 |
| 20260901011400 | 13 | 229 | 0.0 | 3.2 | 0.00 | 0.36 | 0.00 | 78 | 1019.9 |
| 20260901011314 | 13 | 229 | 1.6 | 3.2 | 0.00 | 0.36 | 0.00 | 78 | 1019.9 |
| 20260901011212 | 13 | 229 | 1.6 | 4.8 | 0.00 | 0.36 | 0.00 | 77 | 1019.9 |
| 20260901011111 | 13 | 229 | 1.6 | 4.8 | 0.00 | 0.36 | 0.00 | 77 | 1019.9 |
| 20260901011009 | 13 | 229 | 1.6 | 4.8 | 0.00 | 0.36 | 0.00 | 77 | 1019.9 |
| 20260901010901 | 13 | 229 | 1.6 | 4.8 | 0.00 | 0.36 | 0.00 | 77 | 1019.9 |
| 20260901010808 | 13 | 229 | 1.6 | 4.8 | 0.00 | 0.36 | 0.00 | 77 | 1019.9 |
| 20260901010706 | 13 | 229 | 1.6 | 4.8 | 0.00 | 0.36 | 0.00 | 77 | 1019.9 |
| 20260901010606 | 13 | 229 | 1.6 | 4.8 | 0.00 | 0.36 | 0.00 | 78 | 1019.9 |
| 20260901010504 | 13 | 229 | 1.6 | 4.8 | 0.00 | 0.36 | 0.00 | 78 | 1019.9 |
| 20260901010401 | 13 | 229 | 1.6 | 4.8 | 0.00 | 0.36 | 0.00 | 78 | 1019.9 |
| 20260901010303 | 13 | 229 | 0.0 | 4.8 | 0.00 | 0.36 | 0.00 | 79 | 1019.9 |
| 20260901010204 | 13 | 229 | 1.6 | 3.2 | 0.00 | 0.36 | 0.00 | 79 | 1019.8 |
| 20260901010104 | 13 | 229 | 1.6 | 4.8 | 0.00 | 0.36 | 0.00 | 79 | 1019.8 |
| 20260901010002 | 13 | 229 | 1.6 | 4.8 | 0.00 | 0.36 | 0.00 | 78 | 1019.8 |
| 20260901005901 | 13 | 229 | 1.6 | 4.8 | 0.00 | 0.36 | 0.00 | 77 | 1019.8 |
| 20260901005801 | 13 | 229 | 1.6 | 4.8 | 0.00 | 0.36 | 0.00 | 77 | 1019.8 |
| 20260901005701 | 13 | 229 | 1.6 | 4.8 | 0.00 | 0.36 | 0.00 | 77 | 1019.8 |
| 20260901005602 | 13 | 229 | 1.6 | 4.8 | 0.00 | 0.36 | 0.00 | 78 | 1019.8 |
| 20260901005502 | 13 | 229 | 1.6 | 4.8 | 0.00 | 0.36 | 0.00 | 79 | 1019.8 |
| 20260901005401 | 13 | 229 | 1.6 | 4.8 | 0.00 | 0.36 | 0.00 | 79 | 1019.8 |
| 20260901005301 | 13 | 229 | 1.6 | 4.8 | 0.00 | 0.36 | 0.00 | 79 | 1019.8 |
| 20260901005201 | 13 | 229 | 1.6 | 4.8 | 0.00 | 0.36 | 0.00 | 80 | 1019.8 |
| 20260901005101 | 13 | 143 | 1.6 | 3.2 | 0.00 | 0.36 | 0.00 | 80 | 1019.8 |
| 20260901005001 | 13 | 143 | 1.6 | 3.2 | 0.00 | 0.36 | 0.00 | 81 | 1019.8 |
| 20260901004902 | 13 | 143 | 0.0 | 3.2 | 0.00 | 0.36 | 0.00 | 81 | 1019.8 |
| 20260901004800 | 13 | 143 | 0.0 | 3.2 | 0.00 | 0.36 | 0.00 | 81 | 1019.8 |
| 20260901004701 | 13 | 143 | 0.0 | 3.2 | 0.00 | 0.36 | 0.00 | 81 | 1019.8 |
| 20260901004601 | 13 | 143 | 0.0 | 3.2 | 0.00 | 0.36 | 0.00 | 80 | 1019.8 |
| 20260901004501 | 13 | 143 | 0.0 | 3.2 | 0.00 | 0.36 | 0.00 | 81 | 1019.7 |
| 20260901004401 | 13 | 143 | 0.0 | 3.2 | 0.00 | 0.36 | 0.00 | 81 | 1019.8 |
| 20260901004301 | 13 | 143 | 0.0 | 1.6 | 0.00 | 0.36 | 0.00 | 81 | 1019.7 |
| 20260901004201 | 13 | 143 | 0.0 | 0.0 | 0.00 | 0.36 | 0.00 | 81 | 1019.7 |
| 20260901004101 | 13 | 143 | 0.0 | 0.0 | 0.00 | 0.36 | 0.00 | 81 | 1019.7 |
| 20260901004001 | 13 | 143 | 0.0 | 0.0 | 0.00 | 0.36 | 0.00 | 81 | 1019.8 |
| 20260901003901 | 13 | 143 | 0.0 | 0.0 | 0.00 | 0.36 | 0.00 | 81 | 1019.7 |
| 20260901003801 | 13 | 143 | 0.0 | 0.0 | 0.00 | 0.36 | 0.00 | 80 | 1019.8 |
| 20260901003701 | 13 | 143 | 0.0 | 0.0 | 0.00 | 0.36 | 0.00 | 80 | 1019.7 |
| 20260901003620 | 13 | 143 | 0.0 | 0.0 | 0.00 | 0.36 | 0.00 | 80 | 1019.7 |
| 20260901003616 | 13 | 143 | 0.0 | 0.0 | 0.00 | 0.36 | 0.00 | 81 | 1019.8 |
| 20260901003612 | 13 | 143 | 0.0 | 0.0 | 0.00 | 0.36 | 0.00 | 81 | 1019.7 |
| 20260901003300 | 13 | 143 | 0.0 | 0.0 | 0.00 | 0.36 | 0.00 | 81 | 1019.7 |
| 20260901003200 | 13 | 143 | 0.0 | 0.0 | 0.00 | 0.36 | 0.00 | 81 | 1019.7 |
| 20260901003101 | 13 | 143 | 0.0 | 0.0 | 0.00 | 0.36 | 0.00 | 81 | 1019.7 |
| 20260901003001 | 13 | 143 | 0.0 | 0.0 | 0.00 | 0.36 | 0.00 | 81 | 1019.7 |
| 20260901002901 | 13 | 143 | 0.0 | 0.0 | 0.00 | 0.36 | 0.00 | 81 | 1019.7 |
| 20260901002801 | 13 | 143 | 0.0 | 0.0 | 0.00 | 0.36 | 0.00 | 81 | 1019.8 |
| 20260901002702 | 13 | 143 | 0.0 | 0.0 | 0.00 | 0.36 | 0.00 | 81 | 1019.7 |
| 20260901002620 | 13 | 143 | 0.0 | 0.0 | 0.00 | 0.36 | 0.00 | 80 | 1019.7 |
| 20260901002616 | 13 | 143 | 0.0 | 0.0 | 0.00 | 0.36 | 0.00 | 80 | 1019.7 |
| 20260901002612 | 13 | 143 | 0.0 | 0.0 | 0.00 | 0.36 | 0.00 | 81 | 1019.7 |
| 20260901002306 | 13 | 143 | 0.0 | 0.0 | 0.00 | 0.36 | 0.00 | 81 | 1019.7 |
| 20260901002201 | 13 | 143 | 0.0 | 0.0 | 0.00 | 0.36 | 0.00 | 81 | 1019.7 |
| 20260901002101 | 13 | 143 | 0.0 | 0.0 | 0.00 | 0.36 | 0.00 | 81 | 1019.7 |
| 20260901002001 | 13 | 143 | 0.0 | 0.0 | 0.00 | 0.36 | 0.00 | 81 | 1019.7 |
| 20260901001901 | 13 | 143 | 0.0 | 0.0 | 0.00 | 0.36 | 0.00 | 81 | 1019.7 |
| 20260901001804 | 13 | 143 | 0.0 | 0.0 | 0.00 | 0.36 | 0.00 | 80 | 1019.7 |
| 20260901001701 | 13 | 143 | 0.0 | 0.0 | 0.00 | 0.36 | 0.00 | 80 | 1019.7 |
| 20260901001600 | 13 | 143 | 0.0 | 0.0 | 0.00 | 0.36 | 0.00 | 81 | 1019.7 |
| 20260901001500 | 13 | 143 | 0.0 | 0.0 | 0.00 | 0.36 | 0.00 | 80 | 1019.7 |
| 20260901001401 | 13 | 143 | 0.0 | 0.0 | 0.00 | 0.36 | 0.00 | 80 | 1019.7 |
| 20260901001301 | 13 | 143 | 0.0 | 0.0 | 0.00 | 0.36 | 0.00 | 80 | 1019.7 |
| 20260901001200 | 13 | 143 | 0.0 | 0.0 | 0.00 | 0.36 | 0.00 | 80 | 1019.7 |
| 20260901001121 | 13 | 143 | 0.0 | 0.0 | 0.00 | 0.36 | 0.00 | 80 | 1019.7 |
| 20260901001117 | 13 | 143 | 0.0 | 0.0 | 0.00 | 0.36 | 0.00 | 80 | 1019.7 |
| 20260901001112 | 13 | 143 | 0.0 | 0.0 | 0.00 | 0.36 | 0.00 | 80 | 1019.7 |
| 20260901000801 | 13 | 143 | 0.0 | 0.0 | 0.00 | 0.36 | 0.00 | 80 | 1019.7 |
| 20260901000700 | 13 | 143 | 0.0 | 0.0 | 0.00 | 0.36 | 0.00 | 80 | 1019.7 |
| 20260901000558 | 13 | 143 | 0.0 | 0.0 | 0.00 | 0.36 | 0.00 | 80 | 1019.7 |
| 20260901000458 | 13 | 143 | 0.0 | 0.0 | 0.00 | 0.36 | 0.00 | 80 | 1019.7 |
| 20260901000402 | 13 | 143 | 0.0 | 0.0 | 0.00 | 0.36 | 0.00 | 80 | 1019.7 |
| 20260901000358 | 13 | 143 | 0.0 | 0.0 | 0.00 | 0.36 | 0.00 | 80 | 1019.7 |
| 20260901000258 | 13 | 143 | 0.0 | 0.0 | 0.00 | 0.36 | 0.00 | 80 | 1019.7 |
| 20260901000157 | 13 | 143 | 0.0 | 0.0 | 0.00 | 0.36 | 0.00 | 80 | 1019.7 |
| 20260901000057 | 13 | 143 | 0.0 | 0.0 | 0.00 | 0.36 | 0.00 | 80 | 1019.7 |
| 20260831235958 | 13 | 143 | 0.0 | 0.0 | 0.00 | 0.36 | 0.00 | 80 | 1019.7 |
| 20260831235901 | 13 | 143 | 0.0 | 0.0 | 0.00 | 0.36 | 0.00 | 80 | 1019.7 |
| 20260831235856 | 13 | 143 | 0.0 | 0.0 | 0.00 | 0.36 | 0.00 | 80 | 1019.7 |
| 20260831235756 | 13 | 143 | 0.0 | 1.6 | 0.00 | 0.36 | 0.00 | 80 | 1019.7 |
| 20260831235653 | 13 | 143 | 0.0 | 1.6 | 0.00 | 0.36 | 0.00 | 80 | 1019.7 |
| 20260831235618 | 13 | 143 | 0.0 | 1.6 | 0.00 | 0.36 | 0.00 | 79 | 1019.5 |
| 20260831235613 | 13 | 143 | 0.0 | 1.6 | 0.00 | 0.36 | 0.00 | 80 | 1019.7 |
| 20260831235605 | 13 | 143 | 0.0 | 1.6 | 0.00 | 0.36 | 0.00 | 79 | 1019.7 |
| 20260831235350 | 13 | 143 | 0.0 | 1.6 | 0.00 | 0.36 | 0.00 | 79 | 1019.7 |
| 20260831235341 | 13 | 143 | 0.0 | 1.6 | 0.00 | 0.36 | 0.00 | 80 | 1019.5 |
| 20260831235334 | 13 | 143 | 0.0 | 1.6 | 0.00 | 0.36 | 0.00 | 80 | 1019.7 |
| 20260831235116 | 13 | 143 | 0.0 | 1.6 | 0.00 | 0.36 | 0.00 | 80 | 1019.5 |
| 20260831235112 | 13 | 143 | 0.0 | 1.6 | 0.00 | 0.36 | 0.00 | 79 | 1019.7 |
| 20260831234839 | 13 | 143 | 0.0 | 1.6 | 0.00 | 0.36 | 0.00 | 79 | 1019.5 |
| 20260831234740 | 13 | 143 | 0.0 | 1.6 | 0.00 | 0.36 | 0.00 | 79 | 1019.7 |
| 20260831234640 | 13 | 143 | 0.0 | 1.6 | 0.00 | 0.36 | 0.00 | 79 | 1019.5 |
| 20260831234539 | 13 | 143 | 0.0 | 1.6 | 0.00 | 0.36 | 0.00 | 78 | 1019.5 |
| 20260831234439 | 13 | 143 | 0.0 | 1.6 | 0.00 | 0.36 | 0.00 | 78 | 1019.5 |
| 20260831234338 | 13 | 143 | 0.0 | 1.6 | 0.00 | 0.36 | 0.00 | 78 | 1019.5 |
| 20260831234237 | 13 | 143 | 0.0 | 1.6 | 0.00 | 0.36 | 0.00 | 78 | 1019.5 |
| 20260831234136 | 13 | 143 | 0.0 | 1.6 | 0.00 | 0.36 | 0.00 | 78 | 1019.7 |
| 20260831234034 | 13 | 143 | 0.0 | 3.2 | 0.00 | 0.36 | 0.00 | 78 | 1019.5 |
| 20260831233932 | 13 | 143 | 0.0 | 3.2 | 0.00 | 0.36 | 0.00 | 78 | 1019.7 |
| 20260831233832 | 14 | 143 | 0.0 | 3.2 | 0.00 | 0.36 | 0.00 | 78 | 1019.5 |
| 20260831233732 | 14 | 143 | 0.0 | 3.2 | 0.00 | 0.36 | 0.00 | 78 | 1019.5 |
| 20260831233632 | 14 | 143 | 0.0 | 3.2 | 0.00 | 0.36 | 0.00 | 78 | 1019.5 |
| 20260831233613 | 14 | 143 | 0.0 | 3.2 | 0.00 | 0.36 | 0.00 | 78 | 1019.5 |
| 20260831233605 | 14 | 143 | 0.0 | 3.2 | 0.00 | 0.36 | 0.00 | 78 | 1019.5 |
| 20260831233601 | 14 | 143 | 0.0 | 3.2 | 0.00 | 0.36 | 0.00 | 78 | 1019.5 |
| 20260831233331 | 14 | 143 | 0.0 | 3.2 | 0.00 | 0.36 | 0.00 | 78 | 1019.5 |
| 20260831233230 | 14 | 143 | 0.0 | 3.2 | 0.00 | 0.36 | 0.00 | 78 | 1019.5 |
| 20260831233129 | 14 | 143 | 0.0 | 3.2 | 0.00 | 0.36 | 0.00 | 78 | 1019.7 |
| 20260831233029 | 14 | 143 | 0.0 | 3.2 | 0.00 | 0.36 | 0.00 | 78 | 1019.5 |
| 20260831232929 | 14 | 143 | 0.0 | 3.2 | 0.00 | 0.36 | 0.00 | 79 | 1019.5 |
| 20260831232829 | 14 | 143 | 0.0 | 3.2 | 0.00 | 0.36 | 0.00 | 79 | 1019.5 |
| 20260831232729 | 14 | 143 | 0.0 | 3.2 | 0.00 | 0.36 | 0.00 | 79 | 1019.7 |
| 20260831232629 | 14 | 143 | 0.0 | 3.2 | 0.00 | 0.36 | 0.00 | 78 | 1019.7 |
| 20260831232529 | 14 | 143 | 0.0 | 3.2 | 0.00 | 0.36 | 0.00 | 78 | 1019.7 |
| 20260831232429 | 14 | 143 | 0.0 | 3.2 | 0.00 | 0.36 | 0.00 | 78 | 1019.7 |
| 20260831232329 | 14 | 143 | 0.0 | 3.2 | 0.00 | 0.36 | 0.00 | 77 | 1019.7 |
| 20260831232226 | 14 | 143 | 0.0 | 3.2 | 0.00 | 0.36 | 0.00 | 78 | 1019.7 |
| 20260831232124 | 14 | 143 | 0.0 | 3.2 | 0.00 | 0.36 | 0.00 | 78 | 1019.7 |
| 20260831232023 | 14 | 143 | 0.0 | 3.2 | 0.00 | 0.36 | 0.00 | 77 | 1019.5 |
| 20260831231921 | 14 | 143 | 0.0 | 3.2 | 0.00 | 0.36 | 0.00 | 77 | 1019.5 |
| 20260831231821 | 14 | 143 | 0.0 | 3.2 | 0.00 | 0.36 | 0.00 | 77 | 1019.7 |
| 20260831231717 | 14 | 143 | 0.0 | 3.2 | 0.00 | 0.36 | 0.00 | 77 | 1019.7 |
| 20260831231616 | 14 | 143 | 0.0 | 3.2 | 0.00 | 0.36 | 0.00 | 78 | 1019.7 |
| 20260831231516 | 14 | 143 | 0.0 | 3.2 | 0.00 | 0.36 | 0.00 | 78 | 1019.7 |
| 20260831231416 | 14 | 143 | 0.0 | 3.2 | 0.00 | 0.36 | 0.00 | 78 | 1019.7 |
| 20260831231345 | 14 | 144 | 0.0 | 3.2 | 0.00 | 0.36 | 0.00 | 78 | 1019.7 |
| 20260831231316 | 14 | 144 | 1.6 | 3.2 | 0.00 | 0.36 | 0.00 | 78 | 1019.7 |
| 20260831231212 | 14 | 144 | 0.0 | 3.2 | 0.00 | 0.36 | 0.00 | 78 | 1019.7 |
| 20260831231110 | 14 | 144 | 0.0 | 3.2 | 0.00 | 0.36 | 0.00 | 78 | 1019.5 |
| 20260831231007 | 14 | 144 | 0.0 | 3.2 | 0.00 | 0.36 | 0.00 | 79 | 1019.7 |
| 20260831230907 | 14 | 144 | 0.0 | 3.2 | 0.00 | 0.36 | 0.00 | 78 | 1019.5 |
| 20260831230844 | 14 | 144 | 0.0 | 3.2 | 0.00 | 0.36 | 0.00 | 78 | 1019.5 |
| 20260831230808 | 14 | 144 | 0.0 | 3.2 | 0.00 | 0.36 | 0.00 | 78 | 1019.7 |
| 20260831230703 | 14 | 144 | 0.0 | 3.2 | 0.00 | 0.36 | 0.00 | 78 | 1019.5 |
| 20260831230601 | 14 | 144 | 0.0 | 3.2 | 0.00 | 0.36 | 0.00 | 78 | 1019.5 |
| 20260831230502 | 14 | 144 | 0.0 | 3.2 | 0.00 | 0.36 | 0.00 | 78 | 1019.5 |
| 20260831230402 | 14 | 150 | 0.0 | 3.2 | 0.00 | 0.36 | 0.00 | 78 | 1019.5 |
| 20260831230344 | 14 | 150 | 0.0 | 3.2 | 0.00 | 0.36 | 0.00 | 78 | 1019.5 |
| 20260831230302 | 14 | 159 | 0.0 | 3.2 | 0.00 | 0.36 | 0.00 | 78 | 1019.5 |
| 20260831230201 | 14 | 159 | 0.0 | 3.2 | 0.00 | 0.36 | 0.00 | 78 | 1019.5 |
| 20260831230101 | 14 | 159 | 0.0 | 3.2 | 0.00 | 0.36 | 0.00 | 78 | 1019.7 |
| 20260831230002 | 14 | 159 | 0.0 | 3.2 | 0.00 | 0.36 | 0.00 | 78 | 1019.7 |
| 20260831225902 | 14 | 159 | 0.0 | 3.2 | 0.00 | 0.36 | 0.00 | 77 | 1019.7 |
| 20260831225842 | 14 | 159 | 0.0 | 3.2 | 0.00 | 0.36 | 0.00 | 77 | 1019.7 |
| 20260831225801 | 14 | 159 | 0.0 | 3.2 | 0.00 | 0.36 | 0.00 | 77 | 1019.7 |
| 20260831225701 | 14 | 159 | 0.0 | 3.2 | 0.00 | 0.36 | 0.00 | 77 | 1019.7 |
| 20260831225601 | 14 | 159 | 1.6 | 3.2 | 0.00 | 0.36 | 0.00 | 77 | 1019.7 |
| 20260831225501 | 14 | 159 | 1.6 | 3.2 | 0.00 | 0.36 | 0.00 | 77 | 1019.7 |
| 20260831225401 | 14 | 159 | 1.6 | 3.2 | 0.00 | 0.36 | 0.00 | 77 | 1019.7 |
| 20260831225340 | 14 | 159 | 1.6 | 3.2 | 0.00 | 0.36 | 0.00 | 77 | 1019.7 |
| 20260831225301 | 14 | 159 | 0.0 | 3.2 | 0.00 | 0.36 | 0.00 | 77 | 1019.7 |
| 20260831225201 | 14 | 159 | 0.0 | 3.2 | 0.00 | 0.36 | 0.00 | 77 | 1019.7 |
| 20260831225100 | 14 | 160 | 0.0 | 3.2 | 0.00 | 0.36 | 0.00 | 76 | 1019.5 |
| 20260831225001 | 14 | 160 | 0.0 | 3.2 | 0.00 | 0.36 | 0.00 | 76 | 1019.7 |
| 20260831224901 | 14 | 160 | 0.0 | 3.2 | 0.00 | 0.36 | 0.00 | 76 | 1019.7 |
| 20260831224838 | 14 | 159 | 0.0 | 3.2 | 0.00 | 0.36 | 0.00 | 76 | 1019.7 |
| 20260831224801 | 14 | 159 | 0.0 | 3.2 | 0.00 | 0.36 | 0.00 | 76 | 1019.7 |
| 20260831224701 | 15 | 159 | 0.0 | 3.2 | 0.00 | 0.36 | 0.00 | 76 | 1019.7 |
| 20260831224601 | 15 | 159 | 0.0 | 3.2 | 0.00 | 0.36 | 0.00 | 76 | 1019.7 |
| 20260831224501 | 15 | 159 | 0.0 | 3.2 | 0.00 | 0.36 | 0.00 | 76 | 1019.7 |
| 20260831224401 | 15 | 159 | 0.0 | 3.2 | 0.00 | 0.36 | 0.00 | 76 | 1019.7 |
| 20260831224337 | 15 | 160 | 0.0 | 3.2 | 0.00 | 0.36 | 0.00 | 76 | 1019.7 |
| 20260831224300 | 15 | 159 | 0.0 | 3.2 | 0.00 | 0.36 | 0.00 | 76 | 1019.8 |
| 20260831224200 | 15 | 159 | 0.0 | 3.2 | 0.00 | 0.36 | 0.00 | 77 | 1019.7 |
| 20260831224100 | 15 | 159 | 0.0 | 3.2 | 0.00 | 0.36 | 0.00 | 75 | 1019.7 |
| 20260831224000 | 15 | 159 | 0.0 | 3.2 | 0.00 | 0.36 | 0.00 | 76 | 1019.7 |
| 20260831223900 | 15 | 159 | 0.0 | 3.2 | 0.00 | 0.36 | 0.00 | 75 | 1019.8 |
| 20260831223838 | 15 | 159 | 0.0 | 3.2 | 0.00 | 0.36 | 0.00 | 75 | 1019.8 |
| 20260831223801 | 15 | 159 | 0.0 | 3.2 | 0.00 | 0.36 | 0.00 | 74 | 1019.8 |
| 20260831223700 | 15 | 160 | 0.0 | 3.2 | 0.00 | 0.36 | 0.00 | 74 | 1019.8 |
| 20260831223600 | 15 | 160 | 0.0 | 3.2 | 0.00 | 0.36 | 0.00 | 74 | 1019.8 |
| 20260831223500 | 15 | 160 | 0.0 | 3.2 | 0.00 | 0.36 | 0.00 | 73 | 1019.8 |
| 20260831223401 | 15 | 159 | 1.6 | 3.2 | 0.00 | 0.36 | 0.00 | 73 | 1019.8 |
| 20260831223338 | 15 | 159 | 1.6 | 3.2 | 0.00 | 0.36 | 0.00 | 73 | 1019.8 |
| 20260831223301 | 15 | 159 | 1.6 | 3.2 | 0.00 | 0.36 | 0.00 | 73 | 1019.7 |
| 20260831223202 | 15 | 159 | 1.6 | 3.2 | 0.00 | 0.36 | 0.00 | 73 | 1019.7 |
| 20260831223102 | 15 | 160 | 1.6 | 3.2 | 0.00 | 0.36 | 0.00 | 73 | 1019.7 |
| 20260831223055 | 15 | 159 | 1.6 | 3.2 | 0.00 | 0.36 | 0.00 | 73 | 1019.7 |
| 20260831223049 | 15 | 160 | 1.6 | 3.2 | 0.00 | 0.36 | 0.00 | 73 | 1019.7 |
| 20260831223045 | 15 | 160 | 1.6 | 3.2 | 0.00 | 0.36 | 0.00 | 73 | 1019.7 |
| 20260831222801 | 15 | 159 | 1.6 | 3.2 | 0.00 | 0.36 | 0.00 | 73 | 1019.7 |
| 20260831222701 | 15 | 160 | 1.6 | 3.2 | 0.00 | 0.36 | 0.00 | 72 | 1019.7 |
| 20260831222601 | 15 | 160 | 1.6 | 3.2 | 0.00 | 0.36 | 0.00 | 72 | 1019.7 |
| 20260831222501 | 15 | 160 | 1.6 | 3.2 | 0.00 | 0.36 | 0.00 | 72 | 1019.7 |
| 20260831222401 | 15 | 160 | 0.0 | 3.2 | 0.00 | 0.36 | 0.00 | 72 | 1019.7 |
| 20260831222331 | 15 | 160 | 0.0 | 3.2 | 0.00 | 0.36 | 0.00 | 72 | 1019.7 |
| 20260831222300 | 15 | 160 | 0.0 | 3.2 | 0.00 | 0.36 | 0.00 | 72 | 1019.7 |
| 20260831222200 | 15 | 161 | 0.0 | 3.2 | 0.00 | 0.36 | 0.00 | 72 | 1019.7 |
| 20260831222100 | 15 | 172 | 0.0 | 3.2 | 0.00 | 0.36 | 0.00 | 72 | 1019.7 |
| 20260831222000 | 15 | 223 | 0.0 | 3.2 | 0.00 | 0.36 | 0.00 | 72 | 1019.7 |
| 20260831221900 | 15 | 227 | 0.0 | 3.2 | 0.00 | 0.36 | 0.00 | 72 | 1019.7 |
| 20260831221801 | 15 | 227 | 0.0 | 3.2 | 0.00 | 0.36 | 0.00 | 72 | 1019.7 |
| 20260831221701 | 15 | 227 | 0.0 | 3.2 | 0.00 | 0.36 | 0.00 | 71 | 1019.7 |
| 20260831221601 | 15 | 227 | 0.0 | 3.2 | 0.00 | 0.36 | 0.00 | 71 | 1019.7 |
| 20260831221501 | 15 | 227 | 1.6 | 4.8 | 0.00 | 0.36 | 0.00 | 71 | 1019.7 |
| 20260831221401 | 15 | 227 | 1.6 | 6.4 | 0.00 | 0.36 | 0.00 | 71 | 1019.7 |
| 20260831221301 | 15 | 227 | 1.6 | 6.4 | 0.00 | 0.36 | 0.00 | 71 | 1019.7 |
| 20260831221201 | 15 | 227 | 1.6 | 6.4 | 0.00 | 0.36 | 0.00 | 71 | 1019.7 |
| 20260831221101 | 15 | 227 | 1.6 | 6.4 | 0.00 | 0.36 | 0.00 | 70 | 1019.7 |
| 20260831221001 | 15 | 227 | 3.2 | 6.4 | 0.00 | 0.36 | 0.00 | 70 | 1019.7 |
| 20260831220901 | 15 | 227 | 3.2 | 6.4 | 0.00 | 0.36 | 0.00 | 70 | 1019.7 |
| 20260831220831 | 15 | 227 | 3.2 | 6.4 | 0.00 | 0.36 | 0.00 | 70 | 1019.7 |
| 20260831220800 | 15 | 227 | 3.2 | 6.4 | 0.00 | 0.36 | 0.00 | 70 | 1019.7 |
| 20260831220704 | 15 | 227 | 3.2 | 6.4 | 0.00 | 0.36 | 0.00 | 69 | 1019.7 |
| 20260831220600 | 15 | 227 | 3.2 | 6.4 | 0.00 | 0.36 | 0.00 | 68 | 1019.7 |
| 20260831220500 | 15 | 227 | 3.2 | 6.4 | 0.00 | 0.36 | 0.00 | 68 | 1019.7 |
| 20260831220400 | 15 | 227 | 3.2 | 6.4 | 0.00 | 0.36 | 0.00 | 68 | 1019.7 |
| 20260831220330 | 15 | 228 | 3.2 | 6.4 | 0.00 | 0.36 | 0.00 | 68 | 1019.7 |
| 20260831220302 | 15 | 227 | 3.2 | 6.4 | 0.00 | 0.36 | 0.00 | 68 | 1019.7 |
| 20260831220203 | 15 | 230 | 3.2 | 6.4 | 0.00 | 0.36 | 0.00 | 67 | 1019.7 |
| 20260831220101 | 15 | 230 | 3.2 | 6.4 | 0.00 | 0.36 | 0.00 | 67 | 1019.7 |
| 20260831220002 | 15 | 232 | 3.2 | 6.4 | 0.00 | 0.36 | 0.00 | 67 | 1019.7 |
| 20260831215902 | 15 | 236 | 1.6 | 6.4 | 0.00 | 0.36 | 0.36 | 67 | 1019.7 |
| 20260831215829 | 16 | 245 | 1.6 | 4.8 | 0.00 | 0.36 | 0.36 | 67 | 1019.7 |
| 20260831215800 | 15 | 245 | 1.6 | 4.8 | 0.00 | 0.36 | 0.36 | 68 | 1019.7 |
| 20260831215700 | 16 | 246 | 1.6 | 4.8 | 0.00 | 0.36 | 0.36 | 68 | 1019.7 |
| 20260831215601 | 16 | 246 | 1.6 | 4.8 | 0.00 | 0.36 | 0.36 | 67 | 1019.7 |
| 20260831215500 | 16 | 246 | 1.6 | 4.8 | 0.00 | 0.36 | 0.36 | 67 | 1019.7 |
| 20260831215400 | 16 | 245 | 1.6 | 4.8 | 0.00 | 0.36 | 0.36 | 68 | 1019.7 |
| 20260831215328 | 16 | 262 | 1.6 | 4.8 | 0.00 | 0.36 | 0.36 | 68 | 1019.7 |
| 20260831215300 | 16 | 263 | 1.6 | 4.8 | 0.00 | 0.36 | 0.36 | 67 | 1019.7 |
| 20260831215201 | 16 | 266 | 1.6 | 4.8 | 0.00 | 0.36 | 0.36 | 67 | 1019.7 |
| 20260831215100 | 16 | 266 | 1.6 | 4.8 | 0.00 | 0.36 | 0.36 | 67 | 1019.7 |
| 20260831215001 | 16 | 267 | 1.6 | 3.2 | 0.00 | 0.36 | 0.36 | 66 | 1019.7 |
| 20260831214901 | 16 | 267 | 1.6 | 3.2 | 0.00 | 0.36 | 0.36 | 66 | 1019.7 |
| 20260831214801 | 16 | 267 | 1.6 | 3.2 | 0.00 | 0.36 | 0.36 | 66 | 1019.7 |
| 20260831214701 | 16 | 267 | 1.6 | 3.2 | 0.00 | 0.36 | 0.36 | 66 | 1019.7 |
| 20260831214601 | 16 | 267 | 1.6 | 3.2 | 0.00 | 0.36 | 0.36 | 66 | 1019.5 |
| 20260831214501 | 16 | 267 | 1.6 | 3.2 | 0.00 | 0.36 | 0.36 | 66 | 1019.5 |
| 20260831214400 | 16 | 267 | 1.6 | 3.2 | 0.00 | 0.36 | 0.36 | 66 | 1019.5 |
| 20260831214329 | 16 | 267 | 1.6 | 3.2 | 0.00 | 0.36 | 0.36 | 66 | 1019.5 |
| 20260831214300 | 16 | 267 | 1.6 | 3.2 | 0.00 | 0.36 | 0.36 | 66 | 1019.4 |
| 20260831214200 | 16 | 267 | 1.6 | 3.2 | 0.00 | 0.36 | 0.36 | 66 | 1019.5 |
| 20260831214101 | 16 | 267 | 1.6 | 3.2 | 0.00 | 0.36 | 0.36 | 65 | 1019.4 |
| 20260831214000 | 16 | 267 | 1.6 | 3.2 | 0.00 | 0.36 | 0.36 | 66 | 1019.4 |
| 20260831213900 | 16 | 267 | 1.6 | 3.2 | 0.00 | 0.36 | 0.36 | 65 | 1019.4 |
| 20260831213800 | 16 | 267 | 1.6 | 3.2 | 0.00 | 0.36 | 0.36 | 65 | 1019.4 |
| 20260831213700 | 16 | 267 | 1.6 | 3.2 | 0.00 | 0.36 | 0.36 | 65 | 1019.4 |
| 20260831213600 | 16 | 267 | 1.6 | 3.2 | 0.00 | 0.36 | 0.36 | 65 | 1019.4 |
| 20260831213500 | 16 | 267 | 1.6 | 4.8 | 0.00 | 0.36 | 0.36 | 65 | 1019.4 |
| 20260831213401 | 16 | 267 | 1.6 | 4.8 | 0.00 | 0.36 | 0.36 | 64 | 1019.4 |
| 20260831213329 | 16 | 267 | 1.6 | 4.8 | 0.00 | 0.36 | 0.36 | 64 | 1019.4 |
| 20260831213301 | 16 | 267 | 3.2 | 6.4 | 0.00 | 0.36 | 0.36 | 64 | 1019.4 |
| 20260831213201 | 16 | 267 | 3.2 | 6.4 | 0.00 | 0.36 | 0.36 | 64 | 1019.4 |
| 20260831213101 | 16 | 267 | 3.2 | 6.4 | 0.00 | 0.36 | 0.36 | 64 | 1019.4 |
| 20260831213053 | 16 | 267 | 3.2 | 9.7 | 0.00 | 0.36 | 0.36 | 64 | 1019.4 |
| 20260831213046 | 16 | 267 | 3.2 | 8.0 | 0.00 | 0.36 | 0.36 | 64 | 1019.4 |
| 20260831213041 | 16 | 267 | 3.2 | 8.0 | 0.00 | 0.36 | 0.36 | 64 | 1019.4 |
| 20260831212801 | 16 | 267 | 3.2 | 9.7 | 0.00 | 0.36 | 0.36 | 64 | 1019.5 |
| 20260831212701 | 16 | 267 | 4.8 | 9.7 | 0.00 | 0.36 | 0.36 | 64 | 1019.5 |
| 20260831212601 | 16 | 267 | 4.8 | 9.7 | 0.00 | 0.36 | 0.36 | 63 | 1019.5 |
| 20260831212500 | 16 | 267 | 4.8 | 9.7 | 0.00 | 0.36 | 0.36 | 63 | 1019.5 |
| 20260831212401 | 17 | 267 | 4.8 | 9.7 | 0.00 | 0.36 | 0.36 | 63 | 1019.5 |
| 20260831212301 | 17 | 267 | 4.8 | 9.7 | 0.00 | 0.36 | 0.36 | 63 | 1019.5 |
| 20260831212201 | 17 | 256 | 4.8 | 9.7 | 0.00 | 0.36 | 0.36 | 63 | 1019.4 |
| 20260831212101 | 17 | 250 | 4.8 | 11.3 | 0.00 | 0.36 | 0.36 | 63 | 1019.5 |
| 20260831212001 | 17 | 246 | 6.4 | 11.3 | 0.00 | 0.36 | 0.36 | 62 | 1019.5 |
| 20260831211901 | 17 | 260 | 6.4 | 12.9 | 0.00 | 0.36 | 0.36 | 63 | 1019.5 |
| 20260831211829 | 17 | 249 | 6.4 | 12.9 | 0.00 | 0.36 | 0.36 | 63 | 1019.5 |
| 20260831211801 | 17 | 249 | 6.4 | 12.9 | 0.00 | 0.36 | 0.36 | 62 | 1019.5 |
| 20260831211700 | 17 | 268 | 6.4 | 12.9 | 0.00 | 0.36 | 0.36 | 62 | 1019.4 |
| 20260831211601 | 17 | 271 | 6.4 | 12.9 | 0.00 | 0.36 | 0.36 | 62 | 1019.4 |
| 20260831211501 | 17 | 252 | 8.0 | 12.9 | 0.00 | 0.36 | 0.36 | 62 | 1019.4 |
| 20260831211401 | 17 | 238 | 8.0 | 12.9 | 0.00 | 0.36 | 0.36 | 62 | 1019.4 |
| 20260831211328 | 17 | 278 | 8.0 | 12.9 | 0.00 | 0.36 | 0.36 | 62 | 1019.4 |
| 20260831211300 | 17 | 259 | 8.0 | 12.9 | 0.00 | 0.36 | 0.36 | 62 | 1019.4 |
| 20260831211201 | 17 | 250 | 8.0 | 12.9 | 0.00 | 0.36 | 0.36 | 61 | 1019.4 |
| 20260831211100 | 17 | 248 | 8.0 | 12.9 | 0.00 | 0.36 | 0.36 | 61 | 1019.4 |
| 20260831211049 | 17 | 257 | 9.7 | 12.9 | 0.00 | 0.36 | 0.36 | 61 | 1019.4 |
| 20260831211045 | 17 | 261 | 8.0 | 12.9 | 0.00 | 0.36 | 0.36 | 61 | 1019.4 |
| 20260831211041 | 17 | 243 | 9.7 | 12.9 | 0.00 | 0.36 | 0.36 | 61 | 1019.4 |
| 20260831210755 | 17 | 257 | 9.7 | 12.9 | 0.00 | 0.36 | 0.36 | 61 | 1019.5 |
| 20260831210655 | 17 | 248 | 9.7 | 14.5 | 0.00 | 0.36 | 0.36 | 61 | 1019.4 |
| 20260831210554 | 17 | 250 | 9.7 | 14.5 | 0.00 | 0.36 | 0.36 | 61 | 1019.4 |
| 20260831210453 | 17 | 266 | 8.0 | 14.5 | 0.00 | 0.36 | 0.36 | 61 | 1019.4 |
| 20260831210350 | 17 | 272 | 8.0 | 14.5 | 0.00 | 0.36 | 0.36 | 61 | 1019.4 |
| 20260831210328 | 17 | 276 | 8.0 | 14.5 | 0.00 | 0.36 | 0.36 | 61 | 1019.4 |
| 20260831210246 | 17 | 300 | 8.0 | 14.5 | 0.00 | 0.36 | 0.36 | 61 | 1019.3 |
| 20260831210146 | 17 | 271 | 8.0 | 14.5 | 0.00 | 0.36 | 0.36 | 61 | 1019.3 |
| 20260831210046 | 17 | 245 | 8.0 | 14.5 | 0.00 | 0.36 | 0.36 | 61 | 1019.3 |
| 20260831205946 | 17 | 274 | 8.0 | 14.5 | 0.00 | 0.36 | 0.36 | 61 | 1019.3 |
| 20260831205843 | 17 | 263 | 8.0 | 14.5 | 0.00 | 0.36 | 0.36 | 61 | 1019.3 |
| 20260831205829 | 17 | 252 | 8.0 | 14.5 | 0.00 | 0.36 | 0.36 | 61 | 1019.3 |
| 20260831205739 | 17 | 235 | 8.0 | 14.5 | 0.00 | 0.36 | 0.36 | 61 | 1019.3 |
| 20260831205639 | 17 | 261 | 8.0 | 14.5 | 0.00 | 0.36 | 0.36 | 61 | 1019.3 |
| 20260831205539 | 17 | 253 | 8.0 | 14.5 | 0.00 | 0.36 | 0.36 | 61 | 1019.3 |
| 20260831205439 | 17 | 260 | 9.7 | 14.5 | 0.00 | 0.36 | 0.36 | 61 | 1019.3 |
| 20260831205329 | 17 | 259 | 8.0 | 14.5 | 0.00 | 0.36 | 0.36 | 61 | 1019.3 |
| 20260831205319 | 17 | 277 | 8.0 | 14.5 | 0.00 | 0.36 | 0.36 | 61 | 1019.4 |
| 20260831205315 | 17 | 238 | 8.0 | 14.5 | 0.00 | 0.36 | 0.36 | 61 | 1019.3 |
| 20260831205310 | 17 | 257 | 9.7 | 14.5 | 0.00 | 0.36 | 0.36 | 61 | 1019.3 |
| 20260831205049 | 17 | 276 | 9.7 | 14.5 | 0.00 | 0.36 | 0.36 | 61 | 1019.3 |
| 20260831205045 | 17 | 283 | 9.7 | 14.5 | 0.00 | 0.36 | 0.36 | 61 | 1019.3 |
| 20260831205041 | 17 | 229 | 8.0 | 14.5 | 0.00 | 0.36 | 0.36 | 61 | 1019.4 |
| 20260831204732 | 17 | 279 | 8.0 | 14.5 | 0.00 | 0.36 | 0.36 | 61 | 1019.4 |
| 20260831204632 | 17 | 257 | 8.0 | 14.5 | 0.00 | 0.36 | 0.36 | 61 | 1019.4 |
| 20260831204530 | 17 | 295 | 8.0 | 14.5 | 0.00 | 0.36 | 0.36 | 61 | 1019.4 |
| 20260831204430 | 17 | 227 | 8.0 | 14.5 | 0.00 | 0.36 | 0.36 | 61 | 1019.3 |
| 20260831204328 | 17 | 267 | 8.0 | 16.1 | 0.00 | 0.36 | 0.36 | 61 | 1019.3 |
| 20260831204320 | 17 | 262 | 8.0 | 16.1 | 0.00 | 0.36 | 0.36 | 61 | 1019.3 |
| 20260831204316 | 17 | 277 | 8.0 | 16.1 | 0.00 | 0.36 | 0.36 | 61 | 1019.3 |
| 20260831204312 | 17 | 277 | 8.0 | 16.1 | 0.00 | 0.36 | 0.36 | 61 | 1019.4 |
| 20260831204047 | 17 | 327 | 8.0 | 16.1 | 0.00 | 0.36 | 0.36 | 62 | 1019.4 |
| 20260831204043 | 17 | 256 | 8.0 | 16.1 | 0.00 | 0.36 | 0.36 | 61 | 1019.3 |
| 20260831204038 | 17 | 258 | 8.0 | 16.1 | 0.00 | 0.36 | 0.36 | 61 | 1019.3 |
| 20260831203730 | 17 | 263 | 8.0 | 16.1 | 0.00 | 0.36 | 0.36 | 61 | 1019.3 |
| 20260831203629 | 17 | 244 | 6.4 | 16.1 | 0.00 | 0.36 | 0.36 | 61 | 1019.3 |
| 20260831203529 | 17 | 265 | 6.4 | 16.1 | 0.00 | 0.36 | 0.36 | 61 | 1019.3 |
| 20260831203429 | 17 | 267 | 6.4 | 16.1 | 0.00 | 0.36 | 0.36 | 61 | 1019.3 |
| 20260831203329 | 17 | 277 | 6.4 | 16.1 | 0.00 | 0.36 | 0.36 | 61 | 1019.3 |
| 20260831203229 | 17 | 267 | 6.4 | 16.1 | 0.00 | 0.36 | 0.36 | 61 | 1019.3 |
| 20260831203129 | 17 | 271 | 6.4 | 16.1 | 0.00 | 0.36 | 0.36 | 61 | 1019.3 |
| 20260831203029 | 17 | 255 | 6.4 | 16.1 | 0.00 | 0.36 | 0.36 | 61 | 1019.3 |
| 20260831202931 | 18 | 302 | 8.0 | 14.5 | 0.00 | 0.36 | 0.36 | 61 | 1019.1 |
| 20260831202829 | 18 | 275 | 8.0 | 14.5 | 0.00 | 0.36 | 0.36 | 61 | 1019.2 |
| 20260831202729 | 18 | 263 | 8.0 | 14.5 | 0.00 | 0.36 | 0.36 | 61 | 1019.1 |
| 20260831202629 | 18 | 292 | 8.0 | 14.5 | 0.00 | 0.36 | 0.36 | 61 | 1019.1 |
| 20260831202529 | 18 | 281 | 8.0 | 14.5 | 0.00 | 0.36 | 0.36 | 61 | 1019.2 |
| 20260831202429 | 18 | 286 | 8.0 | 14.5 | 0.00 | 0.36 | 0.36 | 61 | 1019.1 |
| 20260831202329 | 18 | 287 | 8.0 | 16.1 | 0.00 | 0.36 | 0.36 | 61 | 1019.1 |
| 20260831202230 | 18 | 270 | 8.0 | 16.1 | 0.00 | 0.36 | 0.36 | 60 | 1019.0 |
| 20260831202129 | 18 | 269 | 8.0 | 16.1 | 0.00 | 0.36 | 0.36 | 60 | 1019.0 |
| 20260831202048 | 18 | 266 | 8.0 | 16.1 | 0.00 | 0.36 | 0.36 | 60 | 1019.0 |
| 20260831202044 | 18 | 275 | 8.0 | 16.1 | 0.00 | 0.36 | 0.36 | 61 | 1019.0 |
| 20260831202040 | 18 | 267 | 8.0 | 16.1 | 0.00 | 0.36 | 0.36 | 61 | 1019.0 |
| 20260831201729 | 18 | 287 | 8.0 | 16.1 | 0.00 | 0.36 | 0.36 | 60 | 1018.9 |
| 20260831201629 | 18 | 283 | 6.4 | 16.1 | 0.00 | 0.36 | 0.36 | 60 | 1018.9 |
| 20260831201528 | 18 | 266 | 6.4 | 16.1 | 0.00 | 0.36 | 0.36 | 60 | 1018.9 |
| 20260831201428 | 18 | 284 | 6.4 | 16.1 | 0.00 | 0.36 | 0.36 | 60 | 1018.9 |
| 20260831201329 | 18 | 282 | 6.4 | 14.5 | 0.00 | 0.36 | 0.36 | 60 | 1018.9 |
| 20260831201228 | 18 | 281 | 6.4 | 14.5 | 0.00 | 0.36 | 0.36 | 61 | 1018.8 |
| 20260831201128 | 18 | 296 | 6.4 | 14.5 | 0.00 | 0.36 | 0.36 | 60 | 1018.8 |
| 20260831201025 | 18 | 297 | 6.4 | 14.5 | 0.00 | 0.36 | 0.36 | 60 | 1018.8 |
| 20260831200924 | 18 | 264 | 6.4 | 14.5 | 0.00 | 0.36 | 0.36 | 60 | 1018.8 |
| 20260831200829 | 18 | 293 | 6.4 | 14.5 | 0.00 | 0.36 | 0.36 | 60 | 1018.8 |
| 20260831200819 | 18 | 288 | 6.4 | 14.5 | 0.00 | 0.36 | 0.36 | 60 | 1018.8 |
| 20260831200718 | 18 | 275 | 6.4 | 14.5 | 0.00 | 0.36 | 0.36 | 60 | 1018.7 |
| 20260831200618 | 18 | 257 | 6.4 | 16.1 | 0.00 | 0.36 | 0.36 | 60 | 1018.7 |
| 20260831200519 | 18 | 286 | 8.0 | 16.1 | 0.00 | 0.36 | 0.36 | 60 | 1018.7 |
| 20260831200418 | 18 | 257 | 6.4 | 16.1 | 0.00 | 0.36 | 0.36 | 60 | 1018.7 |
| 20260831200330 | 18 | 252 | 6.4 | 16.1 | 0.00 | 0.36 | 0.36 | 60 | 1018.7 |
| 20260831200316 | 18 | 250 | 6.4 | 16.1 | 0.00 | 0.36 | 0.36 | 60 | 1018.6 |
| 20260831200216 | 18 | 271 | 8.0 | 16.1 | 0.00 | 0.36 | 0.36 | 60 | 1018.6 |
| 20260831200116 | 18 | 290 | 8.0 | 16.1 | 0.00 | 0.36 | 0.36 | 60 | 1018.7 |
| 20260831200052 | 18 | 269 | 8.0 | 17.7 | 0.00 | 0.36 | 0.36 | 59 | 1018.6 |
| 20260831200044 | 18 | 257 | 8.0 | 17.7 | 0.00 | 0.36 | 0.36 | 60 | 1018.6 |
| 20260831200040 | 18 | 252 | 8.0 | 17.7 | 0.00 | 0.36 | 0.36 | 59 | 1018.6 |
| 20260831195812 | 18 | 269 | 8.0 | 17.7 | 0.00 | 0.36 | 0.36 | 59 | 1018.6 |
| 20260831195712 | 18 | 268 | 8.0 | 17.7 | 0.00 | 0.36 | 0.36 | 59 | 1018.5 |
| 20260831195612 | 18 | 280 | 8.0 | 17.7 | 0.00 | 0.36 | 0.36 | 59 | 1018.5 |
| 20260831195512 | 18 | 250 | 8.0 | 17.7 | 0.00 | 0.36 | 0.36 | 59 | 1018.5 |
| 20260831195438 | 18 | 252 | 8.0 | 17.7 | 0.00 | 0.36 | 0.36 | 59 | 1018.5 |
| 20260831195434 | 18 | 268 | 8.0 | 17.7 | 0.00 | 0.36 | 0.36 | 59 | 1018.5 |
| 20260831195322 | 18 | 271 | 8.0 | 17.7 | 0.00 | 0.36 | 0.36 | 59 | 1018.4 |
| 20260831195208 | 18 | 253 | 8.0 | 17.7 | 0.00 | 0.36 | 0.36 | 59 | 1018.4 |
| 20260831195108 | 18 | 263 | 8.0 | 17.7 | 0.00 | 0.36 | 0.36 | 59 | 1018.4 |
| 20260831195053 | 18 | 261 | 8.0 | 14.5 | 0.00 | 0.36 | 0.36 | 59 | 1018.3 |
| 20260831195044 | 18 | 257 | 8.0 | 12.9 | 0.00 | 0.36 | 0.36 | 59 | 1018.4 |
| 20260831195040 | 18 | 302 | 8.0 | 14.5 | 0.00 | 0.36 | 0.36 | 59 | 1018.3 |
| 20260831194804 | 18 | 251 | 8.0 | 14.5 | 0.00 | 0.36 | 0.36 | 59 | 1018.3 |
| 20260831194704 | 18 | 261 | 8.0 | 14.5 | 0.00 | 0.36 | 0.36 | 60 | 1018.3 |
| 20260831194602 | 18 | 263 | 8.0 | 14.5 | 0.00 | 0.36 | 0.36 | 60 | 1018.3 |
| 20260831194502 | 18 | 251 | 8.0 | 14.5 | 0.00 | 0.36 | 0.36 | 60 | 1018.3 |
| 20260831194403 | 18 | 284 | 8.0 | 14.5 | 0.00 | 0.36 | 0.36 | 60 | 1018.2 |
| 20260831194329 | 18 | 277 | 8.0 | 14.5 | 0.00 | 0.36 | 0.36 | 60 | 1018.2 |
| 20260831194302 | 18 | 246 | 8.0 | 14.5 | 0.00 | 0.36 | 0.36 | 60 | 1018.3 |
| 20260831194202 | 18 | 252 | 8.0 | 14.5 | 0.00 | 0.36 | 0.36 | 60 | 1018.3 |
| 20260831194102 | 18 | 283 | 8.0 | 14.5 | 0.00 | 0.36 | 0.36 | 60 | 1018.3 |
| 20260831194002 | 18 | 259 | 6.4 | 14.5 | 0.00 | 0.36 | 0.36 | 60 | 1018.3 |
| 20260831193901 | 18 | 272 | 6.4 | 14.5 | 0.00 | 0.36 | 0.36 | 60 | 1018.3 |
| 20260831193830 | 18 | 265 | 6.4 | 14.5 | 0.00 | 0.36 | 0.36 | 60 | 1018.3 |
| 20260831193801 | 18 | 248 | 6.4 | 14.5 | 0.00 | 0.36 | 0.36 | 60 | 1018.3 |
| 20260831193701 | 18 | 271 | 6.4 | 14.5 | 0.00 | 0.36 | 0.36 | 61 | 1018.3 |
| 20260831193603 | 18 | 246 | 4.8 | 14.5 | 0.00 | 0.36 | 0.36 | 61 | 1018.3 |
| 20260831193501 | 18 | 263 | 4.8 | 14.5 | 0.00 | 0.36 | 0.36 | 61 | 1018.3 |
| 20260831193401 | 18 | 270 | 4.8 | 11.3 | 0.00 | 0.36 | 0.36 | 61 | 1018.3 |
| 20260831193329 | 18 | 259 | 4.8 | 9.7 | 0.00 | 0.36 | 0.36 | 61 | 1018.3 |
| 20260831193301 | 18 | 258 | 4.8 | 9.7 | 0.00 | 0.36 | 0.36 | 61 | 1018.2 |
| 20260831193203 | 18 | 295 | 4.8 | 9.7 | 0.00 | 0.36 | 0.36 | 62 | 1018.3 |
| 20260831193101 | 18 | 254 | 4.8 | 9.7 | 0.00 | 0.36 | 0.36 | 62 | 1018.2 |
| 20260831193026 | 18 | 291 | 3.2 | 6.4 | 0.00 | 0.36 | 0.36 | 63 | 1018.2 |
| 20260831193022 | 18 | 267 | 3.2 | 4.8 | 0.00 | 0.36 | 0.36 | 61 | 1018.0 |
| 20260831193017 | 18 | 288 | 4.8 | 8.0 | 0.00 | 0.36 | 0.36 | 63 | 1018.2 |
| 20260831193013 | 18 | 269 | 4.8 | 8.0 | 0.00 | 0.36 | 0.36 | 63 | 1018.2 |
| 20260831193009 | 18 | 264 | 4.8 | 8.0 | 0.00 | 0.36 | 0.36 | 63 | 1018.2 |
| 20260831193005 | 18 | 264 | 3.2 | 8.0 | 0.00 | 0.36 | 0.36 | 63 | 1018.2 |
| 20260831192750 | 18 | 273 | 3.2 | 8.0 | 0.00 | 0.36 | 0.36 | 63 | 1018.2 |
| 20260831192746 | 18 | 287 | 3.2 | 8.0 | 0.00 | 0.36 | 0.36 | 63 | 1018.2 |
| 20260831192738 | 18 | 280 | 3.2 | 6.4 | 0.00 | 0.36 | 0.36 | 62 | 1018.1 |
| 20260831192734 | 18 | 280 | 3.2 | 6.4 | 0.00 | 0.36 | 0.36 | 62 | 1018.1 |
| 20260831192305 | 18 | 291 | 3.2 | 6.4 | 0.00 | 0.36 | 0.36 | 63 | 1018.2 |
| 20260831192259 | 18 | 286 | 3.2 | 6.4 | 0.00 | 0.36 | 0.36 | 62 | 1018.1 |
| 20260831192255 | 18 | 286 | 3.2 | 6.4 | 0.00 | 0.36 | 0.36 | 62 | 1018.1 |
| 20260831192247 | 18 | 286 | 3.2 | 4.8 | 0.00 | 0.36 | 0.36 | 62 | 1018.0 |
| 20260831192243 | 18 | 286 | 3.2 | 4.8 | 0.00 | 0.36 | 0.36 | 62 | 1018.0 |
| 20260831191812 | 18 | 286 | 3.2 | 4.8 | 0.00 | 0.36 | 0.36 | 62 | 1018.0 |
| 20260831191808 | 18 | 286 | 3.2 | 4.8 | 0.00 | 0.36 | 0.36 | 61 | 1018.0 |
| 20260831191804 | 18 | 267 | 3.2 | 4.8 | 0.00 | 0.36 | 0.36 | 61 | 1018.0 |
| 20260831191543 | 18 | 267 | 3.2 | 4.8 | 0.00 | 0.36 | 0.36 | 61 | 1018.0 |
| 20260831191539 | 18 | 267 | 3.2 | 4.8 | 0.00 | 0.36 | 0.36 | 61 | 1018.0 |
| 20260831191258 | 18 | 267 | 3.2 | 4.8 | 0.00 | 0.36 | 0.36 | 61 | 1017.9 |
| 20260831191158 | 18 | 267 | 3.2 | 4.8 | 0.00 | 0.36 | 0.36 | 60 | 1017.9 |
| 20260831191056 | 19 | 267 | 3.2 | 4.8 | 0.00 | 0.36 | 0.36 | 60 | 1017.9 |
| 20260831190954 | 19 | 267 | 3.2 | 4.8 | 0.00 | 0.36 | 0.36 | 60 | 1017.9 |
| 20260831190830 | 19 | 267 | 3.2 | 4.8 | 0.00 | 0.36 | 0.36 | 60 | 1017.9 |
| 20260831190748 | 19 | 267 | 3.2 | 4.8 | 0.00 | 0.36 | 0.36 | 60 | 1017.9 |
| 20260831190648 | 19 | 253 | 3.2 | 4.8 | 0.00 | 0.36 | 0.36 | 60 | 1017.8 |
| 20260831190559 | 19 | 253 | 3.2 | 4.8 | 0.00 | 0.36 | 0.36 | 60 | 1017.8 |
| 20260831190545 | 19 | 253 | 3.2 | 8.0 | 0.00 | 0.36 | 0.36 | 60 | 1017.8 |
| 20260831190541 | 19 | 253 | 3.2 | 8.0 | 0.00 | 0.36 | 0.36 | 59 | 1017.6 |
| 20260831190247 | 19 | 253 | 3.2 | 8.0 | 0.00 | 0.36 | 0.36 | 59 | 1017.6 |
| 20260831190146 | 19 | 253 | 3.2 | 9.7 | 0.00 | 0.36 | 0.36 | 60 | 1017.6 |
| 20260831190044 | 19 | 253 | 4.8 | 9.7 | 0.00 | 0.36 | 0.36 | 59 | 1017.6 |
| 20260831185941 | 19 | 253 | 4.8 | 9.7 | 0.00 | 0.36 | 0.36 | 59 | 1017.6 |
| 20260831185830 | 19 | 252 | 4.8 | 9.7 | 0.00 | 0.36 | 0.36 | 58 | 1017.5 |
| 20260831185736 | 19 | 253 | 4.8 | 9.7 | 0.00 | 0.36 | 0.36 | 58 | 1017.5 |
| 20260831185636 | 19 | 253 | 4.8 | 11.3 | 0.00 | 0.36 | 0.36 | 58 | 1017.5 |
| 20260831185536 | 19 | 252 | 4.8 | 11.3 | 0.00 | 0.36 | 0.36 | 58 | 1017.6 |
| 20260831185436 | 19 | 250 | 4.8 | 11.3 | 0.00 | 0.36 | 0.36 | 58 | 1017.5 |
| 20260831185343 | 19 | 248 | 6.4 | 11.3 | 0.00 | 0.36 | 0.36 | 57 | 1017.4 |
| 20260831185328 | 19 | 266 | 6.4 | 11.3 | 0.00 | 0.36 | 0.36 | 57 | 1017.4 |
| 20260831185234 | 19 | 267 | 6.4 | 11.3 | 0.00 | 0.36 | 0.36 | 58 | 1017.5 |
| 20260831185132 | 19 | 266 | 6.4 | 11.3 | 0.00 | 0.36 | 0.36 | 58 | 1017.5 |
| 20260831185052 | 20 | 248 | 6.4 | 11.3 | 0.00 | 0.36 | 0.36 | 58 | 1017.4 |
| 20260831185044 | 20 | 269 | 4.8 | 11.3 | 0.00 | 0.36 | 0.36 | 57 | 1017.4 |
| 20260831185040 | 20 | 273 | 6.4 | 11.3 | 0.00 | 0.36 | 0.36 | 57 | 1017.4 |
| 20260831184732 | 20 | 251 | 6.4 | 11.3 | 0.00 | 0.36 | 0.36 | 57 | 1017.4 |
| 20260831184632 | 20 | 252 | 6.4 | 9.7 | 0.00 | 0.36 | 0.36 | 57 | 1017.3 |
| 20260831184532 | 20 | 250 | 4.8 | 9.7 | 0.00 | 0.36 | 0.36 | 57 | 1017.3 |
| 20260831184432 | 20 | 263 | 4.8 | 11.3 | 0.00 | 0.36 | 0.36 | 57 | 1017.3 |
| 20260831184329 | 20 | 270 | 4.8 | 11.3 | 0.00 | 0.36 | 0.36 | 57 | 1017.2 |
| 20260831184231 | 20 | 273 | 4.8 | 11.3 | 0.00 | 0.36 | 0.36 | 57 | 1017.2 |
| 20260831184130 | 20 | 253 | 4.8 | 11.3 | 0.00 | 0.36 | 0.36 | 56 | 1017.2 |
| 20260831184029 | 20 | 261 | 4.8 | 11.3 | 0.00 | 0.36 | 0.36 | 57 | 1017.2 |
| 20260831183929 | 20 | 271 | 6.4 | 12.9 | 0.00 | 0.36 | 0.36 | 57 | 1017.1 |
| 20260831183830 | 20 | 259 | 6.4 | 12.9 | 0.00 | 0.36 | 0.36 | 56 | 1017.1 |
| 20260831183730 | 20 | 265 | 6.4 | 12.9 | 0.00 | 0.36 | 0.36 | 56 | 1017.0 |
| 20260831183630 | 20 | 246 | 6.4 | 12.9 | 0.00 | 0.36 | 0.36 | 56 | 1017.0 |
| 20260831183529 | 20 | 242 | 6.4 | 12.9 | 0.00 | 0.36 | 0.36 | 56 | 1017.0 |
| 20260831183429 | 20 | 265 | 8.0 | 12.9 | 0.00 | 0.36 | 0.36 | 56 | 1017.0 |
| 20260831183329 | 20 | 274 | 8.0 | 12.9 | 0.00 | 0.36 | 0.36 | 56 | 1017.0 |
| 20260831183229 | 20 | 267 | 8.0 | 12.9 | 0.00 | 0.36 | 0.36 | 56 | 1016.9 |
| 20260831183129 | 20 | 276 | 8.0 | 12.9 | 0.00 | 0.36 | 0.36 | 56 | 1016.9 |
| 20260831183029 | 20 | 246 | 8.0 | 14.5 | 0.00 | 0.36 | 0.36 | 56 | 1016.8 |
| 20260831182929 | 20 | 263 | 8.0 | 14.5 | 0.00 | 0.36 | 0.36 | 56 | 1016.8 |
| 20260831182829 | 20 | 269 | 8.0 | 14.5 | 0.00 | 0.36 | 0.36 | 56 | 1016.8 |
| 20260831182729 | 20 | 260 | 8.0 | 14.5 | 0.00 | 0.36 | 0.36 | 56 | 1016.8 |
| 20260831182630 | 20 | 251 | 8.0 | 14.5 | 0.00 | 0.36 | 0.36 | 56 | 1016.8 |
| 20260831182529 | 20 | 288 | 8.0 | 14.5 | 0.00 | 0.36 | 0.36 | 56 | 1016.7 |
| 20260831182429 | 20 | 250 | 8.0 | 14.5 | 0.00 | 0.36 | 0.36 | 56 | 1016.8 |
| 20260831182330 | 20 | 261 | 8.0 | 14.5 | 0.00 | 0.36 | 0.36 | 55 | 1016.7 |
| 20260831182229 | 20 | 231 | 8.0 | 14.5 | 0.00 | 0.36 | 0.36 | 55 | 1016.7 |
| 20260831182129 | 20 | 246 | 8.0 | 14.5 | 0.00 | 0.36 | 0.36 | 55 | 1016.7 |
| 20260831182029 | 20 | 273 | 8.0 | 14.5 | 0.00 | 0.36 | 0.36 | 55 | 1016.7 |
| 20260831181929 | 20 | 278 | 8.0 | 12.9 | 0.00 | 0.36 | 0.36 | 55 | 1016.7 |
| 20260831181829 | 20 | 250 | 6.4 | 12.9 | 0.00 | 0.36 | 0.36 | 55 | 1016.6 |
| 20260831181729 | 20 | 247 | 6.4 | 12.9 | 0.00 | 0.36 | 0.36 | 55 | 1016.7 |
| 20260831181629 | 20 | 256 | 6.4 | 12.9 | 0.00 | 0.36 | 0.36 | 55 | 1016.6 |
| 20260831181528 | 20 | 254 | 6.4 | 12.9 | 0.00 | 0.36 | 0.36 | 54 | 1016.6 |
| 20260831181425 | 20 | 243 | 6.4 | 12.9 | 0.00 | 0.36 | 0.36 | 54 | 1016.6 |
| 20260831181328 | 20 | 244 | 6.4 | 12.9 | 0.00 | 0.36 | 0.36 | 54 | 1016.6 |
| 20260831181324 | 20 | 248 | 6.4 | 12.9 | 0.00 | 0.36 | 0.36 | 54 | 1016.6 |
| 20260831181224 | 20 | 262 | 6.4 | 12.9 | 0.00 | 0.36 | 0.36 | 54 | 1016.6 |
| 20260831181124 | 20 | 254 | 6.4 | 12.9 | 0.00 | 0.36 | 0.36 | 54 | 1016.6 |
| 20260831181024 | 20 | 264 | 8.0 | 12.9 | 0.00 | 0.36 | 0.36 | 54 | 1016.6 |
| 20260831180920 | 20 | 246 | 8.0 | 11.3 | 0.00 | 0.36 | 0.36 | 54 | 1016.5 |
| 20260831180829 | 20 | 263 | 8.0 | 12.9 | 0.00 | 0.36 | 0.36 | 54 | 1016.5 |
| 20260831180818 | 20 | 264 | 8.0 | 12.9 | 0.00 | 0.36 | 0.36 | 54 | 1016.5 |
| 20260831180718 | 21 | 256 | 8.0 | 12.9 | 0.00 | 0.36 | 0.36 | 54 | 1016.5 |
| 20260831180618 | 21 | 272 | 8.0 | 12.9 | 0.00 | 0.36 | 0.36 | 54 | 1016.5 |
| 20260831180555 | 21 | 259 | 8.0 | 14.5 | 0.00 | 0.36 | 0.36 | 53 | 1016.5 |
| 20260831180550 | 21 | 259 | 8.0 | 12.9 | 0.00 | 0.36 | 0.36 | 54 | 1016.5 |
| 20260831180543 | 21 | 259 | 8.0 | 12.9 | 0.00 | 0.36 | 0.36 | 53 | 1016.5 |
| 20260831180314 | 21 | 256 | 8.0 | 14.5 | 0.00 | 0.36 | 0.36 | 53 | 1016.5 |
| 20260831180213 | 21 | 298 | 9.7 | 14.5 | 0.00 | 0.36 | 0.36 | 53 | 1016.4 |
| 20260831180114 | 21 | 248 | 9.7 | 14.5 | 0.00 | 0.36 | 0.36 | 53 | 1016.5 |
| 20260831180053 | 21 | 244 | 9.7 | 19.3 | 0.00 | 0.36 | 0.36 | 52 | 1016.4 |
| 20260831180048 | 21 | 286 | 9.7 | 14.5 | 0.00 | 0.36 | 0.36 | 52 | 1016.4 |
| 20260831180039 | 21 | 257 | 9.7 | 14.5 | 0.00 | 0.36 | 0.36 | 52 | 1016.4 |
| 20260831175810 | 21 | 270 | 9.7 | 19.3 | 0.00 | 0.36 | 0.36 | 52 | 1016.4 |
| 20260831175710 | 21 | 261 | 11.3 | 19.3 | 0.00 | 0.36 | 0.36 | 52 | 1016.4 |
| 20260831175608 | 21 | 273 | 11.3 | 19.3 | 0.00 | 0.36 | 0.36 | 52 | 1016.4 |
| 20260831175506 | 21 | 268 | 11.3 | 19.3 | 0.00 | 0.36 | 0.36 | 52 | 1016.4 |
| 20260831175402 | 21 | 244 | 11.3 | 19.3 | 0.00 | 0.36 | 0.36 | 52 | 1016.4 |
| 20260831175324 | 21 | 245 | 11.3 | 19.3 | 0.00 | 0.36 | 0.36 | 52 | 1016.4 |
| 20260831175302 | 21 | 273 | 11.3 | 19.3 | 0.00 | 0.36 | 0.36 | 52 | 1016.4 |
| 20260831175201 | 21 | 265 | 11.3 | 19.3 | 0.00 | 0.36 | 0.36 | 52 | 1016.4 |
| 20260831175101 | 21 | 244 | 11.3 | 19.3 | 0.00 | 0.36 | 0.36 | 52 | 1016.3 |
| 20260831175003 | 21 | 274 | 11.3 | 19.3 | 0.00 | 0.36 | 0.36 | 52 | 1016.3 |
| 20260831174902 | 21 | 260 | 11.3 | 19.3 | 0.00 | 0.36 | 0.36 | 51 | 1016.3 |
| 20260831174817 | 21 | 265 | 11.3 | 19.3 | 0.00 | 0.36 | 0.36 | 51 | 1016.3 |
| 20260831174802 | 21 | 261 | 11.3 | 19.3 | 0.00 | 0.36 | 0.36 | 51 | 1016.3 |
| 20260831174702 | 21 | 238 | 11.3 | 19.3 | 0.00 | 0.36 | 0.36 | 51 | 1016.3 |
| 20260831174602 | 21 | 257 | 11.3 | 19.3 | 0.00 | 0.36 | 0.36 | 51 | 1016.2 |
| 20260831174536 | 21 | 267 | 11.3 | 19.3 | 0.00 | 0.36 | 0.36 | 51 | 1016.2 |
| 20260831174530 | 21 | 269 | 11.3 | 19.3 | 0.00 | 0.36 | 0.36 | 51 | 1016.2 |
| 20260831174522 | 21 | 268 | 11.3 | 19.3 | 0.00 | 0.36 | 0.36 | 51 | 1016.1 |
| 20260831174302 | 21 | 288 | 11.3 | 19.3 | 0.00 | 0.36 | 0.36 | 51 | 1016.2 |
| 20260831174202 | 21 | 274 | 11.3 | 19.3 | 0.00 | 0.36 | 0.36 | 51 | 1016.1 |
| 20260831174102 | 21 | 273 | 11.3 | 20.9 | 0.00 | 0.36 | 0.36 | 51 | 1016.1 |
| 20260831174002 | 21 | 232 | 12.9 | 20.9 | 0.00 | 0.36 | 0.36 | 51 | 1016.1 |
| 20260831173902 | 21 | 240 | 12.9 | 20.9 | 0.00 | 0.36 | 0.36 | 50 | 1016.1 |
| 20260831173813 | 21 | 242 | 12.9 | 20.9 | 0.00 | 0.36 | 0.36 | 50 | 1016.0 |
| 20260831173801 | 21 | 254 | 12.9 | 20.9 | 0.00 | 0.36 | 0.36 | 50 | 1016.0 |
| 20260831173700 | 21 | 274 | 12.9 | 20.9 | 0.00 | 0.36 | 0.36 | 51 | 1016.0 |
| 20260831173600 | 21 | 280 | 12.9 | 20.9 | 0.00 | 0.36 | 0.36 | 50 | 1016.1 |
| 20260831173501 | 21 | 252 | 12.9 | 20.9 | 0.00 | 0.36 | 0.36 | 50 | 1016.1 |
| 20260831173400 | 21 | 252 | 12.9 | 20.9 | 0.00 | 0.36 | 0.36 | 49 | 1016.0 |
| 20260831173312 | 21 | 265 | 12.9 | 20.9 | 0.00 | 0.36 | 0.36 | 50 | 1016.0 |
| 20260831173300 | 21 | 258 | 12.9 | 20.9 | 0.00 | 0.36 | 0.36 | 50 | 1016.0 |
| 20260831173155 | 21 | 244 | 12.9 | 20.9 | 0.00 | 0.36 | 0.36 | 50 | 1016.1 |
| 20260831173055 | 21 | 261 | 12.9 | 20.9 | 0.00 | 0.36 | 0.36 | 50 | 1016.0 |
| 20260831173035 | 22 | 242 | 11.3 | 20.9 | 0.00 | 0.36 | 0.36 | 50 | 1016.0 |
| 20260831173031 | 22 | 272 | 12.9 | 20.9 | 0.00 | 0.36 | 0.36 | 50 | 1016.0 |
| 20260831173023 | 22 | 265 | 11.3 | 20.9 | 0.00 | 0.36 | 0.36 | 50 | 1016.0 |
| 20260831172754 | 22 | 291 | 11.3 | 20.9 | 0.00 | 0.36 | 0.36 | 50 | 1016.0 |
| 20260831172649 | 22 | 243 | 11.3 | 20.9 | 0.00 | 0.36 | 0.36 | 50 | 1016.0 |
| 20260831172550 | 22 | 284 | 11.3 | 20.9 | 0.00 | 0.36 | 0.36 | 50 | 1016.0 |
| 20260831172535 | 22 | 256 | 11.3 | 19.3 | 0.00 | 0.36 | 0.36 | 49 | 1015.8 |
| 20260831172530 | 22 | 271 | 11.3 | 19.3 | 0.00 | 0.36 | 0.36 | 50 | 1016.0 |
| 20260831172522 | 22 | 236 | 11.3 | 19.3 | 0.00 | 0.36 | 0.36 | 50 | 1016.0 |
| 20260831172247 | 22 | 262 | 11.3 | 19.3 | 0.00 | 0.36 | 0.36 | 49 | 1015.8 |
| 20260831172146 | 22 | 264 | 11.3 | 19.3 | 0.00 | 0.36 | 0.36 | 48 | 1015.8 |
| 20260831172046 | 22 | 265 | 11.3 | 19.3 | 0.00 | 0.36 | 0.36 | 49 | 1015.8 |
| 20260831171946 | 22 | 264 | 11.3 | 19.3 | 0.00 | 0.36 | 0.36 | 48 | 1015.8 |
| 20260831171844 | 22 | 248 | 12.9 | 19.3 | 0.00 | 0.36 | 0.36 | 48 | 1015.8 |
| 20260831171812 | 22 | 242 | 12.9 | 20.9 | 0.00 | 0.36 | 0.36 | 48 | 1015.8 |
| 20260831171741 | 22 | 255 | 12.9 | 20.9 | 0.00 | 0.36 | 0.36 | 48 | 1015.8 |
| 20260831171636 | 22 | 275 | 12.9 | 20.9 | 0.00 | 0.36 | 0.36 | 48 | 1015.8 |
| 20260831171536 | 22 | 246 | 11.3 | 20.9 | 0.00 | 0.36 | 0.36 | 48 | 1015.8 |
| 20260831171440 | 22 | 275 | 11.3 | 20.9 | 0.00 | 0.36 | 0.36 | 48 | 1015.7 |
| 20260831171336 | 22 | 263 | 11.3 | 20.9 | 0.00 | 0.36 | 0.36 | 48 | 1015.8 |
| 20260831171312 | 22 | 237 | 11.3 | 20.9 | 0.00 | 0.36 | 0.36 | 48 | 1015.8 |
| 20260831171236 | 22 | 246 | 11.3 | 20.9 | 0.00 | 0.36 | 0.36 | 47 | 1015.8 |
| 20260831171130 | 22 | 265 | 11.3 | 20.9 | 0.00 | 0.36 | 0.36 | 47 | 1015.8 |
| 20260831171030 | 22 | 311 | 11.3 | 20.9 | 0.00 | 0.36 | 0.36 | 47 | 1015.7 |
| 20260831170929 | 22 | 283 | 11.3 | 20.9 | 0.00 | 0.36 | 0.36 | 48 | 1015.7 |
| 20260831170830 | 22 | 263 | 9.7 | 20.9 | 0.00 | 0.36 | 0.36 | 47 | 1015.7 |
| 20260831170812 | 22 | 259 | 9.7 | 20.9 | 0.00 | 0.36 | 0.36 | 47 | 1015.7 |
| 20260831170730 | 22 | 260 | 9.7 | 22.5 | 0.00 | 0.36 | 0.36 | 47 | 1015.7 |
| 20260831170623 | 22 | 242 | 11.3 | 22.5 | 0.00 | 0.36 | 0.36 | 47 | 1015.7 |
| 20260831170524 | 22 | 275 | 11.3 | 22.5 | 0.00 | 0.36 | 0.36 | 47 | 1015.7 |
| 20260831170423 | 22 | 265 | 11.3 | 22.5 | 0.00 | 0.36 | 0.36 | 47 | 1015.7 |
| 20260831170324 | 22 | 252 | 12.9 | 22.5 | 0.00 | 0.36 | 0.36 | 47 | 1015.7 |
| 20260831170312 | 22 | 234 | 12.9 | 22.5 | 0.00 | 0.36 | 0.36 | 47 | 1015.7 |
| 20260831170223 | 22 | 271 | 12.9 | 22.5 | 0.00 | 0.36 | 0.36 | 46 | 1015.7 |
| 20260831170120 | 22 | 281 | 12.9 | 22.5 | 0.00 | 0.36 | 0.36 | 46 | 1015.7 |
| 20260831170020 | 22 | 269 | 12.9 | 22.5 | 0.00 | 0.36 | 0.36 | 46 | 1015.6 |
| 20260831165920 | 22 | 273 | 12.9 | 22.5 | 0.00 | 0.36 | 0.36 | 46 | 1015.7 |
| 20260831165820 | 22 | 263 | 12.9 | 22.5 | 0.00 | 0.36 | 0.36 | 46 | 1015.7 |
| 20260831165812 | 22 | 233 | 12.9 | 22.5 | 0.00 | 0.36 | 0.36 | 46 | 1015.7 |
| 20260831165717 | 22 | 267 | 12.9 | 20.9 | 0.00 | 0.36 | 0.36 | 46 | 1015.6 |
| 20260831165613 | 22 | 248 | 12.9 | 20.9 | 0.00 | 0.36 | 0.36 | 45 | 1015.7 |
| 20260831165539 | 22 | 254 | 12.9 | 24.1 | 0.00 | 0.36 | 0.36 | 46 | 1015.6 |
| 20260831165533 | 22 | 255 | 12.9 | 19.3 | 0.00 | 0.36 | 0.36 | 46 | 1015.7 |
| 20260831165526 | 22 | 315 | 12.9 | 24.1 | 0.00 | 0.36 | 0.36 | 46 | 1015.7 |
| 20260831165522 | 22 | 247 | 12.9 | 24.1 | 0.00 | 0.36 | 0.36 | 46 | 1015.6 |
| 20260831165212 | 22 | 269 | 12.9 | 24.1 | 0.00 | 0.36 | 0.36 | 46 | 1015.6 |
| 20260831165107 | 22 | 243 | 12.9 | 24.1 | 0.00 | 0.36 | 0.36 | 46 | 1015.7 |
| 20260831165007 | 22 | 262 | 12.9 | 24.1 | 0.00 | 0.36 | 0.36 | 46 | 1015.6 |
| 20260831164908 | 22 | 281 | 14.5 | 24.1 | 0.00 | 0.36 | 0.36 | 46 | 1015.6 |
| 20260831164807 | 22 | 236 | 14.5 | 24.1 | 0.00 | 0.36 | 0.36 | 45 | 1015.6 |
| 20260831164705 | 22 | 283 | 14.5 | 24.1 | 0.00 | 0.36 | 0.36 | 45 | 1015.5 |
| 20260831164604 | 22 | 268 | 14.5 | 24.1 | 0.00 | 0.36 | 0.36 | 44 | 1015.6 |
| 20260831164504 | 22 | 277 | 14.5 | 24.1 | 0.00 | 0.36 | 0.36 | 44 | 1015.7 |
| 20260831164403 | 23 | 257 | 14.5 | 24.1 | 0.00 | 0.36 | 0.36 | 44 | 1015.6 |
| 20260831164308 | 23 | 253 | 14.5 | 24.1 | 0.00 | 0.36 | 0.36 | 44 | 1015.6 |
| 20260831164302 | 22 | 259 | 14.5 | 24.1 | 0.00 | 0.36 | 0.36 | 44 | 1015.6 |
| 20260831164202 | 23 | 238 | 16.1 | 24.1 | 0.00 | 0.36 | 0.36 | 44 | 1015.6 |
| 20260831164102 | 23 | 265 | 16.1 | 29.0 | 0.00 | 0.36 | 0.36 | 43 | 1015.7 |
| 20260831164002 | 23 | 251 | 16.1 | 29.0 | 0.00 | 0.36 | 0.36 | 43 | 1015.6 |
| 20260831163902 | 23 | 256 | 16.1 | 29.0 | 0.00 | 0.36 | 0.36 | 43 | 1015.6 |
| 20260831163808 | 23 | 250 | 16.1 | 29.0 | 0.00 | 0.36 | 0.36 | 43 | 1015.6 |
| 20260831163800 | 23 | 248 | 16.1 | 29.0 | 0.00 | 0.36 | 0.36 | 43 | 1015.6 |
| 20260831163659 | 23 | 267 | 16.1 | 29.0 | 0.00 | 0.36 | 0.36 | 42 | 1015.6 |
| 20260831163559 | 23 | 278 | 17.7 | 29.0 | 0.00 | 0.36 | 0.36 | 43 | 1015.6 |
| 20260831163459 | 23 | 267 | 17.7 | 29.0 | 0.00 | 0.36 | 0.36 | 42 | 1015.6 |
| 20260831163359 | 23 | 260 | 17.7 | 29.0 | 0.00 | 0.36 | 0.36 | 42 | 1015.6 |
| 20260831163307 | 23 | 263 | 17.7 | 29.0 | 0.00 | 0.36 | 0.36 | 42 | 1015.6 |
| 20260831163258 | 23 | 279 | 17.7 | 29.0 | 0.00 | 0.36 | 0.36 | 42 | 1015.6 |
| 20260831163158 | 23 | 293 | 16.1 | 29.0 | 0.00 | 0.36 | 0.36 | 42 | 1015.7 |
| 20260831163058 | 23 | 285 | 16.1 | 27.4 | 0.00 | 0.36 | 0.36 | 42 | 1015.7 |
| 20260831162958 | 23 | 250 | 14.5 | 27.4 | 0.00 | 0.36 | 0.36 | 42 | 1015.6 |
| 20260831162858 | 23 | 219 | 14.5 | 27.4 | 0.00 | 0.36 | 0.36 | 43 | 1015.6 |
| 20260831162808 | 23 | 298 | 14.5 | 27.4 | 0.00 | 0.36 | 0.36 | 42 | 1015.5 |
| 20260831162758 | 23 | 248 | 14.5 | 27.4 | 0.00 | 0.36 | 0.36 | 42 | 1015.5 |
| 20260831162658 | 23 | 271 | 14.5 | 27.4 | 0.00 | 0.36 | 0.36 | 42 | 1015.6 |
| 20260831162557 | 23 | 247 | 12.9 | 27.4 | 0.00 | 0.36 | 0.36 | 43 | 1015.6 |
| 20260831162457 | 23 | 267 | 12.9 | 24.1 | 0.00 | 0.36 | 0.36 | 44 | 1015.5 |
| 20260831162353 | 23 | 243 | 12.9 | 25.7 | 0.00 | 0.36 | 0.36 | 44 | 1015.5 |
| 20260831162308 | 23 | 253 | 12.9 | 25.7 | 0.00 | 0.36 | 0.36 | 44 | 1015.5 |
| 20260831162251 | 23 | 250 | 12.9 | 25.7 | 0.00 | 0.36 | 0.36 | 44 | 1015.5 |
| 20260831162151 | 23 | 249 | 14.5 | 25.7 | 0.00 | 0.36 | 0.36 | 43 | 1015.5 |
| 20260831162052 | 23 | 270 | 14.5 | 25.7 | 0.00 | 0.36 | 0.36 | 44 | 1015.6 |
| 20260831161952 | 23 | 252 | 14.5 | 25.7 | 0.00 | 0.36 | 0.36 | 43 | 1015.6 |
| 20260831161851 | 23 | 257 | 14.5 | 25.7 | 0.00 | 0.36 | 0.36 | 43 | 1015.6 |
| 20260831161807 | 23 | 281 | 16.1 | 25.7 | 0.00 | 0.36 | 0.36 | 42 | 1015.6 |
| 20260831161750 | 23 | 230 | 16.1 | 25.7 | 0.00 | 0.36 | 0.36 | 42 | 1015.6 |
| 20260831161650 | 23 | 283 | 16.1 | 25.7 | 0.00 | 0.36 | 0.36 | 42 | 1015.6 |